AA71 / N826AN 7700 Squawk Report (27th of November, 2022)

Aircraft B789 Reg No. N826AN Age 5 years old
Model 787 Jet engines 2 First flight 02-05-17
Registered 02-06-17 Rollout N/A Delivered 02-06-17
Construction No. 40649 Line No. 0560 Series 9
ADSHEX AB4732 Airline name American Airlines Owner N/A
Airfield based Dallas-Fort Worth~TX~N First tracked N/A
Time Lat Lon Altitude Heading Speed Vertical Rate
2022-11-27 12:37:38 GMT 55.863476 -4.440193 0 244 0 0
2022-11-27 12:37:32 GMT 55.863476 -4.440193 0 244 0 0
2022-11-27 12:37:31 GMT 55.863476 -4.440204 0 244 0 0
2022-11-27 12:37:29 GMT 55.863476 -4.440193 0 244 0 0
2022-11-27 12:37:28 GMT 55.863476 -4.440204 0 244 0 0
2022-11-27 12:37:26 GMT 55.863476 -4.440193 0 244 0 0
2022-11-27 12:37:23 GMT 55.863476 -4.440183 0 244 0 0
2022-11-27 12:37:20 GMT 55.863476 -4.440162 0 244 0 0
2022-11-27 12:37:18 GMT 55.863487 -4.440141 0 244 0 0
2022-11-27 12:37:17 GMT 55.863487 -4.440141 0 244 0 0
2022-11-27 12:37:16 GMT 55.863487 -4.440150 0 244 0 0
2022-11-27 12:37:14 GMT 55.863487 -4.440129 0 244 0 0
2022-11-27 12:37:12 GMT 55.863499 -4.440120 0 244 0 0
2022-11-27 12:37:11 GMT 55.863499 -4.440100 0 244 0 0
2022-11-27 12:37:09 GMT 55.863499 -4.440107 0 244 1 0
2022-11-27 12:37:08 GMT 55.863510 -4.440079 0 244 1 0
2022-11-27 12:37:06 GMT 55.863510 -4.440079 0 244 1 0
2022-11-27 12:37:05 GMT 55.863510 -4.440058 0 244 2 0
2022-11-27 12:37:03 GMT 55.863522 -4.440058 0 244 2 0
2022-11-27 12:37:02 GMT 55.863522 -4.440043 0 244 2 0
2022-11-27 12:37:01 GMT 55.863533 -4.439996 0 244 3 0
2022-11-27 12:36:59 GMT 55.863537 -4.439979 0 244 3 0
2022-11-27 12:36:58 GMT 55.863548 -4.439957 0 244 4 0
2022-11-27 12:36:57 GMT 55.863556 -4.439912 0 244 4 0
2022-11-27 12:36:55 GMT 55.863571 -4.439893 0 244 4 0
2022-11-27 12:36:54 GMT 55.863571 -4.439850 0 244 5 0
2022-11-27 12:36:52 GMT 55.863594 -4.439807 0 241 5 0
2022-11-27 12:36:49 GMT 55.863613 -4.439725 0 241 5 0
2022-11-27 12:36:48 GMT 55.863628 -4.439678 0 241 6 0
2022-11-27 12:36:47 GMT 55.863636 -4.439642 0 241 6 0
2022-11-27 12:36:45 GMT 55.863663 -4.439549 0 236 6 0
2022-11-27 12:36:44 GMT 55.863670 -4.439496 0 233 7 0
2022-11-27 12:36:43 GMT 55.863697 -4.439399 0 230 7 0
2022-11-27 12:36:41 GMT 55.863708 -4.439356 0 227 6 0
2022-11-27 12:36:40 GMT 55.863743 -4.439292 0 222 6 0
2022-11-27 12:36:38 GMT 55.863762 -4.439246 0 219 6 0
2022-11-27 12:36:35 GMT 55.863804 -4.439142 0 210 5 0
2022-11-27 12:36:34 GMT 55.863819 -4.439122 0 208 4 0
2022-11-27 12:36:33 GMT 55.863842 -4.439059 0 202 4 0
2022-11-27 12:36:31 GMT 55.863853 -4.439038 0 199 4 0
2022-11-27 12:36:30 GMT 55.863865 -4.439018 0 194 4 0
2022-11-27 12:36:28 GMT 55.863888 -4.438976 0 185 5 0
2022-11-27 12:36:27 GMT 55.863907 -4.438949 0 182 5 0
2022-11-27 12:36:26 GMT 55.863934 -4.438893 0 171 5 0
2022-11-27 12:36:23 GMT 55.863968 -4.438872 0 165 5 0
2022-11-27 12:36:21 GMT 55.864014 -4.438872 0 157 5 0
2022-11-27 12:36:19 GMT 55.864094 -4.438914 0 154 6 0
2022-11-27 12:36:17 GMT 55.864094 -4.438914 0 154 6 0
2022-11-27 12:36:16 GMT 55.864117 -4.438934 0 154 6 0
2022-11-27 12:36:14 GMT 55.864162 -4.438976 0 154 6 0
2022-11-27 12:36:13 GMT 55.864174 -4.438992 0 154 6 0
2022-11-27 12:36:12 GMT 55.864246 -4.439056 0 154 5 0
2022-11-27 12:36:10 GMT 55.864246 -4.439056 0 154 5 0
2022-11-27 12:36:08 GMT 55.864288 -4.439101 0 154 5 0
2022-11-27 12:36:07 GMT 55.864311 -4.439122 0 154 5 0
2022-11-27 12:36:05 GMT 55.864346 -4.439163 0 154 5 0
2022-11-27 12:36:04 GMT 55.864372 -4.439185 0 154 5 0
2022-11-27 12:36:03 GMT 55.864407 -4.439206 0 154 4 0
2022-11-27 12:36:01 GMT 55.864418 -4.439228 0 154 4 0
2022-11-27 12:36:00 GMT 55.864429 -4.439249 0 154 4 0
2022-11-27 12:35:59 GMT 55.864468 -4.439270 0 154 4 0
2022-11-27 12:35:56 GMT 55.864513 -4.439313 0 154 5 0
2022-11-27 12:35:54 GMT 55.864525 -4.439335 0 154 5 0
2022-11-27 12:35:52 GMT 55.864559 -4.439356 0 154 5 0
2022-11-27 12:35:51 GMT 55.864620 -4.439413 0 154 6 0
2022-11-27 12:35:50 GMT 55.864620 -4.439413 0 154 7 0
2022-11-27 12:35:49 GMT 55.864651 -4.439442 0 154 7 0
2022-11-27 12:35:46 GMT 55.864735 -4.439538 0 154 8 0
2022-11-27 12:35:43 GMT 55.864803 -4.439600 0 154 8 0
2022-11-27 12:35:41 GMT 55.864872 -4.439663 0 154 7 0
2022-11-27 12:35:40 GMT 55.864899 -4.439678 0 154 7 0
2022-11-27 12:35:38 GMT 55.864941 -4.439725 0 154 7 0
2022-11-27 12:35:37 GMT 55.864986 -4.439767 0 154 7 0
2022-11-27 12:35:36 GMT 55.865036 -4.439828 0 154 7 0
2022-11-27 12:35:33 GMT 55.865089 -4.439871 0 151 7 0
2022-11-27 12:35:32 GMT 55.865116 -4.439893 0 151 7 0
2022-11-27 12:35:30 GMT 55.865177 -4.439936 0 146 8 0
2022-11-27 12:35:29 GMT 55.865204 -4.439954 0 143 8 0
2022-11-27 12:35:27 GMT 55.865261 -4.440016 0 137 8 0
2022-11-27 12:35:26 GMT 55.865292 -4.440043 0 135 8 0
2022-11-27 12:35:25 GMT 55.865349 -4.440107 0 129 8 0
2022-11-27 12:35:22 GMT 55.865376 -4.440150 0 123 7 0
2022-11-27 12:35:21 GMT 55.865398 -4.440172 0 118 7 0
2022-11-27 12:35:19 GMT 55.865444 -4.440258 0 106 7 0
2022-11-27 12:35:18 GMT 55.865467 -4.440287 0 104 6 0
2022-11-27 12:35:17 GMT 55.865479 -4.440322 0 101 6 0
2022-11-27 12:35:16 GMT 55.865513 -4.440408 0 92 6 0
2022-11-27 12:35:13 GMT 55.865536 -4.440515 0 81 6 0
2022-11-27 12:35:12 GMT 55.865547 -4.440579 0 75 6 0
2022-11-27 12:35:11 GMT 55.865547 -4.440622 0 70 6 0
2022-11-27 12:35:10 GMT 55.865547 -4.440665 0 67 6 0
2022-11-27 12:35:08 GMT 55.865547 -4.440765 0 59 7 0
2022-11-27 12:35:06 GMT 55.865536 -4.440828 0 56 7 0
2022-11-27 12:35:05 GMT 55.865513 -4.440869 0 53 7 0
2022-11-27 12:35:02 GMT 55.865467 -4.441009 0 50 8 0
2022-11-27 12:35:01 GMT 55.865433 -4.441057 0 50 9 0
2022-11-27 12:34:58 GMT 55.865341 -4.441223 0 50 10 0
2022-11-27 12:34:57 GMT 55.865314 -4.441288 0 50 11 0
2022-11-27 12:34:56 GMT 55.865280 -4.441352 0 50 11 0
2022-11-27 12:34:54 GMT 55.865227 -4.441452 0 50 11 0
2022-11-27 12:34:53 GMT 55.865192 -4.441514 0 50 10 0
2022-11-27 12:34:51 GMT 55.865112 -4.441660 0 50 10 0
2022-11-27 12:34:50 GMT 55.865093 -4.441695 0 50 10 0
2022-11-27 12:34:49 GMT 55.865013 -4.441845 0 50 11 0
2022-11-27 12:34:47 GMT 55.865002 -4.441888 0 50 11 0
2022-11-27 12:34:45 GMT 55.864933 -4.441996 0 50 11 0
2022-11-27 12:34:44 GMT 55.864895 -4.442076 0 50 11 0
2022-11-27 12:34:43 GMT 55.864861 -4.442146 0 50 12 0
2022-11-27 12:34:42 GMT 55.864780 -4.442275 0 50 12 0
2022-11-27 12:34:40 GMT 55.864746 -4.442347 0 50 12 0
2022-11-27 12:34:39 GMT 55.864712 -4.442425 0 50 12 0
2022-11-27 12:34:37 GMT 55.864628 -4.442575 0 50 12 0
2022-11-27 12:34:36 GMT 55.864597 -4.442638 0 50 12 0
2022-11-27 12:34:35 GMT 55.864552 -4.442700 0 50 12 0
2022-11-27 12:34:34 GMT 55.864483 -4.442846 0 50 12 0
2022-11-27 12:34:32 GMT 55.864449 -4.442909 0 50 12 0
2022-11-27 12:34:31 GMT 55.864395 -4.443004 0 50 12 0
2022-11-27 12:34:30 GMT 55.864338 -4.443133 0 50 11 0
2022-11-27 12:34:28 GMT 55.864304 -4.443197 0 50 11 0
2022-11-27 12:34:27 GMT 55.864231 -4.443325 0 50 11 0
2022-11-27 12:34:25 GMT 55.864197 -4.443369 0 50 11 0
2022-11-27 12:34:24 GMT 55.864128 -4.443512 0 50 11 0
2022-11-27 12:34:22 GMT 55.864094 -4.443562 0 50 10 0
2022-11-27 12:34:21 GMT 55.864059 -4.443626 0 50 10 0
2022-11-27 12:34:19 GMT 55.863991 -4.443755 0 50 10 0
2022-11-27 12:34:17 GMT 55.863968 -4.443820 0 53 9 0
2022-11-27 12:34:15 GMT 55.863907 -4.443927 0 53 9 0
2022-11-27 12:34:14 GMT 55.863876 -4.443991 0 56 8 0
2022-11-27 12:34:13 GMT 55.863850 -4.444034 0 59 8 0
2022-11-27 12:34:11 GMT 55.863796 -4.444115 0 61 8 0
2022-11-27 12:34:10 GMT 55.863773 -4.444157 0 67 8 0
2022-11-27 12:34:09 GMT 55.863728 -4.444240 0 75 8 0
2022-11-27 12:34:07 GMT 55.863708 -4.444292 0 81 8 0
2022-11-27 12:34:06 GMT 55.863697 -4.444335 0 87 8 0
2022-11-27 12:34:04 GMT 55.863659 -4.444427 0 98 8 0
2022-11-27 12:34:03 GMT 55.863647 -4.444490 0 104 8 0
2022-11-27 12:34:02 GMT 55.863640 -4.444613 0 115 8 0
2022-11-27 12:34:00 GMT 55.863640 -4.444678 0 120 8 0
2022-11-27 12:33:59 GMT 55.863636 -4.444740 0 123 8 0
2022-11-27 12:33:57 GMT 55.863651 -4.444849 0 135 8 0
2022-11-27 12:33:56 GMT 55.863651 -4.444892 0 140 8 0
2022-11-27 12:33:55 GMT 55.863686 -4.445021 0 151 8 0
2022-11-27 12:33:53 GMT 55.863708 -4.445064 0 154 8 0
2022-11-27 12:33:51 GMT 55.863754 -4.445128 0 160 8 0
2022-11-27 12:33:50 GMT 55.863777 -4.445171 0 165 8 0
2022-11-27 12:33:49 GMT 55.863808 -4.445197 0 168 8 0
2022-11-27 12:33:48 GMT 55.863842 -4.445239 0 171 8 0
2022-11-27 12:33:46 GMT 55.863922 -4.445301 0 180 9 0
2022-11-27 12:33:45 GMT 55.863956 -4.445322 0 182 9 0
2022-11-27 12:33:44 GMT 55.863991 -4.445322 0 182 9 0
2022-11-27 12:33:43 GMT 55.864082 -4.445343 0 191 9 0
2022-11-27 12:33:41 GMT 55.864117 -4.445343 0 194 9 0
2022-11-27 12:33:40 GMT 55.864162 -4.445343 0 194 9 0
2022-11-27 12:33:38 GMT 55.864231 -4.445322 0 196 9 0
2022-11-27 12:33:36 GMT 55.864361 -4.445279 0 199 10 0
2022-11-27 12:33:34 GMT 55.864407 -4.445257 0 199 11 0
2022-11-27 12:33:33 GMT 55.864437 -4.445239 0 199 11 0
2022-11-27 12:33:31 GMT 55.864552 -4.445177 0 199 11 0
2022-11-27 12:33:30 GMT 55.864571 -4.445171 0 199 11 0
2022-11-27 12:33:28 GMT 55.864662 -4.445128 0 199 11 0
2022-11-27 12:33:27 GMT 55.864712 -4.445107 0 199 11 0
2022-11-27 12:33:26 GMT 55.864758 -4.445064 0 199 11 0
2022-11-27 12:33:24 GMT 55.864849 -4.445021 0 199 12 0
2022-11-27 12:33:22 GMT 55.864956 -4.444957 0 199 12 0
2022-11-27 12:33:19 GMT 55.865082 -4.444892 0 199 12 0
2022-11-27 12:33:17 GMT 55.865181 -4.444844 0 199 11 0
2022-11-27 12:33:15 GMT 55.865280 -4.444785 0 199 11 0
2022-11-27 12:33:14 GMT 55.865326 -4.444764 0 199 11 0
2022-11-27 12:33:13 GMT 55.865387 -4.444740 0 199 11 0
2022-11-27 12:33:12 GMT 55.865433 -4.444699 0 199 11 0
2022-11-27 12:33:10 GMT 55.865536 -4.444656 0 202 11 0
2022-11-27 12:33:09 GMT 55.865627 -4.444615 0 208 10 0
2022-11-27 12:33:07 GMT 55.865665 -4.444613 0 208 10 0
2022-11-27 12:33:06 GMT 55.865700 -4.444571 0 210 9 0
2022-11-27 12:33:04 GMT 55.865780 -4.444528 0 213 9 0
2022-11-27 12:33:03 GMT 55.865814 -4.444485 0 216 9 0
2022-11-27 12:33:02 GMT 55.865852 -4.444463 0 219 8 0
2022-11-27 12:33:01 GMT 55.865913 -4.444386 0 219 8 0
2022-11-27 12:32:59 GMT 55.865948 -4.444365 0 222 8 0
2022-11-27 12:32:58 GMT 55.865978 -4.444335 0 222 7 0
2022-11-27 12:32:56 GMT 55.866028 -4.444270 0 225 7 0
2022-11-27 12:32:55 GMT 55.866051 -4.444227 0 225 7 0
2022-11-27 12:32:53 GMT 55.866096 -4.444163 0 227 6 0
2022-11-27 12:32:52 GMT 55.866119 -4.444136 0 227 6 0
2022-11-27 12:32:51 GMT 55.866142 -4.444077 0 227 6 0
2022-11-27 12:32:50 GMT 55.866165 -4.444034 0 230 6 0
2022-11-27 12:32:48 GMT 55.866188 -4.443991 0 230 5 0
2022-11-27 12:32:47 GMT 55.866211 -4.443970 0 230 5 0
2022-11-27 12:32:46 GMT 55.866234 -4.443907 0 230 4 0
2022-11-27 12:32:44 GMT 55.866245 -4.443884 0 230 4 0
2022-11-27 12:32:43 GMT 55.866257 -4.443862 0 230 4 0
2022-11-27 12:32:42 GMT 55.866268 -4.443841 0 230 3 0
2022-11-27 12:32:39 GMT 55.866291 -4.443803 0 230 3 0
2022-11-27 12:32:38 GMT 55.866306 -4.443798 0 230 3 0
2022-11-27 12:32:37 GMT 55.866348 -4.443699 0 230 2 0
2022-11-27 12:32:31 GMT 55.866348 -4.443699 0 230 2 0
2022-11-27 12:32:26 GMT 55.866375 -4.443669 0 227 0 0
2022-11-27 12:32:12 GMT 55.866375 -4.443648 0 227 0 0
2022-11-27 12:32:01 GMT 55.866375 -4.443648 0 227 0 0
2022-11-27 12:31:52 GMT 55.866375 -4.443648 0 227 0 0
2022-11-27 12:31:41 GMT 55.866375 -4.443648 0 227 0 0
2022-11-27 12:31:31 GMT 55.866375 -4.443648 0 227 0 0
2022-11-27 12:31:26 GMT 55.866383 -4.443658 0 227 0 0
2022-11-27 12:31:22 GMT 55.866375 -4.443648 0 227 0 0
2022-11-27 12:31:12 GMT 55.866375 -4.443648 0 227 0 0
2022-11-27 12:30:57 GMT 55.866383 -4.443658 0 227 0 0
2022-11-27 12:30:52 GMT 55.866375 -4.443648 0 227 0 0
2022-11-27 12:30:47 GMT 55.866375 -4.443648 0 227 0 0
2022-11-27 12:30:41 GMT 55.866375 -4.443648 0 227 0 0
2022-11-27 12:30:37 GMT 55.866375 -4.443648 0 227 0 0
2022-11-27 12:30:31 GMT 55.866375 -4.443648 0 227 0 0
2022-11-27 12:30:26 GMT 55.866375 -4.443648 0 227 0 0
2022-11-27 12:30:21 GMT 55.866383 -4.443658 0 227 0 0
2022-11-27 12:30:11 GMT 55.866383 -4.443658 0 227 0 0
2022-11-27 12:30:01 GMT 55.866375 -4.443648 0 227 0 0
2022-11-27 12:29:51 GMT 55.866383 -4.443658 0 227 0 0
2022-11-27 12:29:47 GMT 55.866375 -4.443648 0 227 0 0
2022-11-27 12:29:42 GMT 55.866383 -4.443658 0 227 0 0
2022-11-27 12:29:37 GMT 55.866375 -4.443648 0 227 0 0
2022-11-27 12:29:31 GMT 55.866375 -4.443648 0 227 0 0
2022-11-27 12:29:27 GMT 55.866375 -4.443648 0 227 0 0
2022-11-27 12:29:21 GMT 55.866375 -4.443648 0 227 0 0
2022-11-27 12:29:12 GMT 55.866375 -4.443648 0 227 0 0
2022-11-27 12:29:01 GMT 55.866383 -4.443658 0 227 0 0
2022-11-27 12:28:56 GMT 55.866375 -4.443648 0 227 0 0
2022-11-27 12:28:52 GMT 55.866375 -4.443648 0 227 0 0
2022-11-27 12:28:46 GMT 55.866375 -4.443648 0 227 0 0
2022-11-27 12:28:42 GMT 55.866383 -4.443637 0 227 0 0
2022-11-27 12:28:36 GMT 55.866383 -4.443637 0 227 0 0
2022-11-27 12:28:32 GMT 55.866383 -4.443637 0 227 0 0
2022-11-27 12:28:21 GMT 55.866383 -4.443637 0 227 0 0
2022-11-27 12:28:17 GMT 55.866375 -4.443648 0 227 0 0
2022-11-27 12:28:12 GMT 55.866375 -4.443648 0 227 0 0
2022-11-27 12:28:07 GMT 55.866375 -4.443648 0 227 0 0
2022-11-27 12:28:02 GMT 55.866375 -4.443648 0 227 0 0
2022-11-27 12:27:52 GMT 55.866375 -4.443648 0 227 0 0
2022-11-27 12:27:47 GMT 55.866371 -4.443637 0 227 0 0
2022-11-27 12:27:37 GMT 55.866371 -4.443637 0 227 0 0
2022-11-27 12:27:32 GMT 55.866371 -4.443637 0 227 0 0
2022-11-27 12:27:27 GMT 55.866375 -4.443648 0 227 0 0
2022-11-27 12:27:22 GMT 55.866375 -4.443648 0 227 0 0
2022-11-27 12:27:17 GMT 55.866371 -4.443637 0 227 0 0
2022-11-27 12:27:12 GMT 55.866375 -4.443648 0 227 0 0
2022-11-27 12:27:02 GMT 55.866371 -4.443658 0 227 0 0
2022-11-27 12:26:57 GMT 55.866375 -4.443648 0 227 0 0
2022-11-27 12:26:52 GMT 55.866375 -4.443648 0 227 0 0
2022-11-27 12:26:47 GMT 55.866375 -4.443648 0 227 0 0
2022-11-27 12:26:37 GMT 55.866375 -4.443648 0 227 0 0
2022-11-27 12:26:27 GMT 55.866371 -4.443658 0 227 0 0
2022-11-27 12:26:22 GMT 55.866371 -4.443637 0 227 0 0
2022-11-27 12:26:16 GMT 55.866371 -4.443637 0 227 0 0
2022-11-27 12:26:11 GMT 55.866375 -4.443648 0 227 0 0
2022-11-27 12:26:07 GMT 55.866375 -4.443648 0 227 0 0
2022-11-27 12:25:57 GMT 55.866375 -4.443648 0 227 0 0
2022-11-27 12:25:52 GMT 55.866383 -4.443637 0 227 0 0
2022-11-27 12:25:47 GMT 55.866383 -4.443637 0 227 0 0
2022-11-27 12:25:42 GMT 55.866383 -4.443637 0 227 0 0
2022-11-27 12:25:39 GMT 55.866383 -4.443637 0 227 0 0
2022-11-27 12:25:35 GMT 55.866383 -4.443637 0 227 0 0
2022-11-27 12:25:33 GMT 55.866383 -4.443637 0 227 0 0
2022-11-27 12:25:32 GMT 55.866375 -4.443648 0 227 0 0
2022-11-27 12:25:30 GMT 55.866383 -4.443637 0 227 0 0
2022-11-27 12:25:29 GMT 55.866375 -4.443648 0 227 0 0
2022-11-27 12:25:27 GMT 55.866375 -4.443648 0 227 0 0
2022-11-27 12:25:24 GMT 55.866383 -4.443637 0 227 0 0
2022-11-27 12:25:21 GMT 55.866375 -4.443648 0 227 0 0
2022-11-27 12:25:19 GMT 55.866383 -4.443637 0 227 0 0
2022-11-27 12:25:17 GMT 55.866386 -4.443648 0 227 1 0
2022-11-27 12:25:16 GMT 55.866383 -4.443637 0 227 4 0
2022-11-27 12:25:15 GMT 55.866394 -4.443616 0 227 6 0
2022-11-27 12:25:13 GMT 55.866428 -4.443554 0 230 11 0
2022-11-27 12:25:12 GMT 55.866463 -4.443491 0 227 14 0
2022-11-27 12:25:10 GMT 55.866539 -4.443347 0 227 21 0
2022-11-27 12:25:09 GMT 55.866600 -4.443221 0 227 25 0
2022-11-27 12:25:08 GMT 55.866665 -4.443111 0 227 29 0
2022-11-27 12:25:06 GMT 55.866852 -4.442768 0 227 36 0
2022-11-27 12:25:05 GMT 55.866989 -4.442513 0 227 40 0
2022-11-27 12:25:03 GMT 55.867218 -4.442097 0 227 45 0
2022-11-27 12:25:02 GMT 55.867352 -4.441845 0 230 55 0
2022-11-27 12:25:01 GMT 55.867504 -4.441556 0 230 55 0
2022-11-27 12:24:59 GMT 55.867889 -4.440837 0 230 72 0
2022-11-27 12:24:58 GMT 55.868122 -4.440391 0 227 76 0
2022-11-27 12:24:56 GMT 55.868572 -4.439549 0 230 82 0
2022-11-27 12:24:55 GMT 55.868843 -4.439056 0 230 92 0
2022-11-27 12:24:54 GMT 55.869781 -4.437311 225 227 105 -64
2022-11-27 12:24:52 GMT 55.869781 -4.437311 225 227 105 -64
2022-11-27 12:24:50 GMT 55.870274 -4.436417 225 227 109 -128
2022-11-27 12:24:49 GMT 55.870651 -4.435647 225 227 113 -64
2022-11-27 12:24:47 GMT 55.871750 -4.433566 225 227 126 -64
2022-11-27 12:24:46 GMT 55.871750 -4.433566 225 227 126 -64
2022-11-27 12:24:45 GMT 55.872162 -4.432817 225 227 130 -64
2022-11-27 12:24:44 GMT 55.873123 -4.431069 225 227 140 -64
2022-11-27 12:24:41 GMT 55.874462 -4.428606 225 227 153 -64
2022-11-27 12:24:39 GMT 55.874928 -4.427662 225 227 155 -64
2022-11-27 12:24:37 GMT 55.875954 -4.425774 225 227 157 -192
2022-11-27 12:24:36 GMT 55.876419 -4.424993 225 227 157 -320
2022-11-27 12:24:35 GMT 55.876923 -4.423995 225 227 158 -512
2022-11-27 12:24:33 GMT 55.877956 -4.421997 250 227 159 -576
2022-11-27 12:24:32 GMT 55.878525 -4.420998 275 227 159 -832
2022-11-27 12:24:31 GMT 55.878979 -4.420109 300 227 159 -896
2022-11-27 12:24:29 GMT 55.880096 -4.418049 325 227 159 -896
2022-11-27 12:24:28 GMT 55.880375 -4.417448 350 227 159 -896
2022-11-27 12:24:26 GMT 55.881546 -4.415255 375 227 159 -896
2022-11-27 12:24:25 GMT 55.882004 -4.414444 375 227 159 -896
2022-11-27 12:24:24 GMT 55.883286 -4.412009 425 227 159 -832
2022-11-27 12:24:21 GMT 55.883961 -4.410753 425 227 159 -832
2022-11-27 12:24:20 GMT 55.885025 -4.408764 450 227 159 -896
2022-11-27 12:24:17 GMT 55.886333 -4.406462 500 227 159 -832
2022-11-27 12:24:16 GMT 55.887268 -4.404602 525 227 158 -768
2022-11-27 12:24:13 GMT 55.888245 -4.402857 550 227 158 -768
2022-11-27 12:24:11 GMT 55.889267 -4.400969 575 227 157 -832
2022-11-27 12:24:10 GMT 55.889732 -4.400024 575 227 157 -896
2022-11-27 12:24:08 GMT 55.890701 -4.398277 625 227 157 -832
2022-11-27 12:24:07 GMT 55.891205 -4.397278 625 227 156 -832
2022-11-27 12:24:05 GMT 55.892246 -4.395390 650 227 156 -896
2022-11-27 12:24:04 GMT 55.892715 -4.394531 675 227 155 -896
2022-11-27 12:24:02 GMT 55.893494 -4.393033 700 227 155 -960
2022-11-27 12:24:00 GMT 55.895187 -4.389870 725 227 156 -896
2022-11-27 12:23:58 GMT 55.895645 -4.389038 775 227 156 -896
2022-11-27 12:23:57 GMT 55.896111 -4.388094 775 227 156 -896
2022-11-27 12:23:56 GMT 55.896561 -4.387290 800 227 156 -896
2022-11-27 12:23:54 GMT 55.897507 -4.385519 800 227 155 -896
2022-11-27 12:23:53 GMT 55.898018 -4.384575 825 227 155 -896
2022-11-27 12:23:51 GMT 55.899765 -4.381381 875 227 153 -896
2022-11-27 12:23:48 GMT 55.901230 -4.378634 925 227 152 -832
2022-11-27 12:23:46 GMT 55.901649 -4.377794 950 227 152 -832
2022-11-27 12:23:45 GMT 55.902161 -4.376850 950 227 152 -832
2022-11-27 12:23:43 GMT 55.903137 -4.375048 975 227 151 -832
2022-11-27 12:23:42 GMT 55.903656 -4.374057 1,000 227 150 -832
2022-11-27 12:23:40 GMT 55.904526 -4.372475 1,025 227 150 -896
2022-11-27 12:23:39 GMT 55.905048 -4.371443 1,050 227 150 -832
2022-11-27 12:23:36 GMT 55.906448 -4.368896 1,075 227 149 -896
2022-11-27 12:23:35 GMT 55.907410 -4.367065 1,100 227 149 -832
2022-11-27 12:23:33 GMT 55.907867 -4.366150 1,125 227 149 -768
2022-11-27 12:23:32 GMT 55.908829 -4.364402 1,150 227 149 -832
2022-11-27 12:23:30 GMT 55.909286 -4.363487 1,150 227 149 -768
2022-11-27 12:23:29 GMT 55.909935 -4.362345 1,175 227 149 -896
2022-11-27 12:23:26 GMT 55.911392 -4.359492 1,225 227 149 -896
2022-11-27 12:23:24 GMT 55.912216 -4.357910 1,250 227 149 -768
2022-11-27 12:23:23 GMT 55.912720 -4.356995 1,250 227 149 -704
2022-11-27 12:23:22 GMT 55.913147 -4.356251 1,275 227 149 -704
2022-11-27 12:23:20 GMT 55.914139 -4.354331 1,300 227 148 -896
2022-11-27 12:23:19 GMT 55.914639 -4.353333 1,300 227 148 -896
2022-11-27 12:23:18 GMT 55.915009 -4.352646 1,325 227 148 -896
2022-11-27 12:23:16 GMT 55.915939 -4.350843 1,350 227 147 -832
2022-11-27 12:23:15 GMT 55.916473 -4.349920 1,375 227 147 -832
2022-11-27 12:23:14 GMT 55.916920 -4.349127 1,375 227 147 -832
2022-11-27 12:23:12 GMT 55.917850 -4.347410 1,400 227 146 -832
2022-11-27 12:23:11 GMT 55.918350 -4.346424 1,425 227 146 -832
2022-11-27 12:23:09 GMT 55.919804 -4.343719 1,475 227 145 -768
2022-11-27 12:23:07 GMT 55.920177 -4.343033 1,475 227 145 -832
2022-11-27 12:23:06 GMT 55.921509 -4.340515 1,500 227 144 -832
2022-11-27 12:23:04 GMT 55.921509 -4.340515 1,500 227 145 -768
2022-11-27 12:23:03 GMT 55.922607 -4.338434 1,550 227 143 -768
2022-11-27 12:23:01 GMT 55.922974 -4.337769 1,550 227 142 -768
2022-11-27 12:23:00 GMT 55.923485 -4.336853 1,575 227 142 -768
2022-11-27 12:22:59 GMT 55.924347 -4.335188 1,600 227 142 -832
2022-11-27 12:22:57 GMT 55.924740 -4.334450 1,600 227 142 -832
2022-11-27 12:22:56 GMT 55.925205 -4.333591 1,625 226 142 -768
2022-11-27 12:22:54 GMT 55.926090 -4.331961 1,650 227 141 -768
2022-11-27 12:22:53 GMT 55.926590 -4.331027 1,650 227 141 -768
2022-11-27 12:22:52 GMT 55.927048 -4.330195 1,675 227 141 -704
2022-11-27 12:22:49 GMT 55.928146 -4.328114 1,700 227 141 -832
2022-11-27 12:22:48 GMT 55.928791 -4.326897 1,700 227 142 -832
2022-11-27 12:22:47 GMT 55.929256 -4.326038 1,725 227 142 -896
2022-11-27 12:22:45 GMT 55.929932 -4.324701 1,750 227 144 -896
2022-11-27 12:22:44 GMT 55.930607 -4.323463 1,775 227 144 -832
2022-11-27 12:22:42 GMT 55.931072 -4.322519 1,800 227 145 -768
2022-11-27 12:22:41 GMT 55.931721 -4.321318 1,800 227 145 -768
2022-11-27 12:22:40 GMT 55.932220 -4.320374 1,825 227 145 -832
2022-11-27 12:22:38 GMT 55.933121 -4.318743 1,850 227 146 -704
2022-11-27 12:22:37 GMT 55.933640 -4.317793 1,850 227 146 -768
2022-11-27 12:22:36 GMT 55.934517 -4.316082 1,875 227 146 -832
2022-11-27 12:22:34 GMT 55.934982 -4.315224 1,900 227 147 -768
2022-11-27 12:22:33 GMT 55.935883 -4.313549 1,925 227 147 -768
2022-11-27 12:22:31 GMT 55.936378 -4.312563 1,925 227 147 -704
2022-11-27 12:22:30 GMT 55.936890 -4.311634 1,950 227 147 -704
2022-11-27 12:22:29 GMT 55.937851 -4.309887 1,975 227 147 -768
2022-11-27 12:22:27 GMT 55.938240 -4.309044 1,975 227 147 -768
2022-11-27 12:22:25 GMT 55.939133 -4.307390 2,000 227 147 -704
2022-11-27 12:22:24 GMT 55.939545 -4.306555 2,025 227 147 -768
2022-11-27 12:22:23 GMT 55.940094 -4.305642 2,025 227 147 -768
2022-11-27 12:22:21 GMT 55.941010 -4.303894 2,050 227 147 -832
2022-11-27 12:22:20 GMT 55.941544 -4.302950 2,075 227 147 -832
2022-11-27 12:22:19 GMT 55.942570 -4.300976 2,100 227 148 -832
2022-11-27 12:22:17 GMT 55.942795 -4.300565 2,100 227 148 -832
2022-11-27 12:22:15 GMT 55.944012 -4.298315 2,125 227 149 -960
2022-11-27 12:22:14 GMT 55.944477 -4.297371 2,150 227 150 -832
2022-11-27 12:22:13 GMT 55.944717 -4.296986 2,150 227 150 -832
2022-11-27 12:22:12 GMT 55.945782 -4.294882 2,200 228 152 -832
2022-11-27 12:22:10 GMT 55.946293 -4.293938 2,200 228 152 -896
2022-11-27 12:22:08 GMT 55.947281 -4.291992 2,225 227 154 -1024
2022-11-27 12:22:07 GMT 55.947735 -4.291191 2,250 227 155 -960
2022-11-27 12:22:06 GMT 55.948196 -4.290328 2,275 227 156 -960
2022-11-27 12:22:03 GMT 55.949570 -4.287747 2,325 227 158 -1024
2022-11-27 12:22:02 GMT 55.950806 -4.285417 2,350 227 159 -1024
2022-11-27 12:22:00 GMT 55.951309 -4.284502 2,375 227 160 -960
2022-11-27 12:21:59 GMT 55.952957 -4.281422 2,400 227 161 -896
2022-11-27 12:21:57 GMT 55.952957 -4.281422 2,425 227 162 -960
2022-11-27 12:21:56 GMT 55.953415 -4.280548 2,425 227 162 -960
2022-11-27 12:21:54 GMT 55.954422 -4.278675 2,450 227 164 -960
2022-11-27 12:21:53 GMT 55.954998 -4.277630 2,475 227 164 -960
2022-11-27 12:21:52 GMT 55.955475 -4.276761 2,500 227 166 -1024
2022-11-27 12:21:50 GMT 55.956490 -4.274883 2,525 227 167 -960
2022-11-27 12:21:49 GMT 55.956940 -4.273931 2,550 227 169 -832
2022-11-27 12:21:48 GMT 55.957558 -4.272909 2,575 227 169 -832
2022-11-27 12:21:46 GMT 55.958908 -4.270352 2,600 227 171 -640
2022-11-27 12:21:45 GMT 55.959457 -4.269354 2,600 227 171 -640
2022-11-27 12:21:43 GMT 55.960510 -4.267273 2,625 227 173 -832
2022-11-27 12:21:41 GMT 55.961609 -4.265192 2,650 227 174 -896
2022-11-27 12:21:40 GMT 55.962204 -4.264110 2,675 227 174 -896
2022-11-27 12:21:39 GMT 55.962753 -4.263111 2,675 227 174 -960
2022-11-27 12:21:38 GMT 55.964355 -4.260035 2,725 227 175 -1024
2022-11-27 12:21:36 GMT 55.964355 -4.260035 2,725 227 175 -1024
2022-11-27 12:21:34 GMT 55.965408 -4.258034 2,750 227 176 -1024
2022-11-27 12:21:33 GMT 55.966030 -4.256859 2,775 227 178 -1088
2022-11-27 12:21:32 GMT 55.967289 -4.254541 2,800 227 178 -1088
2022-11-27 12:21:30 GMT 55.967846 -4.253511 2,825 227 178 -1088
2022-11-27 12:21:29 GMT 55.968475 -4.252292 2,850 227 180 -1088
2022-11-27 12:21:28 GMT 55.969757 -4.249961 2,900 227 180 -1088
2022-11-27 12:21:26 GMT 55.969757 -4.249961 2,950 227 181 -1152
2022-11-27 12:21:24 GMT 55.972549 -4.244671 2,975 227 181 -1216
2022-11-27 12:21:22 GMT 55.972549 -4.244671 2,975 227 182 -1152
2022-11-27 12:21:21 GMT 55.973099 -4.243636 3,000 227 182 -1216
2022-11-27 12:21:19 GMT 55.974106 -4.241638 3,050 227 182 -1216
2022-11-27 12:21:18 GMT 55.974701 -4.240556 3,075 227 182 -1216
2022-11-27 12:21:17 GMT 55.976040 -4.238062 3,100 228 181 -1216
2022-11-27 12:21:14 GMT 55.976898 -4.236395 3,150 228 181 -1216
2022-11-27 12:21:13 GMT 55.977448 -4.235313 3,175 227 181 -1280
2022-11-27 12:21:12 GMT 55.978592 -4.233149 3,200 227 181 -1216
2022-11-27 12:21:10 GMT 55.979187 -4.232067 3,225 227 181 -1216
2022-11-27 12:21:09 GMT 55.979717 -4.231110 3,250 227 181 -1152
2022-11-27 12:21:08 GMT 55.980331 -4.229903 3,275 227 181 -1152
2022-11-27 12:21:06 GMT 55.981476 -4.227739 3,300 228 180 -1024
2022-11-27 12:21:05 GMT 55.981998 -4.226732 3,300 228 180 -960
2022-11-27 12:21:04 GMT 55.983170 -4.224410 3,350 227 179 -832
2022-11-27 12:21:02 GMT 55.983719 -4.223328 3,375 227 179 -768
2022-11-27 12:21:01 GMT 55.985165 -4.220638 3,400 227 179 -448
2022-11-27 12:20:58 GMT 55.987213 -4.216776 3,400 228 179 -320
2022-11-27 12:20:56 GMT 55.987213 -4.216776 3,400 227 178 -320
2022-11-27 12:20:55 GMT 55.987701 -4.215837 3,425 227 178 -320
2022-11-27 12:20:53 GMT 55.988796 -4.213772 3,425 227 178 -256
2022-11-27 12:20:52 GMT 55.989353 -4.212656 3,425 227 178 -256
2022-11-27 12:20:51 GMT 55.989914 -4.211626 3,425 227 177 -256
2022-11-27 12:20:49 GMT 55.990997 -4.209595 3,450 227 177 -192
2022-11-27 12:20:48 GMT 55.991776 -4.208097 3,450 227 177 -256
2022-11-27 12:20:47 GMT 55.992325 -4.207015 3,450 227 177 -320
2022-11-27 12:20:44 GMT 55.994019 -4.203852 3,475 227 176 -320
2022-11-27 12:20:42 GMT 55.995731 -4.200554 3,475 228 177 -256
2022-11-27 12:20:40 GMT 55.996288 -4.199524 3,500 228 177 -256
2022-11-27 12:20:39 GMT 55.997314 -4.197550 3,500 228 177 -256
2022-11-27 12:20:37 GMT 55.997910 -4.196361 3,500 228 176 -256
2022-11-27 12:20:36 GMT 55.998432 -4.195404 3,500 228 176 -256
2022-11-27 12:20:35 GMT 55.999466 -4.193365 3,500 228 176 -320
2022-11-27 12:20:32 GMT 56.000610 -4.191201 3,525 228 177 -320
2022-11-27 12:20:31 GMT 56.001709 -4.189120 3,525 227 176 -320
2022-11-27 12:20:29 GMT 56.002258 -4.188038 3,550 227 176 -320
2022-11-27 12:20:28 GMT 56.002808 -4.186956 3,550 227 176 -320
2022-11-27 12:20:26 GMT 56.004017 -4.184675 3,550 227 176 -320
2022-11-27 12:20:25 GMT 56.004578 -4.183645 3,575 227 176 -320
2022-11-27 12:20:24 GMT 56.005787 -4.181328 3,575 227 176 -320
2022-11-27 12:20:22 GMT 56.006348 -4.180212 3,575 227 176 -320
2022-11-27 12:20:21 GMT 56.007462 -4.178152 3,575 227 176 -320
2022-11-27 12:20:19 GMT 56.008022 -4.177122 3,600 227 176 -320
2022-11-27 12:20:17 GMT 56.009079 -4.175054 3,600 227 176 -320
2022-11-27 12:20:15 GMT 56.010223 -4.172974 3,600 226 175 -320
2022-11-27 12:20:14 GMT 56.010773 -4.171975 3,625 226 175 -384
2022-11-27 12:20:13 GMT 56.011826 -4.170061 3,625 226 175 -320
2022-11-27 12:20:11 GMT 56.012302 -4.169140 3,625 226 174 -320
2022-11-27 12:20:09 GMT 56.013519 -4.166981 3,625 226 174 -320
2022-11-27 12:20:08 GMT 56.014069 -4.165982 3,650 226 174 -384
2022-11-27 12:20:07 GMT 56.014755 -4.164734 3,650 226 174 -384
2022-11-27 12:20:05 GMT 56.015797 -4.162788 3,650 226 175 -320
2022-11-27 12:20:04 GMT 56.016312 -4.161821 3,675 226 174 -320
2022-11-27 12:20:03 GMT 56.017456 -4.159823 3,675 226 174 -320
2022-11-27 12:20:01 GMT 56.018143 -4.158575 3,675 225 174 -320
2022-11-27 12:20:00 GMT 56.018600 -4.157743 3,675 225 174 -320
2022-11-27 12:19:58 GMT 56.019882 -4.155495 3,700 225 173 -320
2022-11-27 12:19:56 GMT 56.021103 -4.153433 3,700 224 174 -256
2022-11-27 12:19:55 GMT 56.021660 -4.152403 3,700 224 174 -128
2022-11-27 12:19:53 GMT 56.023430 -4.149570 3,700 222 173 0
2022-11-27 12:19:50 GMT 56.024734 -4.147589 3,700 220 172 0
2022-11-27 12:19:47 GMT 56.026505 -4.144936 3,700 218 171 0
2022-11-27 12:19:45 GMT 56.027618 -4.143510 3,700 216 172 -64
2022-11-27 12:19:44 GMT 56.028316 -4.142618 3,700 215 171 0
2022-11-27 12:19:42 GMT 56.029900 -4.140730 3,700 212 170 0
2022-11-27 12:19:41 GMT 56.030502 -4.140098 3,700 212 170 0
2022-11-27 12:19:40 GMT 56.031693 -4.138766 3,700 211 169 -64
2022-11-27 12:19:38 GMT 56.032322 -4.138069 3,700 211 170 -64
2022-11-27 12:19:37 GMT 56.033066 -4.137351 3,700 211 170 -64
2022-11-27 12:19:36 GMT 56.034462 -4.135838 3,700 211 169 -64
2022-11-27 12:19:33 GMT 56.035858 -4.134464 3,700 211 168 -64
2022-11-27 12:19:32 GMT 56.037781 -4.132441 3,700 211 168 -128
2022-11-27 12:19:30 GMT 56.037781 -4.132441 3,700 211 168 -128
2022-11-27 12:19:27 GMT 56.039490 -4.130688 3,725 211 169 -192
2022-11-27 12:19:26 GMT 56.040527 -4.129611 3,725 211 169 -192
2022-11-27 12:19:25 GMT 56.041168 -4.128862 3,725 211 169 -256
2022-11-27 12:19:23 GMT 56.042542 -4.127530 3,725 211 169 -384
2022-11-27 12:19:21 GMT 56.043915 -4.126115 3,750 210 169 -576
2022-11-27 12:19:20 GMT 56.044518 -4.125452 3,750 210 170 -640
2022-11-27 12:19:18 GMT 56.046066 -4.123868 3,775 210 171 -960
2022-11-27 12:19:17 GMT 56.046799 -4.123202 3,800 210 171 -960
2022-11-27 12:19:16 GMT 56.048103 -4.121847 3,825 210 171 -960
2022-11-27 12:19:14 GMT 56.048756 -4.121161 3,850 210 170 -960
2022-11-27 12:19:13 GMT 56.050152 -4.119787 3,850 209 171 -896
2022-11-27 12:19:11 GMT 56.050781 -4.119207 3,875 209 170 -896
2022-11-27 12:19:10 GMT 56.051468 -4.118458 3,900 209 170 -896
2022-11-27 12:19:09 GMT 56.052944 -4.117041 3,925 209 171 -896
2022-11-27 12:19:07 GMT 56.053528 -4.116461 3,950 208 170 -832
2022-11-27 12:19:05 GMT 56.055180 -4.114895 3,975 208 171 -832
2022-11-27 12:19:04 GMT 56.055771 -4.114297 3,975 208 171 -832
2022-11-27 12:19:02 GMT 56.057274 -4.113007 4,025 207 171 -832
2022-11-27 12:19:01 GMT 56.057972 -4.112320 4,025 207 170 -896
2022-11-27 12:18:59 GMT 56.059296 -4.111134 4,050 206 171 -896
2022-11-27 12:18:58 GMT 56.059891 -4.110635 4,075 206 171 -896
2022-11-27 12:18:57 GMT 56.061447 -4.109303 4,100 205 170 -896
2022-11-27 12:18:55 GMT 56.062180 -4.108720 4,125 204 171 -896
2022-11-27 12:18:54 GMT 56.063557 -4.107685 4,150 203 171 -896
2022-11-27 12:18:52 GMT 56.064442 -4.106998 4,150 202 171 -896
2022-11-27 12:18:51 GMT 56.065933 -4.105968 4,200 200 172 -960
2022-11-27 12:18:49 GMT 56.066574 -4.105558 4,200 199 172 -960
2022-11-27 12:18:48 GMT 56.067352 -4.105058 4,225 198 172 -960
2022-11-27 12:18:46 GMT 56.068863 -4.104226 4,250 196 172 -1024
2022-11-27 12:18:45 GMT 56.069641 -4.103810 4,275 195 173 -960
2022-11-27 12:18:43 GMT 56.071098 -4.103136 4,300 193 173 -1024
2022-11-27 12:18:42 GMT 56.072029 -4.102793 4,325 190 173 -1024
2022-11-27 12:18:41 GMT 56.072681 -4.102535 4,350 189 174 -1024
2022-11-27 12:18:39 GMT 56.074265 -4.102106 4,375 188 174 -960
2022-11-27 12:18:38 GMT 56.075134 -4.101895 4,375 186 174 -960
2022-11-27 12:18:37 GMT 56.076035 -4.101763 4,400 186 175 -960
2022-11-27 12:18:35 GMT 56.077618 -4.101419 4,425 185 176 -960
2022-11-27 12:18:34 GMT 56.078457 -4.101334 4,450 184 176 -960
2022-11-27 12:18:32 GMT 56.080086 -4.101162 4,475 182 177 -960
2022-11-27 12:18:31 GMT 56.080811 -4.101146 4,500 181 177 -960
2022-11-27 12:18:29 GMT 56.081635 -4.101063 4,500 179 178 -1024
2022-11-27 12:18:26 GMT 56.084106 -4.101146 4,575 175 179 -1088
2022-11-27 12:18:25 GMT 56.085251 -4.101313 4,600 173 180 -1152
2022-11-27 12:18:24 GMT 56.086182 -4.101505 4,625 171 181 -1152
2022-11-27 12:18:21 GMT 56.088409 -4.102145 4,650 167 183 -1216
2022-11-27 12:18:20 GMT 56.089302 -4.102621 4,675 162 185 -1216
2022-11-27 12:18:19 GMT 56.090057 -4.102977 4,750 152 191 -1216
2022-11-27 12:18:17 GMT 56.092560 -4.104853 4,750 152 191 -1216
2022-11-27 12:18:15 GMT 56.093956 -4.106140 4,800 148 194 -1216
2022-11-27 12:18:13 GMT 56.095352 -4.107599 4,825 146 194 -1216
2022-11-27 12:18:12 GMT 56.096329 -4.108803 4,850 143 198 -1152
2022-11-27 12:18:10 GMT 56.097729 -4.110689 4,900 140 199 -1088
2022-11-27 12:18:09 GMT 56.098480 -4.111800 4,925 140 200 -1088
2022-11-27 12:18:08 GMT 56.100010 -4.114037 4,950 138 201 -1088
2022-11-27 12:18:06 GMT 56.100708 -4.115152 4,975 138 202 -1088
2022-11-27 12:18:05 GMT 56.101318 -4.116128 4,975 138 201 -1088
2022-11-27 12:18:02 GMT 56.103424 -4.119457 5,050 138 203 -1088
2022-11-27 12:18:01 GMT 56.104111 -4.120622 5,050 138 203 -1088
2022-11-27 12:17:59 GMT 56.105595 -4.122963 5,100 138 203 -1088
2022-11-27 12:17:57 GMT 56.106674 -4.124617 5,125 138 204 -1088
2022-11-27 12:17:56 GMT 56.107361 -4.125699 5,125 138 204 -1088
2022-11-27 12:17:53 GMT 56.109135 -4.128542 5,175 138 204 -1152
2022-11-27 12:17:52 GMT 56.110474 -4.130693 5,225 138 204 -1152
2022-11-27 12:17:50 GMT 56.111088 -4.131632 5,225 138 204 -1152
2022-11-27 12:17:49 GMT 56.112579 -4.134022 5,275 138 204 -1152
2022-11-27 12:17:46 GMT 56.113930 -4.136181 5,300 138 204 -1152
2022-11-27 12:17:44 GMT 56.116562 -4.140348 5,400 138 204 -1216
2022-11-27 12:17:41 GMT 56.117886 -4.142447 5,425 138 204 -1216
2022-11-27 12:17:39 GMT 56.119629 -4.145258 5,450 138 204 -1280
2022-11-27 12:17:37 GMT 56.120361 -4.146340 5,475 138 204 -1280
2022-11-27 12:17:35 GMT 56.121918 -4.148837 5,525 138 204 -1280
2022-11-27 12:17:34 GMT 56.122604 -4.149919 5,550 138 204 -1280
2022-11-27 12:17:33 GMT 56.123337 -4.151084 5,575 138 204 -1280
2022-11-27 12:17:31 GMT 56.124756 -4.153331 5,650 138 204 -1280
2022-11-27 12:17:30 GMT 56.125519 -4.154549 5,650 138 204 -1280
2022-11-27 12:17:29 GMT 56.126129 -4.155495 5,650 138 204 -1280
2022-11-27 12:17:27 GMT 56.127548 -4.157743 5,700 138 204 -1280
2022-11-27 12:17:26 GMT 56.128311 -4.159012 5,725 138 203 -1216
2022-11-27 12:17:24 GMT 56.129791 -4.161321 5,775 138 203 -1216
2022-11-27 12:17:22 GMT 56.130875 -4.163046 5,800 138 203 -1216
2022-11-27 12:17:21 GMT 56.131622 -4.164235 5,825 138 203 -1216
2022-11-27 12:17:20 GMT 56.132408 -4.165449 5,850 138 203 -1216
2022-11-27 12:17:18 GMT 56.133804 -4.167681 5,875 138 204 -1152
2022-11-27 12:17:17 GMT 56.134830 -4.169312 5,900 138 204 -1088
2022-11-27 12:17:16 GMT 56.135147 -4.169811 5,925 138 204 -1088
2022-11-27 12:17:15 GMT 56.136841 -4.172474 5,975 138 204 -1024
2022-11-27 12:17:13 GMT 56.137482 -4.173517 6,025 138 204 -1024
2022-11-27 12:17:11 GMT 56.138992 -4.175887 6,025 138 204 -960
2022-11-27 12:17:08 GMT 56.141098 -4.179216 6,050 138 204 -896
2022-11-27 12:17:07 GMT 56.142464 -4.181328 6,100 138 204 -832
2022-11-27 12:17:05 GMT 56.143250 -4.182545 6,100 138 204 -832
2022-11-27 12:17:04 GMT 56.143936 -4.183627 6,125 138 204 -768
2022-11-27 12:17:03 GMT 56.145443 -4.185963 6,150 138 204 -704
2022-11-27 12:17:01 GMT 56.146191 -4.187078 6,150 138 204 -640
2022-11-27 12:16:59 GMT 56.147507 -4.189203 6,175 138 204 -640
2022-11-27 12:16:58 GMT 56.148281 -4.190426 6,200 138 204 -448
2022-11-27 12:16:56 GMT 56.149727 -4.192657 6,200 138 204 -320
2022-11-27 12:16:55 GMT 56.150391 -4.193615 6,200 138 204 -192
2022-11-27 12:16:54 GMT 56.151730 -4.195747 6,200 139 204 -64
2022-11-27 12:16:52 GMT 56.152428 -4.196863 6,200 139 204 0
2022-11-27 12:16:51 GMT 56.153229 -4.198026 6,200 139 204 64
2022-11-27 12:16:49 GMT 56.154568 -4.200125 6,200 139 204 0
2022-11-27 12:16:48 GMT 56.155453 -4.201498 6,200 139 204 0
2022-11-27 12:16:47 GMT 56.156067 -4.202437 6,200 139 204 0
2022-11-27 12:16:45 GMT 56.157593 -4.204760 6,200 139 204 0
2022-11-27 12:16:44 GMT 56.158291 -4.205875 6,200 139 204 0
2022-11-27 12:16:43 GMT 56.159088 -4.207098 6,200 139 204 0
2022-11-27 12:16:41 GMT 56.160233 -4.208846 6,200 139 204 -64
2022-11-27 12:16:40 GMT 56.161240 -4.210427 6,200 139 204 -64
2022-11-27 12:16:39 GMT 56.161652 -4.211093 6,200 139 203 -64
2022-11-27 12:16:37 GMT 56.163391 -4.213673 6,200 139 203 -64
2022-11-27 12:16:36 GMT 56.164017 -4.214716 6,200 139 203 -64
2022-11-27 12:16:35 GMT 56.164673 -4.215670 6,200 138 204 -64
2022-11-27 12:16:33 GMT 56.166019 -4.217806 6,200 138 204 -64
2022-11-27 12:16:32 GMT 56.166718 -4.218922 6,200 138 204 -64
2022-11-27 12:16:31 GMT 56.167511 -4.220082 6,200 139 204 -128
2022-11-27 12:16:30 GMT 56.168793 -4.222079 6,225 138 205 -64
2022-11-27 12:16:28 GMT 56.169525 -4.223244 6,200 138 205 -128
2022-11-27 12:16:27 GMT 56.170532 -4.224826 6,225 138 205 -128
2022-11-27 12:16:25 GMT 56.171951 -4.226990 6,200 138 206 -192
2022-11-27 12:16:24 GMT 56.172546 -4.227905 6,225 139 209 -128
2022-11-27 12:16:22 GMT 56.174355 -4.230766 6,225 139 210 -128
2022-11-27 12:16:20 GMT 56.175377 -4.232311 6,225 139 210 -128
2022-11-27 12:16:18 GMT 56.177147 -4.235058 6,225 139 212 -128
2022-11-27 12:16:15 GMT 56.179321 -4.238475 6,225 139 215 -128
2022-11-27 12:16:14 GMT 56.179985 -4.239521 6,225 139 215 -128
2022-11-27 12:16:13 GMT 56.181610 -4.241971 6,225 139 218 -64
2022-11-27 12:16:11 GMT 56.182407 -4.243298 6,225 139 218 -64
2022-11-27 12:16:10 GMT 56.183990 -4.245615 6,225 139 220 64
2022-11-27 12:16:08 GMT 56.184677 -4.246715 6,225 139 221 128
2022-11-27 12:16:07 GMT 56.185455 -4.247880 6,225 139 222 128
2022-11-27 12:16:06 GMT 56.186920 -4.250164 6,225 139 224 64
2022-11-27 12:16:04 GMT 56.187653 -4.251293 6,225 139 224 64
2022-11-27 12:16:03 GMT 56.188503 -4.252653 6,225 139 226 64
2022-11-27 12:16:02 GMT 56.190170 -4.255205 6,225 139 227 128
2022-11-27 12:16:00 GMT 56.190948 -4.256370 6,225 139 227 64
2022-11-27 12:15:58 GMT 56.192650 -4.258919 6,225 139 226 -64
2022-11-27 12:15:57 GMT 56.193375 -4.260032 6,225 139 226 -64
2022-11-27 12:15:56 GMT 56.195068 -4.262524 6,225 139 226 0
2022-11-27 12:15:53 GMT 56.197220 -4.265858 6,225 139 226 -64
2022-11-27 12:15:51 GMT 56.198093 -4.267159 6,225 139 226 -64
2022-11-27 12:15:49 GMT 56.199921 -4.269936 6,225 139 226 -64
2022-11-27 12:15:48 GMT 56.200745 -4.271185 6,225 139 226 -64
2022-11-27 12:15:47 GMT 56.201447 -4.272223 6,225 139 226 -64
2022-11-27 12:15:45 GMT 56.202988 -4.274514 6,225 139 226 -64
2022-11-27 12:15:44 GMT 56.203766 -4.275762 6,225 139 226 -64
2022-11-27 12:15:43 GMT 56.204659 -4.277115 6,225 139 226 -64
2022-11-27 12:15:41 GMT 56.206242 -4.279518 6,225 139 227 -64
2022-11-27 12:15:40 GMT 56.207031 -4.280720 6,225 139 227 0
2022-11-27 12:15:39 GMT 56.209534 -4.284502 6,225 139 228 0
2022-11-27 12:15:37 GMT 56.209534 -4.284502 6,225 139 229 0
2022-11-27 12:15:36 GMT 56.210293 -4.285612 6,225 139 229 0
2022-11-27 12:15:35 GMT 56.211182 -4.286998 6,225 139 230 0
2022-11-27 12:15:33 GMT 56.212852 -4.289560 6,225 139 232 64
2022-11-27 12:15:32 GMT 56.213745 -4.290910 6,225 139 232 64
2022-11-27 12:15:31 GMT 56.214527 -4.292049 6,225 139 233 64
2022-11-27 12:15:29 GMT 56.216156 -4.294538 6,225 139 234 64
2022-11-27 12:15:28 GMT 56.216904 -4.295654 6,200 139 234 64
2022-11-27 12:15:26 GMT 56.218437 -4.298058 6,200 139 237 0
2022-11-27 12:15:23 GMT 56.221138 -4.302092 6,200 139 238 64
2022-11-27 12:15:22 GMT 56.221893 -4.303228 6,200 139 238 0
2022-11-27 12:15:20 GMT 56.223141 -4.305182 6,200 139 239 64
2022-11-27 12:15:19 GMT 56.224411 -4.307140 6,200 139 241 -64
2022-11-27 12:15:17 GMT 56.225655 -4.309044 6,200 139 241 -64
2022-11-27 12:15:16 GMT 56.226929 -4.310969 6,200 139 241 -64
2022-11-27 12:15:15 GMT 56.228668 -4.313549 6,200 139 241 0
2022-11-27 12:15:12 GMT 56.230263 -4.316082 6,225 139 241 64
2022-11-27 12:15:09 GMT 56.232635 -4.319687 6,200 139 241 0
2022-11-27 12:15:08 GMT 56.233475 -4.320974 6,200 139 240 0
2022-11-27 12:15:07 GMT 56.234390 -4.322371 6,200 139 240 -64
2022-11-27 12:15:06 GMT 56.235336 -4.323807 6,225 139 240 -64
2022-11-27 12:15:04 GMT 56.237011 -4.326468 6,225 139 238 0
2022-11-27 12:15:03 GMT 56.237915 -4.327864 6,225 139 238 0
2022-11-27 12:15:02 GMT 56.238785 -4.329196 6,225 139 238 0
2022-11-27 12:15:00 GMT 56.239666 -4.330587 6,225 139 238 0
2022-11-27 12:14:59 GMT 56.240501 -4.331875 6,225 139 238 -64
2022-11-27 12:14:58 GMT 56.242367 -4.334707 6,225 139 238 0
2022-11-27 12:14:56 GMT 56.243134 -4.335938 6,200 139 238 0
2022-11-27 12:14:55 GMT 56.243855 -4.337025 6,200 139 238 -64
2022-11-27 12:14:54 GMT 56.245529 -4.339685 6,225 139 238 -128
2022-11-27 12:14:51 GMT 56.247803 -4.343095 6,225 139 238 -128
2022-11-27 12:14:50 GMT 56.248627 -4.344427 6,225 139 238 -64
2022-11-27 12:14:48 GMT 56.249954 -4.346508 6,225 139 238 -64
2022-11-27 12:14:46 GMT 56.252048 -4.349728 6,225 139 238 -64
2022-11-27 12:14:42 GMT 56.255402 -4.354877 6,225 139 237 -64
2022-11-27 12:14:41 GMT 56.256237 -4.356079 6,225 140 238 -64
2022-11-27 12:14:39 GMT 56.257828 -4.358493 6,225 140 238 -64
2022-11-27 12:14:38 GMT 56.258751 -4.359856 6,225 140 238 -64
2022-11-27 12:14:37 GMT 56.259888 -4.361489 6,225 141 238 0
2022-11-27 12:14:35 GMT 56.261627 -4.363986 6,225 142 238 -64
2022-11-27 12:14:34 GMT 56.262131 -4.364652 6,225 142 238 -64
2022-11-27 12:14:32 GMT 56.264282 -4.367482 6,225 145 239 0
2022-11-27 12:14:31 GMT 56.265152 -4.368647 6,225 146 240 64
2022-11-27 12:14:30 GMT 56.266201 -4.369898 6,225 147 240 64
2022-11-27 12:14:27 GMT 56.268806 -4.372816 6,225 152 239 256
2022-11-27 12:14:26 GMT 56.269684 -4.373641 6,200 154 240 256
2022-11-27 12:14:25 GMT 56.270576 -4.374533 6,200 155 239 192
2022-11-27 12:14:23 GMT 56.272812 -4.376249 6,200 159 239 64
2022-11-27 12:14:22 GMT 56.273834 -4.377022 6,200 162 239 64
2022-11-27 12:14:20 GMT 56.275326 -4.377880 6,200 164 240 64
2022-11-27 12:14:18 GMT 56.277466 -4.378910 6,200 167 240 128
2022-11-27 12:14:17 GMT 56.279526 -4.379633 6,200 171 240 128
2022-11-27 12:14:15 GMT 56.280624 -4.379966 6,200 173 240 128
2022-11-27 12:14:14 GMT 56.282822 -4.380299 6,200 177 240 -64
2022-11-27 12:14:12 GMT 56.284031 -4.380455 6,200 178 240 -128
2022-11-27 12:14:11 GMT 56.285149 -4.380455 6,200 181 240 -128
2022-11-27 12:14:09 GMT 56.287380 -4.380369 6,200 184 240 0
2022-11-27 12:14:07 GMT 56.290688 -4.379940 6,200 187 238 -64
2022-11-27 12:14:05 GMT 56.291805 -4.379683 6,200 188 237 -64
2022-11-27 12:14:04 GMT 56.292873 -4.379425 6,200 188 237 -64
2022-11-27 12:14:02 GMT 56.294598 -4.378996 6,225 189 236 -64
2022-11-27 12:14:01 GMT 56.295902 -4.378653 6,225 189 236 -64
2022-11-27 12:14:00 GMT 56.297016 -4.378395 6,225 189 236 -64
2022-11-27 12:13:58 GMT 56.299160 -4.377794 6,225 189 235 -64
2022-11-27 12:13:57 GMT 56.300354 -4.377469 6,225 189 235 0
2022-11-27 12:13:55 GMT 56.302277 -4.376887 6,225 189 235 64
2022-11-27 12:13:54 GMT 56.303440 -4.376593 6,225 189 235 64
2022-11-27 12:13:53 GMT 56.304325 -4.376335 6,200 189 235 64
2022-11-27 12:13:52 GMT 56.305527 -4.375971 6,200 190 235 64
2022-11-27 12:13:50 GMT 56.307770 -4.375391 6,200 189 236 64
2022-11-27 12:13:49 GMT 56.308731 -4.375055 6,200 189 237 64
2022-11-27 12:13:48 GMT 56.309727 -4.374790 6,200 189 238 64
2022-11-27 12:13:46 GMT 56.312439 -4.374057 6,200 190 241 64
2022-11-27 12:13:44 GMT 56.314636 -4.373391 6,200 190 241 64
2022-11-27 12:13:41 GMT 56.317410 -4.372559 6,175 190 244 192
2022-11-27 12:13:39 GMT 56.319221 -4.372044 6,175 190 247 320
2022-11-27 12:13:38 GMT 56.323505 -4.370842 6,150 190 250 640
2022-11-27 12:13:36 GMT 56.323505 -4.370842 6,150 190 251 768
2022-11-27 12:13:35 GMT 56.324669 -4.370499 6,125 190 252 896
2022-11-27 12:13:33 GMT 56.326859 -4.369895 6,100 190 254 1088
2022-11-27 12:13:31 GMT 56.329422 -4.369146 6,000 190 258 1024
2022-11-27 12:13:27 GMT 56.335327 -4.367398 6,000 190 262 256
2022-11-27 12:13:25 GMT 56.336403 -4.367065 5,975 190 262 256
2022-11-27 12:13:23 GMT 56.338669 -4.366400 5,975 190 264 -128
2022-11-27 12:13:22 GMT 56.339752 -4.366121 5,975 190 264 -256
2022-11-27 12:13:20 GMT 56.342285 -4.365401 5,975 190 266 -320
2022-11-27 12:13:19 GMT 56.343521 -4.365068 5,975 190 267 -320
2022-11-27 12:13:18 GMT 56.344711 -4.364652 5,975 190 267 -192
2022-11-27 12:13:16 GMT 56.347183 -4.363986 5,975 190 269 192
2022-11-27 12:13:14 GMT 56.349018 -4.363461 5,975 190 270 256
2022-11-27 12:13:12 GMT 56.356613 -4.361239 5,975 190 273 -128
2022-11-27 12:13:09 GMT 56.356613 -4.361239 5,975 190 276 -192
2022-11-27 12:13:06 GMT 56.359489 -4.360456 5,975 190 277 -128
2022-11-27 12:13:04 GMT 56.363308 -4.359341 5,975 190 280 64
2022-11-27 12:13:02 GMT 56.364567 -4.358912 5,975 190 280 64
2022-11-27 12:13:00 GMT 56.368790 -4.357744 5,975 190 283 0
2022-11-27 12:12:57 GMT 56.370621 -4.357161 5,975 190 285 0
2022-11-27 12:12:56 GMT 56.371780 -4.356852 6,000 190 285 0
2022-11-27 12:12:55 GMT 56.373734 -4.356246 5,975 190 286 -64
2022-11-27 12:12:53 GMT 56.375690 -4.355650 5,975 190 287 -64
2022-11-27 12:12:52 GMT 56.377785 -4.355049 5,975 190 290 -128
2022-11-27 12:12:51 GMT 56.379272 -4.354581 5,975 190 291 -128
2022-11-27 12:12:49 GMT 56.381790 -4.353762 5,975 190 294 128
2022-11-27 12:12:48 GMT 56.383255 -4.353333 6,000 190 294 -128
2022-11-27 12:12:47 GMT 56.384354 -4.353000 5,975 190 296 -192
2022-11-27 12:12:46 GMT 56.387142 -4.352131 5,975 190 298 -64
2022-11-27 12:12:44 GMT 56.388260 -4.351788 5,975 190 299 0
2022-11-27 12:12:43 GMT 56.392502 -4.350503 6,000 190 302 -128
2022-11-27 12:12:41 GMT 56.392502 -4.350503 6,000 190 302 -192
2022-11-27 12:12:39 GMT 56.396778 -4.349298 6,000 190 308 -448
2022-11-27 12:12:37 GMT 56.398457 -4.348783 6,000 190 310 -256
2022-11-27 12:12:35 GMT 56.404266 -4.347090 6,025 190 312 -384
2022-11-27 12:12:32 GMT 56.404266 -4.347090 6,025 190 312 -384
2022-11-27 12:12:30 GMT 56.407104 -4.346175 6,050 190 314 -640
2022-11-27 12:12:29 GMT 56.409714 -4.345426 6,050 190 318 -896
2022-11-27 12:12:27 GMT 56.412468 -4.344664 6,075 190 318 -896
2022-11-27 12:12:26 GMT 56.413742 -4.344260 6,100 190 319 -1024
2022-11-27 12:12:23 GMT 56.418137 -4.342929 6,150 190 321 -1216
2022-11-27 12:12:21 GMT 56.421497 -4.342003 6,175 190 323 -1344
2022-11-27 12:12:18 GMT 56.430222 -4.339433 6,300 190 325 -1344
2022-11-27 12:12:15 GMT 56.430222 -4.339433 6,325 190 325 -1344
2022-11-27 12:12:11 GMT 56.436626 -4.337626 6,525 189 325 -1920
2022-11-27 12:12:08 GMT 56.440659 -4.336520 6,525 189 325 -1920
2022-11-27 12:12:05 GMT 56.445099 -4.335272 6,650 190 326 -1984
2022-11-27 12:12:01 GMT 56.455669 -4.332218 6,825 190 326 -1984
2022-11-27 12:11:58 GMT 56.455669 -4.332218 6,900 190 325 -2432
2022-11-27 12:11:55 GMT 56.460571 -4.330860 6,950 190 325 -2432
2022-11-27 12:11:52 GMT 56.464558 -4.329729 7,075 190 325 -2496
2022-11-27 12:11:49 GMT 56.473297 -4.327198 7,275 190 324 -2624
2022-11-27 12:11:46 GMT 56.473297 -4.327198 7,275 190 324 -2624
2022-11-27 12:11:43 GMT 56.478012 -4.325783 7,450 190 324 -2432
2022-11-27 12:11:39 GMT 56.483322 -4.324285 7,675 190 324 -2112
2022-11-27 12:11:36 GMT 56.488083 -4.322870 7,675 190 324 -2112
2022-11-27 12:11:33 GMT 56.494122 -4.321060 7,850 190 324 -1792
2022-11-27 12:11:30 GMT 56.496216 -4.320459 7,900 190 325 -1728
2022-11-27 12:11:29 GMT 56.498428 -4.319791 7,925 190 326 -1600
2022-11-27 12:11:26 GMT 56.504223 -4.318056 8,025 190 326 -1600
2022-11-27 12:11:23 GMT 56.507355 -4.317044 8,100 190 327 -1664
2022-11-27 12:11:22 GMT 56.510925 -4.316046 8,150 190 328 -1664
2022-11-27 12:11:19 GMT 56.513763 -4.315224 8,225 190 328 -1664
2022-11-27 12:11:18 GMT 56.517071 -4.314280 8,275 190 329 -1664
2022-11-27 12:11:15 GMT 56.518433 -4.313882 8,300 190 329 -1728
2022-11-27 12:11:14 GMT 56.520981 -4.313078 8,325 190 329 -1728
2022-11-27 12:11:13 GMT 56.522919 -4.312550 8,400 190 330 -1728
2022-11-27 12:11:11 GMT 56.525776 -4.311705 8,450 190 330 -1728
2022-11-27 12:11:09 GMT 56.528801 -4.310846 8,500 190 330 -1728
2022-11-27 12:11:08 GMT 56.530293 -4.310417 8,525 190 330 -1664
2022-11-27 12:11:07 GMT 56.531662 -4.309970 8,550 190 330 -1664
2022-11-27 12:11:04 GMT 56.536018 -4.308701 8,625 190 331 -1536
2022-11-27 12:11:03 GMT 56.537659 -4.308222 8,675 190 331 -1536
2022-11-27 12:11:02 GMT 56.540680 -4.307390 8,700 190 331 -1536
2022-11-27 12:10:59 GMT 56.543106 -4.306641 8,750 190 332 -1472
2022-11-27 12:10:58 GMT 56.545212 -4.306058 8,800 190 332 -1472
2022-11-27 12:10:56 GMT 56.548279 -4.305226 8,850 189 331 -1472
2022-11-27 12:10:55 GMT 56.551147 -4.304409 8,875 189 332 -1344
2022-11-27 12:10:53 GMT 56.552685 -4.303980 8,900 189 333 -832
2022-11-27 12:10:51 GMT 56.555878 -4.303062 8,950 189 333 -832
2022-11-27 12:10:50 GMT 56.557526 -4.302607 8,950 189 334 -640
2022-11-27 12:10:49 GMT 56.559059 -4.302177 8,975 189 334 -448
2022-11-27 12:10:47 GMT 56.561852 -4.301405 8,975 189 336 -192
2022-11-27 12:10:46 GMT 56.563995 -4.300804 8,975 189 338 0
2022-11-27 12:10:44 GMT 56.566463 -4.300117 8,975 189 338 0
2022-11-27 12:10:42 GMT 56.569256 -4.299345 8,975 189 340 0
2022-11-27 12:10:41 GMT 56.571579 -4.298734 8,975 189 340 0
2022-11-27 12:10:40 GMT 56.573135 -4.298234 8,975 189 341 -64
2022-11-27 12:10:38 GMT 56.575974 -4.297485 8,975 189 342 -64
2022-11-27 12:10:36 GMT 56.580799 -4.296083 9,000 189 343 0
2022-11-27 12:10:33 GMT 56.585503 -4.294796 9,000 189 342 64
2022-11-27 12:10:31 GMT 56.587086 -4.294367 9,000 189 342 0
2022-11-27 12:10:29 GMT 56.589432 -4.293657 9,000 189 342 -64
2022-11-27 12:10:28 GMT 56.591904 -4.292991 9,000 189 341 -64
2022-11-27 12:10:27 GMT 56.593460 -4.292479 9,000 190 340 0
2022-11-27 12:10:26 GMT 56.595184 -4.292022 9,000 190 340 -64
2022-11-27 12:10:24 GMT 56.598404 -4.291105 9,000 190 339 -64
2022-11-27 12:10:23 GMT 56.599365 -4.290762 9,000 190 339 -64
2022-11-27 12:10:22 GMT 56.601658 -4.290161 9,000 190 338 -64
2022-11-27 12:10:19 GMT 56.606140 -4.288788 9,000 190 338 64
2022-11-27 12:10:18 GMT 56.607521 -4.288389 9,000 190 337 64
2022-11-27 12:10:17 GMT 56.610764 -4.287415 9,000 190 337 64
2022-11-27 12:10:15 GMT 56.612320 -4.286985 9,000 190 337 64
2022-11-27 12:10:14 GMT 56.615387 -4.286127 9,000 190 337 64
2022-11-27 12:10:11 GMT 56.617718 -4.285465 9,000 190 337 64
2022-11-27 12:10:10 GMT 56.619858 -4.284845 8,975 189 337 0
2022-11-27 12:10:09 GMT 56.621395 -4.284402 9,000 189 338 0
2022-11-27 12:10:07 GMT 56.624187 -4.283605 8,975 189 337 -64
2022-11-27 12:10:06 GMT 56.627426 -4.282694 8,975 189 338 -64
2022-11-27 12:10:04 GMT 56.628937 -4.282265 8,975 189 339 -64
2022-11-27 12:10:02 GMT 56.630493 -4.281836 8,975 189 339 -64
2022-11-27 12:10:00 GMT 56.633926 -4.280891 9,000 189 340 -64
2022-11-27 12:09:59 GMT 56.635162 -4.280548 8,975 189 340 -64
2022-11-27 12:09:58 GMT 56.639191 -4.279432 8,975 189 340 -128
2022-11-27 12:09:55 GMT 56.641663 -4.278660 9,000 189 340 -128
2022-11-27 12:09:53 GMT 56.644951 -4.277757 9,000 189 340 0
2022-11-27 12:09:52 GMT 56.646484 -4.277314 9,000 189 340 0
2022-11-27 12:09:50 GMT 56.649605 -4.276428 9,000 189 340 0
2022-11-27 12:09:48 GMT 56.652237 -4.275742 9,000 189 339 -64
2022-11-27 12:09:47 GMT 56.653606 -4.275276 9,000 189 339 -64
2022-11-27 12:09:44 GMT 56.658588 -4.273859 9,000 190 339 -64
2022-11-27 12:09:43 GMT 56.659973 -4.273424 9,000 190 339 -64
2022-11-27 12:09:42 GMT 56.661530 -4.272995 9,000 190 339 -64
2022-11-27 12:09:40 GMT 56.664597 -4.272137 9,000 190 339 -64
2022-11-27 12:09:39 GMT 56.666153 -4.271622 9,000 190 339 -64
2022-11-27 12:09:38 GMT 56.669220 -4.270763 9,000 190 339 0
2022-11-27 12:09:35 GMT 56.672333 -4.269819 9,000 190 339 64
2022-11-27 12:09:34 GMT 56.673717 -4.269429 9,000 190 339 64
2022-11-27 12:09:33 GMT 56.676956 -4.268446 9,000 190 339 128
2022-11-27 12:09:32 GMT 56.676956 -4.268446 9,000 190 339 128
2022-11-27 12:09:30 GMT 56.679306 -4.267745 9,000 190 339 128
2022-11-27 12:09:29 GMT 56.681770 -4.267037 9,000 189 339 128
2022-11-27 12:09:27 GMT 56.684692 -4.266214 8,975 189 340 64
2022-11-27 12:09:25 GMT 56.689957 -4.264669 8,975 189 340 64
2022-11-27 12:09:23 GMT 56.691360 -4.264290 8,975 189 340 64
2022-11-27 12:09:21 GMT 56.694805 -4.263316 8,975 189 340 64
2022-11-27 12:09:20 GMT 56.695740 -4.263050 8,975 189 340 64
2022-11-27 12:09:18 GMT 56.699135 -4.262075 8,975 189 339 -64
2022-11-27 12:09:15 GMT 56.703323 -4.260893 8,975 189 339 -64
2022-11-27 12:09:13 GMT 56.707191 -4.259860 8,975 189 337 -64
2022-11-27 12:09:09 GMT 56.715042 -4.257545 8,975 190 334 -64
2022-11-27 12:09:06 GMT 56.718224 -4.256671 8,975 190 334 -64
2022-11-27 12:09:03 GMT 56.723110 -4.255253 8,975 190 334 -64
2022-11-27 12:08:58 GMT 56.729813 -4.253304 8,975 190 334 -128
2022-11-27 12:08:53 GMT 56.738205 -4.250851 9,000 190 334 -192
2022-11-27 12:08:48 GMT 56.745689 -4.248697 9,025 190 335 -384
2022-11-27 12:08:45 GMT 56.749039 -4.247722 9,025 190 336 -640
2022-11-27 12:08:42 GMT 56.753651 -4.246304 9,150 190 337 -960
2022-11-27 12:08:36 GMT 56.764729 -4.243115 9,175 189 337 -960
2022-11-27 12:08:30 GMT 56.773014 -4.240723 9,250 189 337 -1024
2022-11-27 12:08:28 GMT 56.784698 -4.237444 9,350 189 337 -1024
2022-11-27 12:08:23 GMT 56.784698 -4.237444 9,425 189 337 -1088
2022-11-27 12:08:20 GMT 56.788097 -4.236470 9,450 189 337 -1024
2022-11-27 12:08:19 GMT 56.790115 -4.235830 9,450 189 337 -1024
2022-11-27 12:08:16 GMT 56.794418 -4.234629 9,500 189 337 -1024
2022-11-27 12:08:14 GMT 56.797485 -4.233770 9,525 189 337 -1024
2022-11-27 12:08:13 GMT 56.799042 -4.233341 9,550 189 338 -1088
2022-11-27 12:08:10 GMT 56.803024 -4.232225 9,600 189 337 -1088
2022-11-27 12:08:08 GMT 56.806858 -4.231154 9,625 189 337 -1024
2022-11-27 12:08:05 GMT 56.811951 -4.229650 9,700 189 337 -1024
2022-11-27 12:08:03 GMT 56.814911 -4.228850 9,725 189 337 -1024
2022-11-27 12:08:00 GMT 56.823715 -4.226475 9,825 189 337 -1024
2022-11-27 12:07:57 GMT 56.823715 -4.226475 9,825 189 337 -1088
2022-11-27 12:07:56 GMT 56.827248 -4.225484 9,875 189 338 -1088
2022-11-27 12:07:54 GMT 56.828659 -4.225101 9,875 189 338 -1088
2022-11-27 12:07:53 GMT 56.830040 -4.224686 9,900 189 338 -1088
2022-11-27 12:07:52 GMT 56.833115 -4.223889 9,925 189 338 -1088
2022-11-27 12:07:49 GMT 56.836231 -4.223003 9,975 189 338 -1088
2022-11-27 12:07:46 GMT 56.841492 -4.221497 10,025 189 338 -1088
2022-11-27 12:07:45 GMT 56.844406 -4.220724 10,075 189 338 -1152
2022-11-27 12:07:43 GMT 56.845821 -4.220345 10,075 189 340 -1088
2022-11-27 12:07:41 GMT 56.849075 -4.219437 10,125 189 340 -1088
2022-11-27 12:07:39 GMT 56.851082 -4.218839 10,150 189 340 -1024
2022-11-27 12:07:38 GMT 56.858093 -4.216862 10,225 189 340 -1024
2022-11-27 12:07:35 GMT 56.858093 -4.216862 10,225 189 340 -1088
2022-11-27 12:07:33 GMT 56.861206 -4.216003 10,275 189 340 -1152
2022-11-27 12:07:32 GMT 56.862907 -4.215560 10,275 189 340 -1152
2022-11-27 12:07:30 GMT 56.865829 -4.214716 10,325 189 340 -1216
2022-11-27 12:07:29 GMT 56.867237 -4.214320 10,350 189 340 -1280
2022-11-27 12:07:27 GMT 56.872375 -4.212914 10,400 189 341 -1280
2022-11-27 12:07:25 GMT 56.874126 -4.212371 10,425 189 341 -1344
2022-11-27 12:07:22 GMT 56.878326 -4.211283 10,500 189 342 -1472
2022-11-27 12:07:21 GMT 56.879883 -4.210854 10,525 189 343 -1600
2022-11-27 12:07:20 GMT 56.881622 -4.210333 10,550 189 343 -1728
2022-11-27 12:07:17 GMT 56.886646 -4.209004 10,625 189 343 -1856
2022-11-27 12:07:15 GMT 56.889767 -4.208118 10,700 189 344 -1856
2022-11-27 12:07:14 GMT 56.891190 -4.207764 10,725 189 344 -1856
2022-11-27 12:07:13 GMT 56.897354 -4.206080 10,850 189 345 -1856
2022-11-27 12:07:10 GMT 56.897354 -4.206080 10,850 189 345 -1856
2022-11-27 12:07:09 GMT 56.900520 -4.205283 10,900 189 346 -1792
2022-11-27 12:07:07 GMT 56.902103 -4.204840 10,950 189 346 -1792
2022-11-27 12:07:06 GMT 56.903687 -4.204397 10,975 189 346 -1792
2022-11-27 12:07:05 GMT 56.905872 -4.203865 11,025 189 346 -1792
2022-11-27 12:07:03 GMT 56.908585 -4.203129 11,075 189 347 -1856
2022-11-27 12:07:02 GMT 56.910187 -4.202700 11,100 189 347 -1856
2022-11-27 12:07:01 GMT 56.913509 -4.201828 11,150 189 347 -1856
2022-11-27 12:06:59 GMT 56.915268 -4.201412 11,200 189 348 -1856
2022-11-27 12:06:58 GMT 56.916870 -4.200983 11,225 189 348 -1856
2022-11-27 12:06:56 GMT 56.920349 -4.200039 11,300 189 348 -1792
2022-11-27 12:06:55 GMT 56.921951 -4.199696 11,325 188 349 -1792
2022-11-27 12:06:54 GMT 56.925285 -4.198815 11,400 188 349 -1856
2022-11-27 12:06:51 GMT 56.928360 -4.198065 11,425 188 349 -1856
2022-11-27 12:06:50 GMT 56.929642 -4.197721 11,475 188 350 -1856
2022-11-27 12:06:49 GMT 56.931385 -4.197220 11,500 188 350 -1856
2022-11-27 12:06:48 GMT 56.934597 -4.196423 11,575 188 351 -1792
2022-11-27 12:06:46 GMT 56.936180 -4.196069 11,600 188 351 -1856
2022-11-27 12:06:44 GMT 56.939255 -4.195232 11,675 188 351 -1920
2022-11-27 12:06:42 GMT 56.940857 -4.194889 11,700 188 352 -1920
2022-11-27 12:06:39 GMT 56.946190 -4.193588 11,800 188 351 -1856
2022-11-27 12:06:37 GMT 56.950985 -4.192347 11,900 188 351 -1856
2022-11-27 12:06:35 GMT 56.951962 -4.192170 11,925 188 351 -1856
2022-11-27 12:06:34 GMT 56.953720 -4.191713 11,950 188 350 -1856
2022-11-27 12:06:33 GMT 56.957409 -4.190753 12,025 188 350 -1792
2022-11-27 12:06:31 GMT 56.959038 -4.190398 12,050 188 350 -1856
2022-11-27 12:06:30 GMT 56.960770 -4.189997 12,075 188 349 -1856
2022-11-27 12:06:28 GMT 56.963333 -4.189310 12,125 188 349 -1856
2022-11-27 12:06:27 GMT 56.966537 -4.188538 12,200 188 348 -1792
2022-11-27 12:06:24 GMT 56.969742 -4.187765 12,250 188 348 -1792
2022-11-27 12:06:22 GMT 56.973221 -4.186907 12,325 188 346 -1792
2022-11-27 12:06:20 GMT 56.977844 -4.185791 12,400 188 345 -1856
2022-11-27 12:06:18 GMT 56.979584 -4.185448 12,450 188 345 -1856
2022-11-27 12:06:17 GMT 56.980820 -4.185104 12,475 188 344 -1856
2022-11-27 12:06:15 GMT 56.984940 -4.184160 12,575 188 344 -1792
2022-11-27 12:06:12 GMT 56.989529 -4.183044 12,650 188 344 -1664
2022-11-27 12:06:11 GMT 56.991112 -4.182690 12,675 188 344 -1536
2022-11-27 12:06:09 GMT 56.993626 -4.182158 12,700 188 344 -1536
2022-11-27 12:06:08 GMT 56.995861 -4.181627 12,750 188 344 -1408
2022-11-27 12:06:06 GMT 56.997574 -4.181156 12,775 188 344 -1344
2022-11-27 12:06:04 GMT 57.002144 -4.180121 12,825 188 344 -1216
2022-11-27 12:06:01 GMT 57.008148 -4.178703 12,900 188 343 -896
2022-11-27 12:05:59 GMT 57.009567 -4.178324 12,925 188 343 -768
2022-11-27 12:05:57 GMT 57.012726 -4.177637 12,950 188 343 -576
2022-11-27 12:05:56 GMT 57.014435 -4.177197 12,975 188 343 -256
2022-11-27 12:05:54 GMT 57.017441 -4.176521 12,975 188 343 -256
2022-11-27 12:05:52 GMT 57.020763 -4.175691 12,975 188 343 -64
2022-11-27 12:05:51 GMT 57.023758 -4.175062 12,975 188 343 -64
2022-11-27 12:05:48 GMT 57.026917 -4.174290 12,975 188 343 -64
2022-11-27 12:05:47 GMT 57.030075 -4.173603 12,975 188 343 -64
2022-11-27 12:05:45 GMT 57.031631 -4.173174 12,975 188 344 -64
2022-11-27 12:05:43 GMT 57.034313 -4.172590 13,000 188 344 -64
2022-11-27 12:05:42 GMT 57.038269 -4.171715 13,000 188 344 -128
2022-11-27 12:05:41 GMT 57.038269 -4.171715 13,000 188 344 -64
2022-11-27 12:05:40 GMT 57.039665 -4.171349 13,000 188 344 -64
2022-11-27 12:05:38 GMT 57.043156 -4.170552 13,000 188 345 -128
2022-11-27 12:05:36 GMT 57.045547 -4.169998 13,000 188 345 -128
2022-11-27 12:05:34 GMT 57.048706 -4.169312 13,000 187 346 -192
2022-11-27 12:05:33 GMT 57.052979 -4.168337 13,000 187 346 -256
2022-11-27 12:05:30 GMT 57.056030 -4.167681 13,000 187 346 -384
2022-11-27 12:05:28 GMT 57.059032 -4.167008 13,050 187 347 -640
2022-11-27 12:05:25 GMT 57.064152 -4.165856 13,050 187 347 -640
2022-11-27 12:05:24 GMT 57.065735 -4.165413 13,075 188 347 -768
2022-11-27 12:05:22 GMT 57.070679 -4.164333 13,100 188 347 -1024
2022-11-27 12:05:20 GMT 57.072113 -4.163996 13,125 188 347 -1088
2022-11-27 12:05:18 GMT 57.074951 -4.163375 13,150 188 347 -1344
2022-11-27 12:05:17 GMT 57.076721 -4.162960 13,175 188 347 -1600
2022-11-27 12:05:16 GMT 57.078445 -4.162578 13,200 188 347 -1600
2022-11-27 12:05:14 GMT 57.081802 -4.161758 13,250 188 347 -1792
2022-11-27 12:05:13 GMT 57.083405 -4.161415 13,300 188 348 -1920
2022-11-27 12:05:12 GMT 57.085007 -4.160986 13,325 188 348 -1984
2022-11-27 12:05:09 GMT 57.090267 -4.159743 13,450 188 349 -2176
2022-11-27 12:05:08 GMT 57.090267 -4.159743 13,450 188 349 -2176
2022-11-27 12:05:07 GMT 57.093658 -4.158926 13,525 188 349 -2176
2022-11-27 12:05:06 GMT 57.095390 -4.158502 13,575 188 349 -2176
2022-11-27 12:05:04 GMT 57.097019 -4.158148 13,600 188 351 -2112
2022-11-27 12:05:02 GMT 57.100231 -4.157351 13,650 188 351 -2112
2022-11-27 12:05:00 GMT 57.103767 -4.156553 13,750 188 352 -2048
2022-11-27 12:04:58 GMT 57.108444 -4.155407 13,850 188 353 -2048
2022-11-27 12:04:56 GMT 57.110519 -4.154870 13,900 188 353 -2048
2022-11-27 12:04:54 GMT 57.116383 -4.153452 14,025 188 354 -2048
2022-11-27 12:04:51 GMT 57.118664 -4.152832 14,075 188 355 -2112
2022-11-27 12:04:49 GMT 57.121223 -4.152212 14,175 188 355 -2112
2022-11-27 12:04:47 GMT 57.125462 -4.151237 14,225 188 355 -2176
2022-11-27 12:04:46 GMT 57.127258 -4.150772 14,275 188 355 -2176
2022-11-27 12:04:45 GMT 57.128719 -4.150440 14,300 188 355 -2176
2022-11-27 12:04:43 GMT 57.131981 -4.149642 14,375 188 356 -2176
2022-11-27 12:04:42 GMT 57.135773 -4.148712 14,450 188 357 -2112
2022-11-27 12:04:38 GMT 57.141998 -4.147253 14,575 188 357 -2048
2022-11-27 12:04:36 GMT 57.143478 -4.146896 14,625 188 357 -1984
2022-11-27 12:04:35 GMT 57.145248 -4.146481 14,650 188 357 -1984
2022-11-27 12:04:34 GMT 57.150318 -4.145301 14,725 188 357 -1920
2022-11-27 12:04:32 GMT 57.150318 -4.145301 14,750 188 357 -1920
2022-11-27 12:04:31 GMT 57.151299 -4.145035 14,775 188 357 -1920
2022-11-27 12:04:29 GMT 57.154930 -4.144238 14,850 188 357 -1856
2022-11-27 12:04:27 GMT 57.158188 -4.143440 14,900 188 357 -1920
2022-11-27 12:04:25 GMT 57.161167 -4.142732 14,950 188 357 -1984
2022-11-27 12:04:24 GMT 57.166382 -4.141491 15,050 188 357 -1984
2022-11-27 12:04:22 GMT 57.166382 -4.141491 15,075 188 357 -2048
2022-11-27 12:04:21 GMT 57.168385 -4.140960 15,125 188 357 -2112
2022-11-27 12:04:18 GMT 57.171799 -4.140129 15,200 188 357 -2176
2022-11-27 12:04:17 GMT 57.174774 -4.139442 15,275 188 359 -2176
2022-11-27 12:04:16 GMT 57.177704 -4.138756 15,325 188 359 -2176
2022-11-27 12:04:14 GMT 57.179352 -4.138327 15,375 188 359 -2176
2022-11-27 12:04:13 GMT 57.180859 -4.137947 15,400 188 359 -2176
2022-11-27 12:04:12 GMT 57.186443 -4.136618 15,525 188 360 -2176
2022-11-27 12:04:10 GMT 57.186443 -4.136618 15,525 188 360 -2176
2022-11-27 12:04:09 GMT 57.189705 -4.135821 15,600 188 360 -2176
2022-11-27 12:04:07 GMT 57.191208 -4.135494 15,650 188 360 -2176
2022-11-27 12:04:05 GMT 57.193985 -4.134758 15,700 188 360 -2176
2022-11-27 12:04:04 GMT 57.196152 -4.134293 15,750 188 361 -2176
2022-11-27 12:04:02 GMT 57.200775 -4.133091 15,875 188 361 -2176
2022-11-27 12:04:00 GMT 57.202599 -4.132720 15,900 188 361 -2112
2022-11-27 12:03:59 GMT 57.207207 -4.131568 15,975 188 362 -2112
2022-11-27 12:03:57 GMT 57.207207 -4.131568 16,000 188 362 -2048
2022-11-27 12:03:56 GMT 57.210709 -4.130688 16,075 188 362 -1984
2022-11-27 12:03:54 GMT 57.212513 -4.130239 16,125 188 362 -1984
2022-11-27 12:03:52 GMT 57.215012 -4.129658 16,175 188 363 -1920
2022-11-27 12:03:51 GMT 57.217346 -4.129057 16,200 188 363 -1920
2022-11-27 12:03:50 GMT 57.219170 -4.128644 16,250 188 363 -1856
2022-11-27 12:03:49 GMT 57.222851 -4.127758 16,300 188 364 -1792
2022-11-27 12:03:46 GMT 57.228806 -4.126252 16,400 188 364 -1664
2022-11-27 12:03:44 GMT 57.228806 -4.126252 16,400 188 364 -1664
2022-11-27 12:03:43 GMT 57.230667 -4.125881 16,450 188 364 -1600
2022-11-27 12:03:41 GMT 57.234486 -4.124923 16,500 188 365 -1536
2022-11-27 12:03:40 GMT 57.236164 -4.124480 16,525 188 365 -1536
2022-11-27 12:03:39 GMT 57.237514 -4.124214 16,550 188 365 -1536
2022-11-27 12:03:37 GMT 57.240864 -4.123328 16,600 188 366 -1472
2022-11-27 12:03:36 GMT 57.242706 -4.122877 16,625 188 366 -1472
2022-11-27 12:03:34 GMT 57.246048 -4.122105 16,675 188 367 -1408
2022-11-27 12:03:33 GMT 57.247566 -4.121734 16,700 188 368 -1408
2022-11-27 12:03:32 GMT 57.249245 -4.121291 16,725 188 368 -1408
2022-11-27 12:03:31 GMT 57.253143 -4.120302 16,775 188 369 -1408
2022-11-27 12:03:28 GMT 57.257172 -4.119358 16,850 188 370 -1408
2022-11-27 12:03:26 GMT 57.258694 -4.118987 16,875 188 370 -1408
2022-11-27 12:03:24 GMT 57.262093 -4.118101 16,925 188 371 -1472
2022-11-27 12:03:23 GMT 57.264465 -4.117481 16,950 188 372 -1472
2022-11-27 12:03:20 GMT 57.269073 -4.116354 17,025 188 373 -1664
2022-11-27 12:03:19 GMT 57.272659 -4.115532 17,075 188 374 -1792
2022-11-27 12:03:17 GMT 57.274384 -4.115089 17,100 188 374 -1856
2022-11-27 12:03:16 GMT 57.276104 -4.114646 17,150 188 375 -1920
2022-11-27 12:03:15 GMT 57.279373 -4.113865 17,200 188 376 -1920
2022-11-27 12:03:13 GMT 57.280899 -4.113405 17,250 188 376 -1920
2022-11-27 12:03:12 GMT 57.283173 -4.112835 17,275 188 376 -1984
2022-11-27 12:03:10 GMT 57.286438 -4.112076 17,350 188 377 -1984
2022-11-27 12:03:09 GMT 57.288162 -4.111633 17,375 188 377 -1984
2022-11-27 12:03:08 GMT 57.290039 -4.111118 17,400 188 378 -1920
2022-11-27 12:03:07 GMT 57.293152 -4.110346 17,475 188 378 -1920
2022-11-27 12:03:05 GMT 57.295097 -4.109861 17,500 188 378 -1856
2022-11-27 12:03:04 GMT 57.296822 -4.109418 17,525 188 379 -1920
2022-11-27 12:03:02 GMT 57.300636 -4.108532 17,600 188 379 -1856
2022-11-27 12:03:01 GMT 57.302361 -4.108089 17,625 188 380 -1856
2022-11-27 12:02:58 GMT 57.306702 -4.106998 17,700 188 380 -1792
2022-11-27 12:02:57 GMT 57.308273 -4.106583 17,725 188 380 -1792
2022-11-27 12:02:56 GMT 57.310040 -4.106140 17,775 188 381 -1792
2022-11-27 12:02:54 GMT 57.313339 -4.105282 17,800 188 381 -1792
2022-11-27 12:02:53 GMT 57.315254 -4.104811 17,850 188 381 -1792
2022-11-27 12:02:52 GMT 57.318420 -4.104014 17,900 188 382 -1792
2022-11-27 12:02:50 GMT 57.320145 -4.103571 17,925 188 382 -1792
2022-11-27 12:02:49 GMT 57.321911 -4.103128 17,975 188 382 -1792
2022-11-27 12:02:47 GMT 57.325241 -4.102278 18,050 188 383 -1728
2022-11-27 12:02:46 GMT 57.327667 -4.101677 18,075 188 383 -1728
2022-11-27 12:02:45 GMT 57.331192 -4.100733 18,150 188 384 -1856
2022-11-27 12:02:43 GMT 57.332760 -4.100381 18,225 188 385 -1792
2022-11-27 12:02:41 GMT 57.336994 -4.099229 18,250 189 385 -1792
2022-11-27 12:02:39 GMT 57.340714 -4.098330 18,300 189 385 -1856
2022-11-27 12:02:38 GMT 57.342628 -4.097812 18,350 189 385 -1920
2022-11-27 12:02:37 GMT 57.344559 -4.097300 18,375 189 386 -1920
2022-11-27 12:02:34 GMT 57.349331 -4.096040 18,475 189 386 -1920
2022-11-27 12:02:33 GMT 57.351101 -4.095597 18,500 189 386 -1920
2022-11-27 12:02:32 GMT 57.353565 -4.094977 18,550 189 387 -1920
2022-11-27 12:02:30 GMT 57.356407 -4.094179 18,600 189 387 -1920
2022-11-27 12:02:29 GMT 57.360168 -4.093266 18,675 189 387 -1984
2022-11-27 12:02:27 GMT 57.361908 -4.092751 18,700 188 388 -1984
2022-11-27 12:02:26 GMT 57.363693 -4.092321 18,725 188 388 -1984
2022-11-27 12:02:25 GMT 57.365623 -4.091787 18,775 188 388 -1984
2022-11-27 12:02:23 GMT 57.369049 -4.090948 18,825 188 388 -2048
2022-11-27 12:02:21 GMT 57.372421 -4.090104 18,900 188 388 -2048
2022-11-27 12:02:19 GMT 57.376144 -4.089060 18,975 188 389 -2048
2022-11-27 12:02:18 GMT 57.378101 -4.088597 19,000 188 389 -2048
2022-11-27 12:02:17 GMT 57.379868 -4.088154 19,050 188 389 -2048
2022-11-27 12:02:16 GMT 57.383453 -4.087180 19,125 188 389 -1984
2022-11-27 12:02:14 GMT 57.385071 -4.086742 19,150 188 389 -1984
2022-11-27 12:02:13 GMT 57.386993 -4.086294 19,200 188 389 -1984
2022-11-27 12:02:12 GMT 57.390949 -4.085231 19,250 189 390 -1920
2022-11-27 12:02:10 GMT 57.392345 -4.084876 19,275 189 390 -1920
2022-11-27 12:02:09 GMT 57.394161 -4.084433 19,325 189 390 -1920
2022-11-27 12:02:08 GMT 57.397522 -4.083481 19,375 189 391 -1920
2022-11-27 12:02:06 GMT 57.399143 -4.083016 19,425 189 391 -1920
2022-11-27 12:02:05 GMT 57.400909 -4.082573 19,450 189 392 -1920
2022-11-27 12:02:04 GMT 57.402878 -4.082022 19,475 189 392 -1920
2022-11-27 12:02:02 GMT 57.406311 -4.081067 19,550 189 392 -1920
2022-11-27 12:02:01 GMT 57.408081 -4.080624 19,575 189 392 -1856
2022-11-27 12:01:59 GMT 57.411850 -4.079533 19,650 189 393 -1792
2022-11-27 12:01:58 GMT 57.413853 -4.079029 19,675 189 393 -1792
2022-11-27 12:01:55 GMT 57.419403 -4.077387 19,775 189 394 -1664
2022-11-27 12:01:54 GMT 57.422836 -4.076459 19,825 189 395 -1600
2022-11-27 12:01:52 GMT 57.424805 -4.075842 19,850 190 395 -1472
2022-11-27 12:01:51 GMT 57.428421 -4.074812 19,900 189 396 -1216
2022-11-27 12:01:49 GMT 57.430252 -4.074297 19,925 189 396 -1152
2022-11-27 12:01:48 GMT 57.431671 -4.073868 19,950 189 396 -1152
2022-11-27 12:01:45 GMT 57.437267 -4.072207 20,000 189 396 -704
2022-11-27 12:01:43 GMT 57.441467 -4.070950 20,000 189 396 -576
2022-11-27 12:01:42 GMT 57.443089 -4.070435 20,000 189 396 -384
2022-11-27 12:01:41 GMT 57.444717 -4.070005 20,000 189 396 -256
2022-11-27 12:01:40 GMT 57.446346 -4.069549 20,000 189 396 -256
2022-11-27 12:01:38 GMT 57.450485 -4.068289 20,000 190 395 -192
2022-11-27 12:01:36 GMT 57.453934 -4.067245 20,000 190 395 -320
2022-11-27 12:01:35 GMT 57.455887 -4.066658 20,025 190 395 -448
2022-11-27 12:01:34 GMT 57.457718 -4.066143 20,025 190 395 -512
2022-11-27 12:01:32 GMT 57.461521 -4.065030 20,050 190 395 -832
2022-11-27 12:01:31 GMT 57.463291 -4.064498 20,075 190 395 -896
2022-11-27 12:01:29 GMT 57.466736 -4.063482 20,100 190 396 -1152
2022-11-27 12:01:27 GMT 57.470352 -4.062452 20,150 190 396 -1408
2022-11-27 12:01:24 GMT 57.475067 -4.060993 20,300 190 397 -1728
2022-11-27 12:01:22 GMT 57.479370 -4.059706 20,300 190 397 -1856
2022-11-27 12:01:20 GMT 57.482300 -4.058847 20,350 190 397 -1856
2022-11-27 12:01:17 GMT 57.487701 -4.057217 20,450 190 398 -1792
2022-11-27 12:01:16 GMT 57.489532 -4.056702 20,475 190 399 -1728
2022-11-27 12:01:15 GMT 57.491177 -4.056170 20,500 190 399 -1728
2022-11-27 12:01:13 GMT 57.494614 -4.055157 20,550 190 399 -1664
2022-11-27 12:01:12 GMT 57.496250 -4.054664 20,575 190 400 -1664
2022-11-27 12:01:11 GMT 57.503185 -4.052537 20,625 190 400 -1600
2022-11-27 12:01:09 GMT 57.503185 -4.052537 20,650 190 401 -1600
2022-11-27 12:01:07 GMT 57.506863 -4.051474 20,750 190 401 -1664
2022-11-27 12:01:04 GMT 57.511826 -4.049921 20,825 190 403 -1792
2022-11-27 12:01:02 GMT 57.513474 -4.049437 20,850 190 403 -1792
2022-11-27 12:01:00 GMT 57.517685 -4.048119 20,925 190 403 -1920
2022-11-27 12:00:59 GMT 57.519711 -4.047487 21,000 190 404 -1984
2022-11-27 12:00:58 GMT 57.521526 -4.046956 21,025 190 404 -1984
2022-11-27 12:00:56 GMT 57.525421 -4.045801 21,050 190 404 -2048
2022-11-27 12:00:55 GMT 57.527252 -4.045200 21,100 190 405 -2048
2022-11-27 12:00:54 GMT 57.528931 -4.044741 21,175 190 405 -2048
2022-11-27 12:00:52 GMT 57.532425 -4.043655 21,200 190 405 -2112
2022-11-27 12:00:51 GMT 57.534256 -4.043055 21,275 190 405 -2048
2022-11-27 12:00:49 GMT 57.537598 -4.042110 21,300 190 406 -2112
2022-11-27 12:00:48 GMT 57.539429 -4.041510 21,350 190 406 -2112
2022-11-27 12:00:46 GMT 57.543137 -4.040394 21,425 190 406 -2112
2022-11-27 12:00:43 GMT 57.550186 -4.038248 21,550 190 407 -2112
2022-11-27 12:00:42 GMT 57.554626 -4.036875 21,650 190 407 -2048
2022-11-27 12:00:39 GMT 57.556675 -4.036235 21,675 190 407 -2112
2022-11-27 12:00:38 GMT 57.558334 -4.035759 21,725 190 408 -2112
2022-11-27 12:00:37 GMT 57.560211 -4.035158 21,750 190 408 -2112
2022-11-27 12:00:35 GMT 57.563751 -4.034109 21,825 190 408 -2112
2022-11-27 12:00:34 GMT 57.565796 -4.033442 21,875 190 408 -2048
2022-11-27 12:00:33 GMT 57.567474 -4.032957 21,925 190 408 -2048
2022-11-27 12:00:31 GMT 57.571198 -4.031805 22,000 190 408 -1984
2022-11-27 12:00:29 GMT 57.577160 -4.030033 22,075 190 409 -1920
2022-11-27 12:00:28 GMT 57.579021 -4.029413 22,100 190 409 -1856
2022-11-27 12:00:26 GMT 57.581039 -4.028807 22,125 190 409 -1856
2022-11-27 12:00:24 GMT 57.586468 -4.027198 22,225 190 410 -1792
2022-11-27 12:00:22 GMT 57.588501 -4.026489 22,250 190 410 -1792
2022-11-27 12:00:21 GMT 57.590378 -4.025974 22,275 190 410 -1728
2022-11-27 12:00:19 GMT 57.594131 -4.024773 22,350 190 411 -1728
2022-11-27 12:00:18 GMT 57.595825 -4.024274 22,375 190 411 -1728
2022-11-27 12:00:17 GMT 57.597687 -4.023654 22,400 190 411 -1728
2022-11-27 12:00:16 GMT 57.601460 -4.022502 22,425 190 411 -1792
2022-11-27 12:00:14 GMT 57.603516 -4.021854 22,500 190 411 -1792
2022-11-27 12:00:13 GMT 57.605183 -4.021350 22,525 190 412 -1792
2022-11-27 12:00:12 GMT 57.607044 -4.020730 22,550 190 412 -1856
2022-11-27 12:00:10 GMT 57.610611 -4.019623 22,650 190 412 -1856
2022-11-27 12:00:09 GMT 57.612534 -4.019022 22,675 190 413 -1856
2022-11-27 12:00:08 GMT 57.616821 -4.017718 22,750 190 413 -1856
2022-11-27 12:00:06 GMT 57.618729 -4.017098 22,775 190 413 -1856
2022-11-27 12:00:05 GMT 57.624363 -4.015326 22,800 190 413 -1856
2022-11-27 12:00:03 GMT 57.624363 -4.015326 22,900 190 414 -1856
2022-11-27 12:00:00 GMT 57.630787 -4.013288 22,975 190 416 -1856
2022-11-27 11:59:59 GMT 57.632858 -4.012585 23,000 190 416 -1856
2022-11-27 11:59:58 GMT 57.634556 -4.012048 23,025 190 416 -1856
2022-11-27 11:59:57 GMT 57.638535 -4.010782 23,100 190 416 -1984
2022-11-27 11:59:54 GMT 57.642143 -4.009567 23,150 190 417 -1984
2022-11-27 11:59:52 GMT 57.644989 -4.008636 23,250 190 417 -2048
2022-11-27 11:59:51 GMT 57.647079 -4.007972 23,275 190 417 -2048
2022-11-27 11:59:49 GMT 57.650894 -4.006732 23,350 190 418 -2112
2022-11-27 11:59:48 GMT 57.652386 -4.006289 23,425 190 418 -2176
2022-11-27 11:59:46 GMT 57.657368 -4.004605 23,450 190 419 -2240
2022-11-27 11:59:45 GMT 57.659229 -4.003985 23,500 190 419 -2304
2022-11-27 11:59:42 GMT 57.664398 -4.002371 23,600 190 419 -2368
2022-11-27 11:59:41 GMT 57.668400 -4.001061 23,675 190 419 -2368
2022-11-27 11:59:38 GMT 57.673336 -3.999378 23,800 191 419 -2368
2022-11-27 11:59:36 GMT 57.675243 -3.998758 23,850 191 419 -2432
2022-11-27 11:59:35 GMT 57.677719 -3.997993 23,875 191 419 -2432
2022-11-27 11:59:33 GMT 57.681343 -3.996720 24,000 191 419 -2368
2022-11-27 11:59:32 GMT 57.683250 -3.996100 24,025 191 419 -2304
2022-11-27 11:59:31 GMT 57.684998 -3.995504 24,025 191 419 -2304
2022-11-27 11:59:30 GMT 57.686695 -3.994948 24,100 191 419 -2240
2022-11-27 11:59:29 GMT 57.694107 -3.992500 24,175 191 419 -2176
2022-11-27 11:59:27 GMT 57.694107 -3.992500 24,225 191 419 -2176
2022-11-27 11:59:26 GMT 57.696030 -3.991814 24,250 191 419 -2112
2022-11-27 11:59:25 GMT 57.702118 -3.989754 24,350 191 419 -2112
2022-11-27 11:59:23 GMT 57.702118 -3.989754 24,375 191 419 -2112
2022-11-27 11:59:22 GMT 57.703629 -3.989239 24,400 191 419 -2048
2022-11-27 11:59:20 GMT 57.707474 -3.987951 24,500 191 420 -1984
2022-11-27 11:59:18 GMT 57.711273 -3.986750 24,550 191 420 -1984
2022-11-27 11:59:16 GMT 57.715279 -3.985379 24,625 191 421 -1920
2022-11-27 11:59:15 GMT 57.716812 -3.984848 24,675 190 421 -1856
2022-11-27 11:59:13 GMT 57.720474 -3.983660 24,725 190 422 -1728
2022-11-27 11:59:12 GMT 57.722397 -3.983059 24,750 190 422 -1728
2022-11-27 11:59:11 GMT 57.724319 -3.982372 24,775 190 423 -1728
2022-11-27 11:59:09 GMT 57.727753 -3.981304 24,850 190 423 -1728
2022-11-27 11:59:08 GMT 57.729675 -3.980683 24,875 190 423 -1728
2022-11-27 11:59:06 GMT 57.733341 -3.979431 24,925 190 424 -1792
2022-11-27 11:59:05 GMT 57.735489 -3.978823 24,950 190 425 -1792
2022-11-27 11:59:04 GMT 57.737411 -3.978203 24,975 190 425 -1856
2022-11-27 11:59:03 GMT 57.739334 -3.977582 25,025 190 425 -1856
2022-11-27 11:59:01 GMT 57.743023 -3.976410 25,075 190 425 -1920
2022-11-27 11:59:00 GMT 57.744930 -3.975769 25,100 190 425 -1984
2022-11-27 11:58:59 GMT 57.748627 -3.974570 25,175 190 426 -2048
2022-11-27 11:58:57 GMT 57.750549 -3.973950 25,200 190 426 -2112
2022-11-27 11:58:56 GMT 57.753296 -3.973064 25,250 190 426 -2048
2022-11-27 11:58:54 GMT 57.756569 -3.971924 25,325 190 426 -2048
2022-11-27 11:58:52 GMT 57.764717 -3.969269 25,475 190 426 -1984
2022-11-27 11:58:50 GMT 57.764717 -3.969269 25,475 190 426 -1984
2022-11-27 11:58:48 GMT 57.767990 -3.968191 25,525 191 426 -1920
2022-11-27 11:58:47 GMT 57.769958 -3.967571 25,550 191 426 -1856
2022-11-27 11:58:45 GMT 57.773655 -3.966339 25,600 191 426 -1792
2022-11-27 11:58:44 GMT 57.774773 -3.965973 25,625 191 426 -1728
2022-11-27 11:58:43 GMT 57.777695 -3.965001 25,675 191 426 -1728
2022-11-27 11:58:42 GMT 57.779846 -3.964233 25,700 191 426 -1664
2022-11-27 11:58:41 GMT 57.782547 -3.963318 25,725 191 426 -1600
2022-11-27 11:58:38 GMT 57.787575 -3.961670 25,800 191 426 -1472
2022-11-27 11:58:37 GMT 57.789528 -3.960938 25,825 191 426 -1344
2022-11-27 11:58:35 GMT 57.793579 -3.959597 25,875 191 426 -1152
2022-11-27 11:58:33 GMT 57.801315 -3.956939 25,925 191 426 -896
2022-11-27 11:58:31 GMT 57.801315 -3.956939 25,925 191 426 -832
2022-11-27 11:58:30 GMT 57.807686 -3.954712 25,950 191 425 -576
2022-11-27 11:58:28 GMT 57.807686 -3.954712 25,975 191 425 -512
2022-11-27 11:58:27 GMT 57.809639 -3.954071 25,975 191 425 -384
2022-11-27 11:58:25 GMT 57.813503 -3.952698 25,975 191 425 -192
2022-11-27 11:58:23 GMT 57.817322 -3.951324 25,975 191 425 -128
2022-11-27 11:58:22 GMT 57.819077 -3.950737 26,000 191 425 -128
2022-11-27 11:58:20 GMT 57.821186 -3.949951 26,000 191 425 -128
2022-11-27 11:58:19 GMT 57.826035 -3.948345 26,000 191 426 -192
2022-11-27 11:58:17 GMT 57.828167 -3.947571 26,000 191 426 -192
2022-11-27 11:58:16 GMT 57.831848 -3.946307 26,000 191 426 -128
2022-11-27 11:58:14 GMT 57.833771 -3.945598 26,000 191 426 -128
2022-11-27 11:58:12 GMT 57.838028 -3.944092 26,000 191 427 -64
2022-11-27 11:58:10 GMT 57.841713 -3.942810 26,000 191 427 -64
2022-11-27 11:58:08 GMT 57.845764 -3.941434 26,000 191 427 0
2022-11-27 11:58:07 GMT 57.847321 -3.940902 26,000 191 427 0
2022-11-27 11:58:06 GMT 57.849442 -3.940155 26,000 191 427 64
2022-11-27 11:58:05 GMT 57.854095 -3.938507 26,000 191 427 128
2022-11-27 11:58:03 GMT 57.856052 -3.937866 26,000 191 427 128
2022-11-27 11:58:00 GMT 57.861824 -3.935852 25,975 191 427 128
2022-11-27 11:57:59 GMT 57.862988 -3.935394 25,975 191 427 128
2022-11-27 11:57:57 GMT 57.867096 -3.933991 25,975 191 426 128
2022-11-27 11:57:56 GMT 57.869179 -3.933289 25,975 191 426 64
2022-11-27 11:57:53 GMT 57.874626 -3.931366 25,975 191 426 64
2022-11-27 11:57:52 GMT 57.876534 -3.930725 25,975 191 425 64
2022-11-27 11:57:51 GMT 57.880600 -3.929384 25,975 191 425 0
2022-11-27 11:57:49 GMT 57.882156 -3.928853 25,975 191 426 -64
2022-11-27 11:57:48 GMT 57.885056 -3.927795 26,000 191 426 -128
2022-11-27 11:57:46 GMT 57.888748 -3.926638 26,000 191 426 -64
2022-11-27 11:57:45 GMT 57.890873 -3.925873 26,000 191 426 -128
2022-11-27 11:57:44 GMT 57.895947 -3.924225 26,000 190 427 -128
2022-11-27 11:57:42 GMT 57.895947 -3.924225 26,000 190 427 -128
2022-11-27 11:57:41 GMT 57.898647 -3.923309 26,000 190 427 -64
2022-11-27 11:57:39 GMT 57.902710 -3.921942 26,000 190 427 -128
2022-11-27 11:57:38 GMT 57.904469 -3.921387 26,000 190 427 -128
2022-11-27 11:57:37 GMT 57.906422 -3.920746 26,000 190 427 -128
2022-11-27 11:57:36 GMT 57.910492 -3.919373 26,000 190 428 -128
2022-11-27 11:57:34 GMT 57.912243 -3.918823 26,000 190 428 -128
2022-11-27 11:57:33 GMT 57.915359 -3.917816 26,000 190 428 -128
2022-11-27 11:57:31 GMT 57.918274 -3.916803 26,000 190 428 -128
2022-11-27 11:57:30 GMT 57.919270 -3.916534 26,000 190 428 -128
2022-11-27 11:57:28 GMT 57.923355 -3.915208 26,000 190 428 -128
2022-11-27 11:57:27 GMT 57.925091 -3.914612 26,000 190 428 -128
2022-11-27 11:57:26 GMT 57.927044 -3.913971 26,000 190 428 -128
2022-11-27 11:57:24 GMT 57.931915 -3.912373 26,000 190 428 -64
2022-11-27 11:57:23 GMT 57.933472 -3.911842 26,000 191 427 64
2022-11-27 11:57:21 GMT 57.938507 -3.910158 26,000 191 427 64
2022-11-27 11:57:19 GMT 57.941055 -3.909302 26,000 191 427 64
2022-11-27 11:57:17 GMT 57.944920 -3.908020 26,000 191 427 64
2022-11-27 11:57:16 GMT 57.947067 -3.907234 26,000 191 426 128
2022-11-27 11:57:14 GMT 57.951157 -3.905823 26,000 191 426 128
2022-11-27 11:57:13 GMT 57.953438 -3.905090 25,975 191 427 128
2022-11-27 11:57:12 GMT 57.955395 -3.904449 25,975 191 426 128
2022-11-27 11:57:11 GMT 57.957352 -3.903717 25,975 191 426 128
2022-11-27 11:57:10 GMT 57.960983 -3.902450 25,975 191 426 192
2022-11-27 11:57:08 GMT 57.962952 -3.901741 25,975 191 425 128
2022-11-27 11:57:06 GMT 57.966614 -3.900513 25,975 191 425 128
2022-11-27 11:57:05 GMT 57.968521 -3.899780 25,975 191 425 64
2022-11-27 11:57:03 GMT 57.973343 -3.898109 25,975 191 424 64
2022-11-27 11:57:02 GMT 57.974297 -3.897675 25,975 192 424 0
2022-11-27 11:57:01 GMT 57.976250 -3.897034 25,975 192 425 0
2022-11-27 11:57:00 GMT 57.980301 -3.895539 25,975 192 425 -64
2022-11-27 11:56:58 GMT 57.982021 -3.894836 25,975 192 425 -64
2022-11-27 11:56:57 GMT 57.984146 -3.894033 25,975 192 425 -64
2022-11-27 11:56:56 GMT 57.988541 -3.892273 26,000 193 425 -64
2022-11-27 11:56:54 GMT 57.989502 -3.891907 25,975 193 425 -64
2022-11-27 11:56:53 GMT 57.991611 -3.891083 26,000 193 426 -64
2022-11-27 11:56:52 GMT 57.995636 -3.889337 26,000 193 426 -64
2022-11-27 11:56:50 GMT 57.997757 -3.888428 26,000 194 426 -64
2022-11-27 11:56:49 GMT 58.000259 -3.887388 26,000 194 426 -64
2022-11-27 11:56:48 GMT 58.003113 -3.886047 26,000 194 426 -64
2022-11-27 11:56:46 GMT 58.005020 -3.885223 26,000 195 427 0
2022-11-27 11:56:45 GMT 58.007904 -3.883844 26,000 195 426 0
2022-11-27 11:56:43 GMT 58.010971 -3.882338 25,975 195 427 64
2022-11-27 11:56:42 GMT 58.012848 -3.881363 25,975 196 426 128
2022-11-27 11:56:41 GMT 58.014771 -3.880389 25,975 196 426 64
2022-11-27 11:56:38 GMT 58.019497 -3.877991 25,975 196 427 64
2022-11-27 11:56:37 GMT 58.021034 -3.877167 25,975 196 428 64
2022-11-27 11:56:36 GMT 58.023880 -3.875693 25,975 196 428 64
2022-11-27 11:56:35 GMT 58.025597 -3.874878 25,975 196 428 0
2022-11-27 11:56:34 GMT 58.028294 -3.873505 25,975 196 428 0
2022-11-27 11:56:32 GMT 58.031158 -3.871972 25,975 196 427 -64
2022-11-27 11:56:31 GMT 58.033035 -3.870997 25,975 196 427 -64
2022-11-27 11:56:30 GMT 58.035137 -3.869934 25,975 196 428 -64
2022-11-27 11:56:28 GMT 58.039330 -3.867828 25,975 196 428 -64
2022-11-27 11:56:27 GMT 58.041458 -3.866745 25,975 196 428 -64
2022-11-27 11:56:25 GMT 58.044682 -3.865082 25,975 196 428 -128
2022-11-27 11:56:24 GMT 58.046402 -3.864175 25,975 196 428 -128
2022-11-27 11:56:23 GMT 58.048325 -3.863201 26,000 195 429 -128
2022-11-27 11:56:22 GMT 58.053314 -3.860720 26,000 195 429 -128
2022-11-27 11:56:20 GMT 58.053314 -3.860720 26,000 195 429 -128
2022-11-27 11:56:18 GMT 58.057114 -3.858771 26,000 195 429 -128
2022-11-27 11:56:17 GMT 58.058834 -3.857941 26,000 195 429 -128
2022-11-27 11:56:16 GMT 58.062881 -3.855847 26,000 195 429 -128
2022-11-27 11:56:15 GMT 58.064980 -3.854828 26,000 195 429 -128
2022-11-27 11:56:13 GMT 58.066887 -3.853821 26,000 195 429 -128
2022-11-27 11:56:12 GMT 58.068604 -3.853012 26,000 195 429 -128
2022-11-27 11:56:09 GMT 58.073959 -3.850265 26,000 195 429 -128
2022-11-27 11:56:08 GMT 58.078583 -3.847961 26,000 196 428 -128
2022-11-27 11:56:06 GMT 58.080296 -3.847137 26,000 196 428 -128
2022-11-27 11:56:05 GMT 58.082203 -3.846130 26,000 196 428 -128
2022-11-27 11:56:04 GMT 58.085815 -3.844329 26,000 196 428 -128
2022-11-27 11:56:02 GMT 58.087929 -3.843201 26,000 196 427 -128
2022-11-27 11:56:00 GMT 58.090805 -3.841759 26,000 196 427 -128
2022-11-27 11:55:59 GMT 58.093826 -3.840253 26,000 196 427 -64
2022-11-27 11:55:57 GMT 58.097626 -3.838304 26,000 196 426 -64
2022-11-27 11:55:56 GMT 58.099548 -3.837329 26,000 196 426 -64
2022-11-27 11:55:55 GMT 58.101425 -3.836355 26,000 196 426 -64
2022-11-27 11:55:54 GMT 58.105225 -3.834406 26,000 196 425 -64
2022-11-27 11:55:52 GMT 58.107342 -3.833313 26,000 196 425 0
2022-11-27 11:55:51 GMT 58.109249 -3.832397 26,000 196 425 0
2022-11-27 11:55:50 GMT 58.114140 -3.829834 26,000 196 424 64
2022-11-27 11:55:47 GMT 58.116989 -3.828381 26,000 196 424 64
2022-11-27 11:55:44 GMT 58.121887 -3.825900 26,000 196 424 64
2022-11-27 11:55:42 GMT 58.125687 -3.823951 26,000 196 424 64
2022-11-27 11:55:41 GMT 58.127357 -3.823059 25,975 196 423 128
2022-11-27 11:55:40 GMT 58.131729 -3.820850 25,975 196 423 128
2022-11-27 11:55:38 GMT 58.133606 -3.819787 25,975 196 422 192
2022-11-27 11:55:37 GMT 58.137360 -3.817838 25,975 196 422 192
2022-11-27 11:55:36 GMT 58.137360 -3.817838 25,975 196 422 192
2022-11-27 11:55:35 GMT 58.143356 -3.814737 25,975 196 422 192
2022-11-27 11:55:33 GMT 58.143356 -3.814737 25,975 196 422 192
2022-11-27 11:55:31 GMT 58.147282 -3.812714 25,975 196 422 192
2022-11-27 11:55:30 GMT 58.148987 -3.811813 25,975 196 422 128
2022-11-27 11:55:28 GMT 58.152916 -3.809784 25,975 196 421 128
2022-11-27 11:55:27 GMT 58.154617 -3.808889 25,975 196 421 128
2022-11-27 11:55:26 GMT 58.156315 -3.808044 25,975 196 421 128
2022-11-27 11:55:24 GMT 58.160458 -3.805847 25,975 196 421 64
2022-11-27 11:55:23 GMT 58.162319 -3.804932 25,975 196 422 64
2022-11-27 11:55:22 GMT 58.165718 -3.803192 25,975 196 422 64
2022-11-27 11:55:20 GMT 58.167389 -3.802333 25,975 196 422 64
2022-11-27 11:55:19 GMT 58.169266 -3.801358 25,975 196 423 0
2022-11-27 11:55:17 GMT 58.173260 -3.799347 25,975 196 423 0
2022-11-27 11:55:16 GMT 58.174942 -3.798434 25,975 196 423 64
2022-11-27 11:55:15 GMT 58.176819 -3.797460 25,975 196 423 64
2022-11-27 11:55:13 GMT 58.180618 -3.795511 25,975 196 424 0
2022-11-27 11:55:12 GMT 58.182289 -3.794678 25,975 196 424 0
2022-11-27 11:55:11 GMT 58.184372 -3.793650 25,975 196 424 -64
2022-11-27 11:55:09 GMT 58.188950 -3.791346 25,975 195 425 -64
2022-11-27 11:55:08 GMT 58.190826 -3.790372 25,975 195 425 -64
2022-11-27 11:55:06 GMT 58.194069 -3.788727 25,975 195 426 -128
2022-11-27 11:55:05 GMT 58.196136 -3.787625 25,975 195 426 -128
2022-11-27 11:55:04 GMT 58.198059 -3.786739 25,975 195 426 -128
2022-11-27 11:55:02 GMT 58.201656 -3.784882 26,000 195 427 -128
2022-11-27 11:55:01 GMT 58.203564 -3.783875 26,000 195 427 -192
2022-11-27 11:54:59 GMT 58.208920 -3.781219 26,000 195 428 -192
2022-11-27 11:54:57 GMT 58.211571 -3.779846 26,000 195 428 -128
2022-11-27 11:54:56 GMT 58.213669 -3.778854 26,000 195 428 -128
2022-11-27 11:54:55 GMT 58.217514 -3.776905 26,000 195 428 -192
2022-11-27 11:54:53 GMT 58.219254 -3.776001 26,000 195 428 -192
2022-11-27 11:54:51 GMT 58.223068 -3.774078 26,000 195 429 -128
2022-11-27 11:54:50 GMT 58.226669 -3.772209 26,000 195 429 -64
2022-11-27 11:54:48 GMT 58.230148 -3.770526 26,000 195 429 0
2022-11-27 11:54:45 GMT 58.233582 -3.768754 26,000 195 429 -64
2022-11-27 11:54:43 GMT 58.237427 -3.766804 26,000 195 429 -64
2022-11-27 11:54:41 GMT 58.242004 -3.764412 25,975 196 428 -64
2022-11-27 11:54:40 GMT 58.243927 -3.763438 25,975 196 428 -64
2022-11-27 11:54:37 GMT 58.249283 -3.760691 25,975 196 429 64
2022-11-27 11:54:35 GMT 58.252491 -3.759064 25,975 196 429 64
2022-11-27 11:54:34 GMT 58.255192 -3.757599 25,975 196 429 64
2022-11-27 11:54:32 GMT 58.258636 -3.755859 25,975 196 429 0
2022-11-27 11:54:31 GMT 58.260918 -3.754669 26,000 196 429 -64
2022-11-27 11:54:30 GMT 58.262650 -3.753780 26,000 196 429 -64
2022-11-27 11:54:28 GMT 58.266644 -3.751648 26,000 196 429 -64
2022-11-27 11:54:27 GMT 58.268551 -3.750732 26,000 196 429 -64
2022-11-27 11:54:26 GMT 58.275021 -3.747345 26,000 196 429 -64
2022-11-27 11:54:24 GMT 58.275021 -3.747345 25,975 196 429 0
2022-11-27 11:54:22 GMT 58.279633 -3.744873 25,975 196 428 64
2022-11-27 11:54:19 GMT 58.284760 -3.742262 25,975 196 428 -64
2022-11-27 11:54:17 GMT 58.288559 -3.740225 25,975 196 428 -64
2022-11-27 11:54:15 GMT 58.291260 -3.738807 25,975 196 427 -64
2022-11-27 11:54:14 GMT 58.292946 -3.737915 25,975 196 427 -64
2022-11-27 11:54:13 GMT 58.295059 -3.736858 26,000 196 427 -128
2022-11-27 11:54:12 GMT 58.298859 -3.734820 26,000 196 427 -128
2022-11-27 11:54:10 GMT 58.300369 -3.734111 26,000 196 426 -192
2022-11-27 11:54:09 GMT 58.302486 -3.732971 26,000 196 426 -192
2022-11-27 11:54:08 GMT 58.304169 -3.732073 26,000 196 426 -192
2022-11-27 11:54:07 GMT 58.308167 -3.730042 26,000 196 426 -192
2022-11-27 11:54:05 GMT 58.309891 -3.729150 26,025 196 426 -192
2022-11-27 11:54:04 GMT 58.312546 -3.727821 26,025 196 426 -192
2022-11-27 11:54:02 GMT 58.316174 -3.725922 26,025 196 426 -192
2022-11-27 11:54:01 GMT 58.318035 -3.724915 26,025 196 426 -128
2022-11-27 11:54:00 GMT 58.319778 -3.724099 26,025 196 425 -128
2022-11-27 11:53:58 GMT 58.323765 -3.722076 26,025 195 425 -64
2022-11-27 11:53:57 GMT 58.325821 -3.720998 26,025 195 425 -64
2022-11-27 11:53:56 GMT 58.327534 -3.720062 26,025 195 425 0
2022-11-27 11:53:54 GMT 58.331497 -3.718075 26,025 196 424 0
2022-11-27 11:53:53 GMT 58.333420 -3.717100 26,025 196 423 64
2022-11-27 11:53:52 GMT 58.336983 -3.715302 26,025 195 422 128
2022-11-27 11:53:50 GMT 58.338684 -3.714442 26,025 195 422 128
2022-11-27 11:53:48 GMT 58.342991 -3.712189 26,000 195 421 128
2022-11-27 11:53:47 GMT 58.344681 -3.711341 26,000 195 420 128
2022-11-27 11:53:46 GMT 58.346191 -3.710632 26,000 195 419 128
2022-11-27 11:53:44 GMT 58.349739 -3.708801 26,000 195 417 128
2022-11-27 11:53:43 GMT 58.351822 -3.707797 26,025 195 417 64
2022-11-27 11:53:42 GMT 58.353836 -3.706696 26,000 195 416 64
2022-11-27 11:53:40 GMT 58.357727 -3.704785 26,000 195 415 -64
2022-11-27 11:53:39 GMT 58.359421 -3.703949 26,000 195 415 -128
2022-11-27 11:53:38 GMT 58.361069 -3.703101 26,000 195 414 -128
2022-11-27 11:53:36 GMT 58.364590 -3.701294 26,025 195 412 -320
2022-11-27 11:53:35 GMT 58.366608 -3.700266 26,025 195 411 -384
2022-11-27 11:53:34 GMT 58.368439 -3.699292 26,050 195 410 -512
2022-11-27 11:53:32 GMT 58.372269 -3.697357 26,050 195 410 -640
2022-11-27 11:53:31 GMT 58.373932 -3.696545 26,075 195 408 -832
2022-11-27 11:53:30 GMT 58.376129 -3.695482 26,125 195 408 -960
2022-11-27 11:53:28 GMT 58.380112 -3.693444 26,150 195 406 -1216
2022-11-27 11:53:27 GMT 58.381767 -3.692596 26,175 195 406 -1216
2022-11-27 11:53:26 GMT 58.383583 -3.691681 26,200 195 406 -1280
2022-11-27 11:53:24 GMT 58.387215 -3.689850 26,250 195 405 -1280
2022-11-27 11:53:23 GMT 58.389175 -3.688837 26,300 196 404 -1344
2022-11-27 11:53:22 GMT 58.392242 -3.687195 26,325 196 404 -1344
2022-11-27 11:53:20 GMT 58.394211 -3.686179 26,350 196 404 -1408
2022-11-27 11:53:19 GMT 58.396198 -3.685181 26,375 196 403 -1408
2022-11-27 11:53:17 GMT 58.399830 -3.683350 26,425 196 403 -1472
2022-11-27 11:53:16 GMT 58.401272 -3.682617 26,450 196 403 -1536
2022-11-27 11:53:15 GMT 58.403229 -3.681572 26,475 196 402 -1600
2022-11-27 11:53:14 GMT 58.406628 -3.679871 26,525 196 401 -1728
2022-11-27 11:53:12 GMT 58.408440 -3.678864 26,550 196 401 -1792
2022-11-27 11:53:09 GMT 58.413795 -3.676117 26,650 196 400 -1984
2022-11-27 11:53:08 GMT 58.415565 -3.675201 26,675 196 400 -1984
2022-11-27 11:53:07 GMT 58.417877 -3.674041 26,725 196 398 -2048
2022-11-27 11:53:04 GMT 58.426224 -3.669708 26,900 196 397 -2112
2022-11-27 11:53:02 GMT 58.426224 -3.669708 26,900 196 397 -2112
2022-11-27 11:53:01 GMT 58.427994 -3.668793 26,950 196 396 -2176
2022-11-27 11:52:59 GMT 58.432388 -3.666510 27,050 196 396 -2304
2022-11-27 11:52:58 GMT 58.433952 -3.665680 27,075 196 395 -2368
2022-11-27 11:52:57 GMT 58.435722 -3.664673 27,125 196 395 -2432
2022-11-27 11:52:55 GMT 58.439259 -3.662842 27,225 196 393 -2624
2022-11-27 11:52:53 GMT 58.442051 -3.661377 27,275 196 393 -2688
2022-11-27 11:52:52 GMT 58.444843 -3.659912 27,350 196 393 -2560
2022-11-27 11:52:51 GMT 58.445709 -3.659510 27,375 196 393 -2496
2022-11-27 11:52:50 GMT 58.449234 -3.657650 27,475 196 393 -2496
2022-11-27 11:52:48 GMT 58.451176 -3.656616 27,525 196 393 -2432
2022-11-27 11:52:46 GMT 58.455364 -3.654419 27,600 196 393 -2432
2022-11-27 11:52:44 GMT 58.458858 -3.652588 27,700 196 392 -2368
2022-11-27 11:52:42 GMT 58.462025 -3.650940 27,775 196 392 -2304
2022-11-27 11:52:41 GMT 58.463745 -3.650116 27,825 196 392 -2240
2022-11-27 11:52:40 GMT 58.467087 -3.648347 27,900 196 392 -2176
2022-11-27 11:52:38 GMT 58.469006 -3.647369 27,950 196 392 -2176
2022-11-27 11:52:36 GMT 58.472496 -3.645538 28,025 195 393 -2112
2022-11-27 11:52:34 GMT 58.477570 -3.643031 28,125 195 393 -2048
2022-11-27 11:52:33 GMT 58.481949 -3.640778 28,175 195 393 -2048
2022-11-27 11:52:31 GMT 58.481949 -3.640778 28,225 195 393 -1984
2022-11-27 11:52:29 GMT 58.484787 -3.639313 28,300 195 393 -1984
2022-11-27 11:52:28 GMT 58.486507 -3.638489 28,300 195 393 -1920
2022-11-27 11:52:27 GMT 58.488098 -3.637715 28,325 195 393 -1920
2022-11-27 11:52:25 GMT 58.492355 -3.635589 28,400 195 394 -1792
2022-11-27 11:52:24 GMT 58.493912 -3.634735 28,450 195 394 -1792
2022-11-27 11:52:22 GMT 58.496933 -3.633285 28,475 195 394 -1728
2022-11-27 11:52:21 GMT 58.500614 -3.631439 28,550 195 395 -1600
2022-11-27 11:52:19 GMT 58.502197 -3.630627 28,575 195 395 -1600
2022-11-27 11:52:18 GMT 58.504150 -3.629700 28,600 195 396 -1536
2022-11-27 11:52:17 GMT 58.507317 -3.628143 28,650 195 396 -1536
2022-11-27 11:52:15 GMT 58.509979 -3.626817 28,700 195 396 -1472
2022-11-27 11:52:14 GMT 58.513371 -3.625122 28,725 195 397 -1472
2022-11-27 11:52:12 GMT 58.515335 -3.624159 28,775 195 397 -1408
2022-11-27 11:52:11 GMT 58.517075 -3.623273 28,775 195 398 -1408
2022-11-27 11:52:10 GMT 58.518860 -3.622476 28,800 195 398 -1344
2022-11-27 11:52:09 GMT 58.522430 -3.620704 28,850 195 398 -1280
2022-11-27 11:52:07 GMT 58.524216 -3.619818 28,875 195 399 -1280
2022-11-27 11:52:05 GMT 58.529205 -3.617337 28,950 195 400 -1280
2022-11-27 11:52:03 GMT 58.531525 -3.616150 28,975 195 400 -1280
2022-11-27 11:52:02 GMT 58.535110 -3.614410 29,025 195 401 -1344
2022-11-27 11:52:00 GMT 58.536926 -3.613495 29,050 195 401 -1408
2022-11-27 11:51:59 GMT 58.541580 -3.611206 29,100 195 402 -1472
2022-11-27 11:51:57 GMT 58.541580 -3.611206 29,100 195 402 -1536
2022-11-27 11:51:56 GMT 58.543213 -3.610426 29,125 195 402 -1600
2022-11-27 11:51:54 GMT 58.547516 -3.608300 29,200 195 404 -1728
2022-11-27 11:51:53 GMT 58.550938 -3.606537 29,250 195 404 -1856
2022-11-27 11:51:51 GMT 58.552917 -3.605553 29,300 195 404 -1984
2022-11-27 11:51:48 GMT 58.558319 -3.602807 29,400 195 404 -2176
2022-11-27 11:51:45 GMT 58.565186 -3.599263 29,575 196 404 -2304
2022-11-27 11:51:43 GMT 58.567139 -3.598297 29,600 196 404 -2368
2022-11-27 11:51:42 GMT 58.568069 -3.597757 29,650 196 404 -2368
2022-11-27 11:51:40 GMT 58.572536 -3.595459 29,725 196 404 -2496
2022-11-27 11:51:38 GMT 58.577938 -3.592621 29,825 196 403 -2624
2022-11-27 11:51:35 GMT 58.582966 -3.589966 29,950 196 403 -2816
2022-11-27 11:51:33 GMT 58.584595 -3.589074 30,000 196 402 -2816
2022-11-27 11:51:31 GMT 58.587994 -3.587219 30,050 196 402 -2880
2022-11-27 11:51:29 GMT 58.591736 -3.585264 30,200 196 401 -3008
2022-11-27 11:51:28 GMT 58.596233 -3.582916 30,300 196 401 -3072
2022-11-27 11:51:26 GMT 58.596233 -3.582916 30,350 196 400 -3072
2022-11-27 11:51:23 GMT 58.601540 -3.580078 30,525 196 399 -3264
2022-11-27 11:51:22 GMT 58.605286 -3.578176 30,600 196 398 -3264
2022-11-27 11:51:20 GMT 58.607391 -3.577024 30,675 196 397 -3264
2022-11-27 11:51:18 GMT 58.610962 -3.575252 30,750 196 397 -3200
2022-11-27 11:51:17 GMT 58.612526 -3.574402 30,875 196 396 -2944
2022-11-27 11:51:16 GMT 58.614296 -3.573486 30,875 196 396 -2944
2022-11-27 11:51:13 GMT 58.622768 -3.569092 31,100 196 395 -2496
2022-11-27 11:51:11 GMT 58.622768 -3.569092 31,100 195 395 -2368
2022-11-27 11:51:08 GMT 58.627899 -3.566481 31,200 195 395 -2176
2022-11-27 11:51:07 GMT 58.629684 -3.565595 31,250 195 395 -1984
2022-11-27 11:51:06 GMT 58.634262 -3.563203 31,325 196 395 -1920
2022-11-27 11:51:03 GMT 58.637054 -3.561785 31,375 196 395 -1856
2022-11-27 11:51:02 GMT 58.639713 -3.560394 31,425 196 396 -1792
2022-11-27 11:51:01 GMT 58.643250 -3.558563 31,500 196 396 -1792
2022-11-27 11:51:00 GMT 58.646790 -3.556732 31,550 196 396 -1792
2022-11-27 11:50:58 GMT 58.646790 -3.556732 31,575 196 397 -1792
2022-11-27 11:50:57 GMT 58.651199 -3.554520 31,650 196 397 -1792
2022-11-27 11:50:55 GMT 58.653671 -3.553191 31,675 196 397 -1664
2022-11-27 11:50:53 GMT 58.655262 -3.552338 31,725 196 397 -1664
2022-11-27 11:50:51 GMT 58.658661 -3.550622 31,725 196 398 -1600
2022-11-27 11:50:50 GMT 58.660240 -3.549774 31,800 196 398 -1600
2022-11-27 11:50:48 GMT 58.663605 -3.548052 31,850 196 400 -1536
2022-11-27 11:50:47 GMT 58.667175 -3.546192 31,875 196 400 -1472
2022-11-27 11:50:45 GMT 58.668961 -3.545217 31,925 196 400 -1472
2022-11-27 11:50:44 GMT 58.670746 -3.544331 31,950 196 400 -1472
2022-11-27 11:50:43 GMT 58.673218 -3.543002 31,975 196 401 -1536
2022-11-27 11:50:41 GMT 58.676628 -3.541168 32,025 196 401 -1536
2022-11-27 11:50:40 GMT 58.681656 -3.538605 32,100 196 402 -1600
2022-11-27 11:50:38 GMT 58.681656 -3.538605 32,100 196 402 -1600
2022-11-27 11:50:36 GMT 58.687012 -3.535767 32,150 196 403 -1536
2022-11-27 11:50:35 GMT 58.687012 -3.535767 32,150 196 403 -1536
2022-11-27 11:50:34 GMT 58.690594 -3.533844 32,200 196 404 -1472
2022-11-27 11:50:31 GMT 58.693851 -3.532196 32,250 196 403 -1472
2022-11-27 11:50:30 GMT 58.695465 -3.531307 32,275 196 403 -1472
2022-11-27 11:50:28 GMT 58.699253 -3.529358 32,350 195 404 -1472
2022-11-27 11:50:27 GMT 58.702839 -3.527527 32,350 195 405 -1472
2022-11-27 11:50:25 GMT 58.704281 -3.526794 32,425 195 405 -1472
2022-11-27 11:50:24 GMT 58.706097 -3.525879 32,450 195 406 -1536
2022-11-27 11:50:21 GMT 58.713181 -3.522359 32,525 194 406 -1664
2022-11-27 11:50:19 GMT 58.715546 -3.521301 32,550 194 406 -1728
2022-11-27 11:50:18 GMT 58.719551 -3.519379 32,650 194 406 -1728
2022-11-27 11:50:16 GMT 58.720459 -3.518992 32,650 193 407 -1728
2022-11-27 11:50:15 GMT 58.722290 -3.518194 32,675 193 407 -1728
2022-11-27 11:50:14 GMT 58.724121 -3.517397 32,700 193 408 -1664
2022-11-27 11:50:12 GMT 58.727829 -3.515802 32,750 192 408 -1536
2022-11-27 11:50:11 GMT 58.734100 -3.513499 32,825 191 408 -1408
2022-11-27 11:50:09 GMT 58.734100 -3.513499 32,850 190 410 -1280
2022-11-27 11:50:08 GMT 58.738403 -3.512054 32,900 189 411 -1152
2022-11-27 11:50:05 GMT 58.740639 -3.511322 32,925 189 412 -1024
2022-11-27 11:50:03 GMT 58.744629 -3.510309 32,950 188 414 -960
2022-11-27 11:50:02 GMT 58.748016 -3.509423 32,975 187 415 -896
2022-11-27 11:50:00 GMT 58.753006 -3.508448 33,025 185 418 -960
2022-11-27 11:49:58 GMT 58.754696 -3.508209 33,050 185 418 -960
2022-11-27 11:49:57 GMT 58.756805 -3.507828 33,050 185 420 -1088
2022-11-27 11:49:55 GMT 58.760696 -3.507297 33,100 184 420 -1216
2022-11-27 11:49:53 GMT 58.764542 -3.506765 33,125 184 421 -1600
2022-11-27 11:49:52 GMT 58.766510 -3.506588 33,150 184 421 -1600
2022-11-27 11:49:51 GMT 58.770573 -3.506104 33,225 184 422 -1792
2022-11-27 11:49:49 GMT 58.772526 -3.505829 33,250 184 422 -1856
2022-11-27 11:49:47 GMT 58.776627 -3.505347 33,275 184 423 -1920
2022-11-27 11:49:45 GMT 58.781296 -3.504816 33,375 184 423 -1984
2022-11-27 11:49:42 GMT 58.786377 -3.504284 33,450 184 423 -2048
2022-11-27 11:49:41 GMT 58.789856 -3.503841 33,500 184 423 -2112
2022-11-27 11:49:39 GMT 58.795715 -3.503221 33,575 184 423 -2112
2022-11-27 11:49:35 GMT 58.799652 -3.502867 33,675 184 423 -2176
2022-11-27 11:49:34 GMT 58.803543 -3.502424 33,750 184 423 -2176
2022-11-27 11:49:32 GMT 58.805511 -3.502246 33,775 184 423 -2176
2022-11-27 11:49:31 GMT 58.809769 -3.501803 33,850 183 423 -2240
2022-11-27 11:49:28 GMT 58.813705 -3.501360 33,925 183 423 -2304
2022-11-27 11:49:26 GMT 58.817184 -3.501006 34,000 183 423 -2368
2022-11-27 11:49:25 GMT 58.820892 -3.500610 34,075 183 422 -2432
2022-11-27 11:49:23 GMT 58.822849 -3.500427 34,125 183 422 -2496
2022-11-27 11:49:22 GMT 58.824802 -3.500244 34,150 183 422 -2496
2022-11-27 11:49:20 GMT 58.828903 -3.499854 34,250 183 422 -2560
2022-11-27 11:49:19 GMT 58.831043 -3.499695 34,300 183 422 -2560
2022-11-27 11:49:17 GMT 58.834351 -3.499323 34,350 183 421 -2624
2022-11-27 11:49:14 GMT 58.841888 -3.498596 34,525 183 421 -2624
2022-11-27 11:49:12 GMT 58.844055 -3.498437 34,600 183 420 -2432
2022-11-27 11:49:11 GMT 58.848125 -3.498009 34,675 183 420 -2304
2022-11-27 11:49:09 GMT 58.849293 -3.497914 34,700 183 420 -2240
2022-11-27 11:49:05 GMT 58.857811 -3.497062 34,850 183 421 -1792
2022-11-27 11:49:02 GMT 58.864609 -3.496307 34,950 184 422 -1344
2022-11-27 11:48:58 GMT 58.872391 -3.495483 35,025 184 425 -960
2022-11-27 11:48:55 GMT 58.878105 -3.494884 35,050 184 426 -640
2022-11-27 11:48:52 GMT 58.883789 -3.494293 35,075 184 428 -512
2022-11-27 11:48:48 GMT 58.890518 -3.493561 35,075 184 431 -256
2022-11-27 11:48:45 GMT 58.897472 -3.492800 35,075 184 432 -192
2022-11-27 11:48:42 GMT 58.903057 -3.492232 35,075 184 434 -192
2022-11-27 11:48:38 GMT 58.912903 -3.491180 35,075 184 437 -64
2022-11-27 11:48:34 GMT 58.919167 -3.490527 35,025 184 438 64
2022-11-27 11:48:31 GMT 58.924210 -3.489899 35,025 184 438 64
2022-11-27 11:48:28 GMT 58.930851 -3.489201 35,000 184 438 128
2022-11-27 11:48:25 GMT 58.938354 -3.488434 34,975 184 437 192
2022-11-27 11:48:21 GMT 58.944763 -3.487793 34,975 184 436 192
2022-11-27 11:48:17 GMT 58.954010 -3.486786 34,975 184 435 128
2022-11-27 11:48:13 GMT 58.964813 -3.485504 34,975 184 434 128
2022-11-27 11:48:11 GMT 58.964813 -3.485504 34,975 184 433 64
2022-11-27 11:48:07 GMT 58.973820 -3.484371 34,975 184 434 0
2022-11-27 11:48:03 GMT 58.980789 -3.483307 35,000 185 432 -64
2022-11-27 11:48:01 GMT 58.985363 -3.482571 35,000 186 431 -64
2022-11-27 11:47:57 GMT 58.993881 -3.480927 35,000 187 431 -64
2022-11-27 11:47:53 GMT 59.000771 -3.479162 35,000 189 430 -64
2022-11-27 11:47:51 GMT 59.004311 -3.478120 35,000 190 430 -64
2022-11-27 11:47:47 GMT 59.013885 -3.474701 35,000 193 428 64
2022-11-27 11:47:43 GMT 59.020432 -3.471680 35,000 195 428 128
2022-11-27 11:47:41 GMT 59.023628 -3.469975 35,000 196 427 128
2022-11-27 11:47:37 GMT 59.033451 -3.464103 34,975 200 426 192
2022-11-27 11:47:33 GMT 59.042995 -3.457189 34,950 204 425 128
2022-11-27 11:47:31 GMT 59.042995 -3.457189 34,950 203 425 128
2022-11-27 11:47:28 GMT 59.048767 -3.452359 34,975 206 424 0
2022-11-27 11:47:26 GMT 59.052155 -3.449341 34,975 206 424 0
2022-11-27 11:47:23 GMT 59.057240 -3.444403 34,975 209 425 -64
2022-11-27 11:47:21 GMT 59.060486 -3.440918 34,975 210 425 -64
2022-11-27 11:47:18 GMT 59.065613 -3.435242 34,975 212 426 -128
2022-11-27 11:47:16 GMT 59.069763 -3.430197 35,000 214 426 -192
2022-11-27 11:47:13 GMT 59.074371 -3.424230 35,000 215 427 -192
2022-11-27 11:47:11 GMT 59.077423 -3.420044 35,000 217 428 -192
2022-11-27 11:47:06 GMT 59.085892 -3.407410 35,000 221 429 -192
2022-11-27 11:47:03 GMT 59.089508 -3.401367 35,000 222 430 -128
2022-11-27 11:47:01 GMT 59.092621 -3.396007 35,000 224 430 -64
2022-11-27 11:46:58 GMT 59.097336 -3.387268 35,000 225 430 -64
2022-11-27 11:46:56 GMT 59.100021 -3.382084 35,000 229 430 0
2022-11-27 11:46:53 GMT 59.103699 -3.374451 35,000 229 430 0
2022-11-27 11:46:51 GMT 59.106583 -3.368134 35,000 230 430 64
2022-11-27 11:46:48 GMT 59.110931 -3.358063 35,000 232 431 64
2022-11-27 11:46:43 GMT 59.116360 -3.344200 35,000 235 432 64
2022-11-27 11:46:41 GMT 59.118641 -3.337855 35,000 236 432 0
2022-11-27 11:46:36 GMT 59.124275 -3.320807 35,000 238 433 0
2022-11-27 11:46:33 GMT 59.127300 -3.310768 34,975 241 434 0
2022-11-27 11:46:31 GMT 59.129257 -3.303949 35,000 243 434 0
2022-11-27 11:46:28 GMT 59.132126 -3.293152 34,975 244 435 0
2022-11-27 11:46:26 GMT 59.134796 -3.282260 34,975 246 436 0
2022-11-27 11:46:21 GMT 59.138008 -3.267864 34,975 249 437 0
2022-11-27 11:46:13 GMT 59.143223 -3.239641 34,975 254 440 0
2022-11-27 11:46:10 GMT 59.144619 -3.230549 34,975 255 441 0
2022-11-27 11:46:06 GMT 59.148342 -3.199673 34,975 259 443 -64
2022-11-27 11:46:03 GMT 59.148342 -3.199673 35,000 260 443 -64
2022-11-27 11:46:00 GMT 59.149181 -3.190202 35,000 262 446 -64
2022-11-27 11:45:58 GMT 59.150017 -3.179121 35,000 264 447 -128
2022-11-27 11:45:55 GMT 59.150669 -3.167946 34,975 265 447 -64
2022-11-27 11:45:51 GMT 59.151276 -3.151845 35,000 268 450 -64
2022-11-27 11:45:48 GMT 59.151489 -3.139343 35,000 270 453 0
2022-11-27 11:45:43 GMT 59.151367 -3.120212 34,975 273 455 0
2022-11-27 11:45:41 GMT 59.151169 -3.110779 34,975 275 457 -64
2022-11-27 11:45:38 GMT 59.150711 -3.098511 34,975 276 458 -128
2022-11-27 11:45:36 GMT 59.150482 -3.094391 34,975 277 458 -64
2022-11-27 11:45:33 GMT 59.149506 -3.079297 35,000 279 460 -128
2022-11-27 11:45:30 GMT 59.148560 -3.067383 35,000 281 463 -128
2022-11-27 11:45:27 GMT 59.147224 -3.053915 34,975 286 468 -64
2022-11-27 11:45:23 GMT 59.145309 -3.037994 34,975 285 467 -64
2022-11-27 11:45:20 GMT 59.143688 -3.026260 34,975 287 469 -64
2022-11-27 11:45:17 GMT 59.142151 -3.016113 35,000 288 470 -128
2022-11-27 11:45:15 GMT 59.141129 -3.010064 35,000 289 471 -128
2022-11-27 11:45:13 GMT 59.139084 -2.998535 35,000 291 473 -128
2022-11-27 11:45:10 GMT 59.134552 -2.976288 35,000 293 476 -64
2022-11-27 11:45:07 GMT 59.133087 -2.970062 35,000 297 480 -64
2022-11-27 11:45:03 GMT 59.130066 -2.957611 35,000 297 480 -64
2022-11-27 11:45:00 GMT 59.124599 -2.937422 35,000 299 482 -64
2022-11-27 11:44:57 GMT 59.119572 -2.920943 35,000 301 483 -64
2022-11-27 11:44:53 GMT 59.119572 -2.920943 35,000 303 485 -64
2022-11-27 11:44:50 GMT 59.112762 -2.900940 35,000 305 487 -64
2022-11-27 11:44:47 GMT 59.112762 -2.900940 35,000 306 488 0
2022-11-27 11:44:45 GMT 59.110107 -2.893890 35,000 307 489 0
2022-11-27 11:44:43 GMT 59.106445 -2.884385 35,000 309 490 -64
2022-11-27 11:44:41 GMT 59.103607 -2.877566 35,000 310 491 -64
2022-11-27 11:44:39 GMT 59.101730 -2.873108 35,000 311 493 -128
2022-11-27 11:44:34 GMT 59.094818 -2.857819 35,000 312 493 -128
2022-11-27 11:44:31 GMT 59.088226 -2.844269 35,000 316 497 -64
2022-11-27 11:44:29 GMT 59.085777 -2.839587 35,000 316 497 -64
2022-11-27 11:44:26 GMT 59.081635 -2.831909 35,000 318 498 -64
2022-11-27 11:44:22 GMT 59.072136 -2.815531 35,000 321 502 0
2022-11-27 11:44:19 GMT 59.068600 -2.809753 35,000 321 501 64
2022-11-27 11:44:12 GMT 59.055565 -2.789486 34,975 322 502 64
2022-11-27 11:44:09 GMT 59.049957 -2.780914 34,975 322 502 64
2022-11-27 11:44:03 GMT 59.034103 -2.756716 34,975 322 502 0
2022-11-27 11:44:00 GMT 59.034103 -2.756716 35,000 322 502 0
2022-11-27 11:43:58 GMT 59.030472 -2.751223 35,000 322 501 0
2022-11-27 11:43:53 GMT 59.020844 -2.736511 35,000 322 501 0
2022-11-27 11:43:50 GMT 59.015030 -2.727631 34,975 322 501 0
2022-11-27 11:43:48 GMT 59.013016 -2.724609 34,975 322 501 0
2022-11-27 11:43:43 GMT 59.001938 -2.707764 34,975 322 501 0
2022-11-27 11:43:40 GMT 58.996857 -2.699982 34,975 322 501 0
2022-11-27 11:43:38 GMT 58.984291 -2.680853 34,975 322 501 -64
2022-11-27 11:43:33 GMT 58.984291 -2.680853 35,000 322 502 -64
2022-11-27 11:43:30 GMT 58.979218 -2.673182 35,000 322 502 -64
2022-11-27 11:43:26 GMT 58.972980 -2.663711 34,975 322 502 -64
2022-11-27 11:43:23 GMT 58.966091 -2.653198 34,975 322 502 -64
2022-11-27 11:43:20 GMT 58.960785 -2.645233 34,975 322 502 -64
2022-11-27 11:43:18 GMT 58.957123 -2.639648 34,975 323 503 -64
2022-11-27 11:43:13 GMT 58.947601 -2.625275 34,975 323 503 -64
2022-11-27 11:43:11 GMT 58.943573 -2.619232 34,975 322 502 -64
2022-11-27 11:43:09 GMT 58.941788 -2.616394 34,975 322 502 -64
2022-11-27 11:43:07 GMT 58.937927 -2.610674 35,000 322 502 -64
2022-11-27 11:43:03 GMT 58.929546 -2.597982 35,000 323 502 -64
2022-11-27 11:43:01 GMT 58.926407 -2.593231 35,000 322 502 -64
2022-11-27 11:42:59 GMT 58.923523 -2.588837 35,000 322 502 -64
2022-11-27 11:42:56 GMT 58.917664 -2.579956 35,000 322 502 -64
2022-11-27 11:42:53 GMT 58.908413 -2.565876 34,975 322 501 -64
2022-11-27 11:42:51 GMT 58.904781 -2.560383 34,975 322 501 0
2022-11-27 11:42:47 GMT 58.901321 -2.555145 34,975 322 501 0
2022-11-27 11:42:42 GMT 58.892399 -2.541630 34,975 322 501 0
2022-11-27 11:42:40 GMT 58.886906 -2.533296 34,975 322 501 -64
2022-11-27 11:42:33 GMT 58.874725 -2.514954 34,975 323 502 -128
2022-11-27 11:42:30 GMT 58.868702 -2.505830 34,975 323 501 -64
2022-11-27 11:42:25 GMT 58.861393 -2.494844 35,000 323 501 -64
2022-11-27 11:42:22 GMT 58.850647 -2.478699 35,000 323 501 -64
2022-11-27 11:42:20 GMT 58.850647 -2.478699 35,000 323 501 -64
2022-11-27 11:42:13 GMT 58.838242 -2.460052 34,975 323 500 -64
2022-11-27 11:42:10 GMT 58.832382 -2.451280 34,975 323 500 0
2022-11-27 11:42:02 GMT 58.820023 -2.432763 35,000 323 499 -64
2022-11-27 11:42:00 GMT 58.814751 -2.424866 35,000 323 499 -64
2022-11-27 11:41:51 GMT 58.797989 -2.399872 34,975 323 500 0
2022-11-27 11:41:49 GMT 58.795990 -2.396880 34,975 323 500 0
2022-11-27 11:41:45 GMT 58.788712 -2.385982 34,975 323 499 -64
2022-11-27 11:41:41 GMT 58.778137 -2.370212 35,000 323 500 -128
2022-11-27 11:41:32 GMT 58.764473 -2.349792 35,000 323 501 -64
2022-11-27 11:41:29 GMT 58.759552 -2.342391 35,000 323 501 -64
2022-11-27 11:41:23 GMT 58.747665 -2.324707 34,975 323 501 0
2022-11-27 11:41:21 GMT 58.742752 -2.317318 34,975 323 500 0
2022-11-27 11:41:19 GMT 58.740730 -2.314270 34,975 323 500 0
2022-11-27 11:41:15 GMT 58.733276 -2.303142 34,975 323 500 -64
2022-11-27 11:41:12 GMT 58.727978 -2.295135 35,000 323 500 -64
2022-11-27 11:41:09 GMT 58.723068 -2.287814 35,000 323 500 -64
2022-11-27 11:41:06 GMT 58.716156 -2.277448 35,000 323 501 -128
2022-11-27 11:41:03 GMT 58.711029 -2.269829 35,000 323 501 -128
2022-11-27 11:41:01 GMT 58.706635 -2.263361 35,000 323 501 -128
2022-11-27 11:40:59 GMT 58.704803 -2.260614 35,000 323 501 -64
2022-11-27 11:40:56 GMT 58.698532 -2.251400 35,000 323 501 -64
2022-11-27 11:40:53 GMT 58.693619 -2.244141 35,000 323 502 -64
2022-11-27 11:40:51 GMT 58.688278 -2.236249 35,000 323 501 -64
2022-11-27 11:40:48 GMT 58.685349 -2.231908 35,000 323 501 -64
2022-11-27 11:40:45 GMT 58.678391 -2.221630 35,000 323 501 0
2022-11-27 11:40:42 GMT 58.672897 -2.213479 35,000 323 501 0
2022-11-27 11:40:39 GMT 58.668137 -2.206480 35,000 323 501 64
2022-11-27 11:40:33 GMT 58.655685 -2.187963 35,000 323 501 64
2022-11-27 11:40:29 GMT 58.649460 -2.178748 35,000 323 501 64
2022-11-27 11:40:23 GMT 58.637054 -2.160231 34,975 323 501 64
2022-11-27 11:40:20 GMT 58.632450 -2.153412 34,975 323 501 64
2022-11-27 11:40:18 GMT 58.629364 -2.148802 34,975 323 502 64
2022-11-27 11:40:16 GMT 58.624023 -2.140961 34,975 323 502 0
2022-11-27 11:40:13 GMT 58.618904 -2.133362 34,975 323 502 0
2022-11-27 11:40:09 GMT 58.612473 -2.123905 34,975 323 501 0
2022-11-27 11:40:06 GMT 58.605358 -2.113312 34,975 323 501 0
2022-11-27 11:40:02 GMT 58.598923 -2.103882 34,975 323 501 0
2022-11-27 11:39:59 GMT 58.593430 -2.095731 34,975 323 500 0
2022-11-27 11:39:55 GMT 58.587387 -2.086853 34,975 323 500 0
2022-11-27 11:39:52 GMT 58.581894 -2.078705 34,975 323 500 -64
2022-11-27 11:39:50 GMT 58.577682 -2.072518 34,975 323 500 -128
2022-11-27 11:39:48 GMT 58.574387 -2.067733 34,975 323 500 -128
2022-11-27 11:39:45 GMT 58.567978 -2.058289 34,975 323 500 -128
2022-11-27 11:39:42 GMT 58.563400 -2.051520 35,000 323 500 -192
2022-11-27 11:39:39 GMT 58.556808 -2.041862 35,000 323 501 -192
2022-11-27 11:39:35 GMT 58.550217 -2.032116 35,000 323 501 -128
2022-11-27 11:39:32 GMT 58.545822 -2.025649 35,000 323 501 -64
2022-11-27 11:39:30 GMT 58.541016 -2.018649 35,000 323 502 -64
2022-11-27 11:39:28 GMT 58.538277 -2.014618 35,000 323 502 -64
2022-11-27 11:39:25 GMT 58.531082 -2.004119 35,000 323 502 0
2022-11-27 11:39:22 GMT 58.525955 -1.996588 35,000 323 502 0
2022-11-27 11:39:19 GMT 58.520634 -1.988800 35,000 323 502 -64
2022-11-27 11:39:13 GMT 58.510529 -1.973995 35,000 323 500 -64
2022-11-27 11:39:11 GMT 58.505722 -1.967084 35,000 323 500 0
2022-11-27 11:39:08 GMT 58.500229 -1.959022 35,000 323 500 0
2022-11-27 11:39:03 GMT 58.492172 -1.947238 35,000 323 500 0
2022-11-27 11:39:01 GMT 58.482414 -1.933044 34,975 323 500 0
2022-11-27 11:38:58 GMT 58.482414 -1.933044 34,975 323 500 64
2022-11-27 11:38:55 GMT 58.475967 -1.923671 34,975 323 500 -64
2022-11-27 11:38:52 GMT 58.470840 -1.916228 34,975 323 500 -64
2022-11-27 11:38:50 GMT 58.467911 -1.911975 34,975 323 500 -64
2022-11-27 11:38:48 GMT 58.463326 -1.905304 35,000 323 500 -64
2022-11-27 11:38:45 GMT 58.457832 -1.897247 35,000 323 500 -64
2022-11-27 11:38:42 GMT 58.453037 -1.890289 35,000 323 501 -64
2022-11-27 11:38:40 GMT 58.448822 -1.884067 35,000 323 501 -64
2022-11-27 11:38:38 GMT 58.444984 -1.878479 35,000 323 501 0
2022-11-27 11:38:33 GMT 58.436886 -1.866669 34,975 323 501 64
2022-11-27 11:38:30 GMT 58.429577 -1.855957 34,975 323 502 64
2022-11-27 11:38:28 GMT 58.426804 -1.851905 34,975 323 502 64
2022-11-27 11:38:25 GMT 58.420776 -1.843048 34,975 323 502 0
2022-11-27 11:38:22 GMT 58.415981 -1.835999 35,000 323 501 -64
2022-11-27 11:38:20 GMT 58.412521 -1.830907 35,000 323 501 -64
2022-11-27 11:38:18 GMT 58.401318 -1.814575 35,000 323 501 -128
2022-11-27 11:38:15 GMT 58.401318 -1.814575 35,000 323 501 -64
2022-11-27 11:38:12 GMT 58.395824 -1.806519 35,000 323 501 -64
2022-11-27 11:38:09 GMT 58.393265 -1.802765 35,000 323 501 -64
2022-11-27 11:38:06 GMT 58.387352 -1.794250 35,000 323 501 -64
2022-11-27 11:38:02 GMT 58.379673 -1.782990 34,975 323 501 0
2022-11-27 11:38:00 GMT 58.374878 -1.776031 34,975 323 502 64
2022-11-27 11:37:58 GMT 58.371201 -1.770630 34,975 323 501 64
2022-11-27 11:37:55 GMT 58.364590 -1.761017 34,975 323 501 64
2022-11-27 11:37:52 GMT 58.360703 -1.755420 34,975 323 501 0
2022-11-27 11:37:50 GMT 58.357235 -1.750397 34,975 323 501 0
2022-11-27 11:37:48 GMT 58.350815 -1.741067 34,975 323 501 -64
2022-11-27 11:37:43 GMT 58.344910 -1.732473 34,975 323 501 -64
2022-11-27 11:37:41 GMT 58.334423 -1.717346 35,000 323 501 -128
2022-11-27 11:37:36 GMT 58.332413 -1.714399 35,000 323 501 -128
2022-11-27 11:37:32 GMT 58.324509 -1.702972 35,000 323 501 -64
2022-11-27 11:37:30 GMT 58.320084 -1.696655 35,000 323 501 -128
2022-11-27 11:37:28 GMT 58.317307 -1.692692 35,000 323 501 -64
2022-11-27 11:37:26 GMT 58.314377 -1.688439 35,000 323 501 -64
2022-11-27 11:37:22 GMT 58.306446 -1.677063 34,975 323 501 0
2022-11-27 11:37:20 GMT 58.301056 -1.669302 34,975 323 501 0
2022-11-27 11:37:18 GMT 58.299042 -1.666443 34,975 323 501 0
2022-11-27 11:37:16 GMT 58.295929 -1.661948 35,000 323 501 0
2022-11-27 11:37:12 GMT 58.287827 -1.650253 34,975 323 501 -64
2022-11-27 11:37:10 GMT 58.276794 -1.634216 34,975 323 501 -64
2022-11-27 11:37:07 GMT 58.276794 -1.634216 34,975 323 501 -64
2022-11-27 11:37:02 GMT 58.269424 -1.623584 34,975 323 502 -128
2022-11-27 11:37:00 GMT 58.264252 -1.616231 34,975 324 502 -128
2022-11-27 11:36:56 GMT 58.258347 -1.607725 35,000 324 502 -192
2022-11-27 11:36:53 GMT 58.252213 -1.598969 35,000 323 502 -128
2022-11-27 11:36:50 GMT 58.246124 -1.590271 35,000 323 502 -128
2022-11-27 11:36:48 GMT 58.243149 -1.586018 35,000 323 502 -128
2022-11-27 11:36:46 GMT 58.240013 -1.581482 35,000 323 503 -128
2022-11-27 11:36:42 GMT 58.231869 -1.569855 35,000 323 503 -64
2022-11-27 11:36:40 GMT 58.227448 -1.563446 35,000 323 504 -64
2022-11-27 11:36:36 GMT 58.220947 -1.554122 35,000 323 504 -64
2022-11-27 11:36:32 GMT 58.212967 -1.542755 35,000 323 503 0
2022-11-27 11:36:30 GMT 58.208172 -1.535797 35,000 323 503 0
2022-11-27 11:36:28 GMT 58.206482 -1.533390 35,000 323 503 0
2022-11-27 11:36:26 GMT 58.202263 -1.527283 35,000 323 503 0
2022-11-27 11:36:22 GMT 58.190598 -1.510532 34,975 323 503 64
2022-11-27 11:36:20 GMT 58.190598 -1.510532 34,975 323 503 64
2022-11-27 11:36:18 GMT 58.187302 -1.505747 34,975 323 503 64
2022-11-27 11:36:16 GMT 58.183594 -1.500431 34,975 323 503 64
2022-11-27 11:36:13 GMT 58.178421 -1.492989 34,975 323 502 64
2022-11-27 11:36:11 GMT 58.174515 -1.487457 34,975 323 503 0
2022-11-27 11:36:09 GMT 58.170639 -1.481914 34,975 323 503 0
2022-11-27 11:36:04 GMT 58.159340 -1.465759 34,975 323 503 -64
2022-11-27 11:36:01 GMT 58.155441 -1.460207 35,000 323 502 -64
2022-11-27 11:35:59 GMT 58.146770 -1.447723 35,000 323 502 -64
2022-11-27 11:35:56 GMT 58.146770 -1.447723 35,000 323 503 -128
2022-11-27 11:35:52 GMT 58.138996 -1.436646 34,975 323 503 -64
2022-11-27 11:35:50 GMT 58.134155 -1.429779 34,975 323 503 -64
2022-11-27 11:35:48 GMT 58.131550 -1.426117 34,975 324 504 -64
2022-11-27 11:35:45 GMT 58.120239 -1.409971 35,000 324 504 -128
2022-11-27 11:35:42 GMT 58.120239 -1.409971 35,000 324 504 -128
2022-11-27 11:35:39 GMT 58.115753 -1.403592 35,000 324 504 -128
2022-11-27 11:35:36 GMT 58.109436 -1.394643 35,000 324 504 -64
2022-11-27 11:35:33 GMT 58.100731 -1.382263 35,000 324 504 -64
2022-11-27 11:35:29 GMT 58.094971 -1.374088 35,000 323 503 0
2022-11-27 11:35:24 GMT 58.089020 -1.365671 34,975 323 503 0
2022-11-27 11:35:22 GMT 58.078480 -1.350677 34,975 324 502 0
2022-11-27 11:35:20 GMT 58.078480 -1.350677 34,975 324 502 0
2022-11-27 11:35:18 GMT 58.076065 -1.347243 34,975 324 502 0
2022-11-27 11:35:15 GMT 58.071625 -1.340952 34,975 324 502 -64
2022-11-27 11:35:12 GMT 58.065166 -1.331726 35,000 324 501 -64
2022-11-27 11:35:10 GMT 58.060547 -1.325182 34,975 324 501 -64
2022-11-27 11:35:07 GMT 58.056690 -1.319641 35,000 324 500 -128
2022-11-27 11:35:04 GMT 58.052223 -1.313416 35,000 324 500 -128
2022-11-27 11:35:02 GMT 58.046684 -1.305542 35,000 324 500 -128
2022-11-27 11:35:00 GMT 58.041561 -1.298218 35,000 324 500 -64
2022-11-27 11:34:58 GMT 58.038956 -1.294556 35,000 324 500 -64
2022-11-27 11:34:55 GMT 58.033791 -1.287323 35,000 324 500 -64
2022-11-27 11:34:52 GMT 58.027725 -1.278667 35,000 324 500 0
2022-11-27 11:34:50 GMT 58.023285 -1.272465 35,000 324 500 64
2022-11-27 11:34:48 GMT 58.020519 -1.268555 34,975 324 500 64
2022-11-27 11:34:45 GMT 58.015182 -1.260947 34,975 324 500 64
2022-11-27 11:34:42 GMT 58.005203 -1.246860 34,975 324 500 0
2022-11-27 11:34:40 GMT 58.005203 -1.246860 34,975 324 500 0
2022-11-27 11:34:38 GMT 58.001541 -1.241632 34,975 324 500 -64
2022-11-27 11:34:35 GMT 57.996002 -1.233836 34,975 324 500 -64
2022-11-27 11:34:31 GMT 57.990635 -1.226257 34,975 324 500 -64
2022-11-27 11:34:29 GMT 57.980484 -1.211951 35,000 324 500 -128
2022-11-27 11:34:26 GMT 57.980484 -1.211951 35,000 324 500 -128
2022-11-27 11:34:23 GMT 57.974899 -1.204155 35,000 324 500 -128
2022-11-27 11:34:21 GMT 57.971409 -1.199249 35,000 324 500 -128
2022-11-27 11:34:18 GMT 57.965698 -1.191131 35,000 324 501 -64
2022-11-27 11:34:15 GMT 57.959213 -1.181946 35,000 324 501 -64
2022-11-27 11:34:11 GMT 57.949577 -1.168396 35,000 324 502 0
2022-11-27 11:34:09 GMT 57.949577 -1.168396 35,000 324 502 0
2022-11-27 11:34:07 GMT 57.944962 -1.161893 35,000 324 502 0
2022-11-27 11:34:05 GMT 57.940887 -1.156134 34,975 324 503 0
2022-11-27 11:34:01 GMT 57.933235 -1.145416 34,975 324 503 0
2022-11-27 11:33:57 GMT 57.927521 -1.137351 34,975 324 501 0
2022-11-27 11:33:54 GMT 57.921738 -1.129303 34,975 324 501 -64
2022-11-27 11:33:51 GMT 57.914707 -1.119415 34,975 324 501 -64
2022-11-27 11:33:47 GMT 57.900650 -1.099640 35,000 324 500 -64
2022-11-27 11:33:43 GMT 57.900650 -1.099640 35,000 324 500 -64
2022-11-27 11:33:41 GMT 57.897491 -1.095266 35,000 324 500 -64
2022-11-27 11:33:39 GMT 57.894150 -1.090570 35,000 324 500 -64
2022-11-27 11:33:37 GMT 57.890316 -1.085083 35,000 324 500 0
2022-11-27 11:33:33 GMT 57.881607 -1.072939 35,000 324 500 -64
2022-11-27 11:33:31 GMT 57.878815 -1.069061 34,975 324 500 -64
2022-11-27 11:33:29 GMT 57.874924 -1.063636 35,000 324 500 0
2022-11-27 11:33:27 GMT 57.872158 -1.059723 35,000 324 500 0
2022-11-27 11:33:25 GMT 57.866619 -1.051941 34,975 324 500 0
2022-11-27 11:33:22 GMT 57.860706 -1.043701 34,975 324 500 64
2022-11-27 11:33:20 GMT 57.858101 -1.040039 34,975 324 500 64
2022-11-27 11:33:17 GMT 57.853630 -1.033813 34,975 324 500 0
2022-11-27 11:33:14 GMT 57.847183 -1.024829 34,975 324 501 0
2022-11-27 11:33:10 GMT 57.834732 -1.007538 34,975 324 501 -64
2022-11-27 11:33:07 GMT 57.834732 -1.007538 34,975 324 501 -64
2022-11-27 11:33:04 GMT 57.828232 -0.998515 34,975 324 502 -64
2022-11-27 11:33:01 GMT 57.818939 -0.985580 34,975 324 502 -64
2022-11-27 11:32:59 GMT 57.818939 -0.985580 34,975 324 502 -64
2022-11-27 11:32:56 GMT 57.811844 -0.975745 34,975 324 502 -64
2022-11-27 11:32:53 GMT 57.808334 -0.970825 34,975 324 502 -64
2022-11-27 11:32:50 GMT 57.801453 -0.961215 34,975 324 503 -128
2022-11-27 11:32:47 GMT 57.797955 -0.956268 35,000 324 502 -128
2022-11-27 11:32:43 GMT 57.789391 -0.944366 35,000 324 503 -128
2022-11-27 11:32:40 GMT 57.783600 -0.936319 35,000 324 503 -64
2022-11-27 11:32:37 GMT 57.770920 -0.918687 35,000 324 503 -64
2022-11-27 11:32:33 GMT 57.770920 -0.918687 35,000 324 503 0
2022-11-27 11:32:31 GMT 57.767368 -0.913696 34,975 324 503 0
2022-11-27 11:32:29 GMT 57.763321 -0.908020 34,975 324 503 -64
2022-11-27 11:32:26 GMT 57.758286 -0.900968 34,975 324 503 0
2022-11-27 11:32:23 GMT 57.751556 -0.891665 34,975 324 504 0
2022-11-27 11:32:20 GMT 57.745239 -0.882893 34,975 324 504 -64
2022-11-27 11:32:16 GMT 57.738876 -0.874033 34,975 324 504 -64
2022-11-27 11:32:14 GMT 57.735123 -0.868895 34,975 324 504 -64
2022-11-27 11:32:11 GMT 57.730682 -0.862604 34,975 324 504 -128
2022-11-27 11:32:09 GMT 57.725986 -0.856136 35,000 324 504 -128
2022-11-27 11:32:06 GMT 57.720726 -0.848960 35,000 324 504 -192
2022-11-27 11:32:04 GMT 57.716080 -0.842428 35,000 324 504 -128
2022-11-27 11:32:01 GMT 57.711182 -0.835733 35,000 324 504 -128
2022-11-27 11:31:59 GMT 57.707645 -0.830797 35,000 324 504 -64
2022-11-27 11:31:56 GMT 57.701687 -0.822557 35,000 324 504 -64
2022-11-27 11:31:53 GMT 57.696259 -0.815048 35,000 324 504 0
2022-11-27 11:31:51 GMT 57.692329 -0.809622 35,000 324 504 -64
2022-11-27 11:31:49 GMT 57.688602 -0.804394 35,000 324 504 0
2022-11-27 11:31:46 GMT 57.682274 -0.795623 35,000 324 504 64
2022-11-27 11:31:43 GMT 57.677582 -0.789127 35,000 324 504 64
2022-11-27 11:31:41 GMT 57.673660 -0.783662 35,000 324 504 0
2022-11-27 11:31:39 GMT 57.669754 -0.778313 35,000 324 504 0
2022-11-27 11:31:36 GMT 57.664124 -0.770502 35,000 324 504 64
2022-11-27 11:31:33 GMT 57.658905 -0.763292 34,975 324 504 64
2022-11-27 11:31:31 GMT 57.655365 -0.758411 34,975 324 504 64
2022-11-27 11:31:26 GMT 57.645447 -0.744667 34,975 324 504 64
2022-11-27 11:31:24 GMT 57.641693 -0.739517 34,975 324 504 64
2022-11-27 11:31:21 GMT 57.637024 -0.733072 34,975 324 505 64
2022-11-27 11:31:19 GMT 57.632507 -0.726870 34,975 324 505 64
2022-11-27 11:31:16 GMT 57.626503 -0.718630 34,975 324 506 64
2022-11-27 11:31:14 GMT 57.618027 -0.706987 34,975 324 507 64
2022-11-27 11:31:11 GMT 57.618027 -0.706987 34,975 324 507 -64
2022-11-27 11:31:09 GMT 57.612583 -0.699492 34,975 324 508 -64
2022-11-27 11:31:06 GMT 57.606907 -0.691784 34,975 324 508 -64
2022-11-27 11:31:02 GMT 57.601044 -0.683727 34,975 324 508 -128
2022-11-27 11:31:00 GMT 57.598198 -0.679912 35,000 324 508 -128
2022-11-27 11:30:56 GMT 57.588547 -0.666647 35,000 324 510 -128
2022-11-27 11:30:53 GMT 57.582504 -0.658407 35,000 324 510 -128
2022-11-27 11:30:51 GMT 57.572617 -0.644932 34,975 324 510 -64
2022-11-27 11:30:48 GMT 57.572617 -0.644932 34,975 324 509 -64
2022-11-27 11:30:45 GMT 57.567894 -0.638447 34,975 324 509 -64
2022-11-27 11:30:42 GMT 57.563332 -0.632245 34,975 324 509 -64
2022-11-27 11:30:40 GMT 57.559563 -0.627107 34,975 324 509 -64
2022-11-27 11:30:36 GMT 57.552021 -0.616741 35,000 324 508 -128
2022-11-27 11:30:33 GMT 57.545013 -0.607252 35,000 324 508 -128
2022-11-27 11:30:30 GMT 57.540848 -0.601587 35,000 324 508 -64
2022-11-27 11:30:26 GMT 57.532516 -0.590258 35,000 324 508 -64
2022-11-27 11:30:23 GMT 57.526649 -0.582275 35,000 324 508 -128
2022-11-27 11:30:21 GMT 57.521576 -0.575323 35,000 324 507 -64
2022-11-27 11:30:17 GMT 57.515709 -0.567391 35,000 324 507 -64
2022-11-27 11:30:14 GMT 57.510773 -0.560657 35,000 324 506 -64
2022-11-27 11:30:11 GMT 57.501526 -0.548115 35,000 324 507 -64
2022-11-27 11:30:06 GMT 57.495117 -0.539360 35,000 324 506 -128
2022-11-27 11:30:03 GMT 57.488522 -0.530445 35,000 324 506 -128
2022-11-27 11:30:01 GMT 57.484589 -0.525026 35,000 324 506 -128
2022-11-27 11:29:58 GMT 57.479912 -0.518572 35,000 324 506 -128
2022-11-27 11:29:56 GMT 57.476139 -0.513434 35,000 324 506 -128
2022-11-27 11:29:53 GMT 57.469574 -0.504427 35,000 324 506 -128
2022-11-27 11:29:51 GMT 57.466362 -0.500055 35,000 324 506 -128
2022-11-27 11:29:48 GMT 57.461475 -0.493410 35,000 324 505 -64
2022-11-27 11:29:45 GMT 57.456390 -0.486488 35,000 324 506 -64
2022-11-27 11:29:42 GMT 57.449982 -0.477819 35,000 324 505 0
2022-11-27 11:29:40 GMT 57.445648 -0.471969 35,000 324 504 64
2022-11-27 11:29:37 GMT 57.440014 -0.464261 34,975 324 502 128
2022-11-27 11:29:34 GMT 57.435333 -0.457907 34,975 324 502 128
2022-11-27 11:29:31 GMT 57.428238 -0.448208 34,975 324 502 128
2022-11-27 11:29:28 GMT 57.423580 -0.441845 34,975 324 501 64
2022-11-27 11:29:26 GMT 57.418739 -0.435200 34,975 324 501 64
2022-11-27 11:29:23 GMT 57.413727 -0.428381 34,975 324 501 64
2022-11-27 11:29:21 GMT 57.409801 -0.423062 34,975 324 500 64
2022-11-27 11:29:18 GMT 57.400314 -0.410185 34,975 324 500 0
2022-11-27 11:29:16 GMT 57.400314 -0.410185 34,975 324 500 0
2022-11-27 11:29:14 GMT 57.396973 -0.405550 34,975 324 500 -64
2022-11-27 11:29:11 GMT 57.391388 -0.397997 34,975 324 500 -64
2022-11-27 11:29:08 GMT 57.386536 -0.391474 34,975 324 500 -64
2022-11-27 11:29:06 GMT 57.379074 -0.381432 35,000 325 500 -192
2022-11-27 11:29:04 GMT 57.372757 -0.372849 35,000 325 500 -192
2022-11-27 11:29:01 GMT 57.372757 -0.372849 35,000 325 500 -192
2022-11-27 11:28:58 GMT 57.366760 -0.364780 35,000 324 499 -128
2022-11-27 11:28:55 GMT 57.362320 -0.358772 35,000 325 500 -128
2022-11-27 11:28:52 GMT 57.352406 -0.345449 35,000 324 500 -128
2022-11-27 11:28:48 GMT 57.349052 -0.340931 35,000 324 500 -128
2022-11-27 11:28:45 GMT 57.343643 -0.333624 35,000 324 499 -128
2022-11-27 11:28:42 GMT 57.337879 -0.325869 35,000 325 500 -64
2022-11-27 11:28:40 GMT 57.333782 -0.320376 35,000 325 500 -64
2022-11-27 11:28:38 GMT 57.324646 -0.308046 34,975 325 499 -64
2022-11-27 11:28:35 GMT 57.324646 -0.308046 34,975 325 499 -64
2022-11-27 11:28:32 GMT 57.319214 -0.300795 35,000 325 499 -64
2022-11-27 11:28:30 GMT 57.315487 -0.295833 34,975 325 499 -64
2022-11-27 11:28:27 GMT 57.310646 -0.289366 35,000 325 499 -64
2022-11-27 11:28:25 GMT 57.299892 -0.274835 34,975 324 498 -64
2022-11-27 11:28:22 GMT 57.299892 -0.274835 34,975 324 498 -64
2022-11-27 11:28:20 GMT 57.297657 -0.271823 34,975 324 498 0
2022-11-27 11:28:18 GMT 57.294113 -0.267019 34,975 324 497 -64
2022-11-27 11:28:16 GMT 57.289673 -0.261011 35,000 324 497 -64
2022-11-27 11:28:13 GMT 57.283035 -0.251999 34,975 324 497 -64
2022-11-27 11:28:11 GMT 57.279503 -0.247281 34,975 324 497 -64
2022-11-27 11:28:09 GMT 57.276524 -0.243294 34,975 325 497 -64
2022-11-27 11:28:06 GMT 57.268936 -0.233030 35,000 325 497 -128
2022-11-27 11:28:03 GMT 57.264450 -0.227108 34,975 325 497 -64
2022-11-27 11:28:01 GMT 57.256832 -0.216980 34,975 325 497 -128
2022-11-27 11:27:58 GMT 57.256832 -0.216980 34,975 325 497 -128
2022-11-27 11:27:54 GMT 57.249756 -0.207500 35,000 325 497 -128
2022-11-27 11:27:51 GMT 57.242310 -0.197577 34,975 325 497 -128
2022-11-27 11:27:47 GMT 57.235279 -0.188185 35,000 324 497 -128
2022-11-27 11:27:44 GMT 57.230621 -0.181961 35,000 324 497 -128
2022-11-27 11:27:41 GMT 57.223782 -0.172680 35,000 324 498 -128
2022-11-27 11:27:37 GMT 57.216331 -0.162757 35,000 324 498 -128
2022-11-27 11:27:34 GMT 57.209839 -0.154066 35,000 325 499 -64
2022-11-27 11:27:31 GMT 57.205353 -0.148058 35,000 325 498 -64
2022-11-27 11:27:28 GMT 57.198830 -0.139367 35,000 325 499 -64
2022-11-27 11:27:25 GMT 57.193615 -0.132368 35,000 325 499 -64
2022-11-27 11:27:21 GMT 57.186356 -0.122738 35,000 324 498 -64
2022-11-27 11:27:19 GMT 57.183014 -0.118189 35,000 324 498 -64
2022-11-27 11:27:15 GMT 57.174667 -0.107028 34,975 325 497 -64
2022-11-27 11:27:11 GMT 57.167965 -0.098080 35,000 325 497 0
2022-11-27 11:27:09 GMT 57.162006 -0.090194 35,000 325 496 0
2022-11-27 11:27:07 GMT 57.162006 -0.090194 35,000 325 496 0
2022-11-27 11:27:05 GMT 57.157955 -0.084790 35,000 325 495 0
2022-11-27 11:27:03 GMT 57.147766 -0.071239 34,975 325 494 64
2022-11-27 11:27:00 GMT 57.147766 -0.071239 34,975 325 494 64
2022-11-27 11:26:58 GMT 57.144791 -0.067291 34,975 325 494 0
2022-11-27 11:26:54 GMT 57.136688 -0.056477 35,000 325 493 -64
2022-11-27 11:26:51 GMT 57.130417 -0.048151 34,975 325 492 -64
2022-11-27 11:26:48 GMT 57.126160 -0.042528 35,000 325 492 -64
2022-11-27 11:26:44 GMT 57.118805 -0.032782 34,975 325 492 -64
2022-11-27 11:26:41 GMT 57.112148 -0.023922 34,975 325 492 -64
2022-11-27 11:26:38 GMT 57.107162 -0.017338 34,975 325 492 -64
2022-11-27 11:26:34 GMT 57.096321 -0.002924 34,975 325 492 -64
2022-11-27 11:26:28 GMT 57.089539 0.006180 34,975 325 492 -64
2022-11-27 11:26:25 GMT 57.083797 0.013733 34,975 325 492 -64
2022-11-27 11:26:22 GMT 57.078827 0.020342 35,000 325 492 -128
2022-11-27 11:26:19 GMT 57.072189 0.029097 35,000 325 492 -128
2022-11-27 11:26:16 GMT 57.061684 0.042971 35,000 325 493 -128
2022-11-27 11:26:13 GMT 57.061684 0.042971 34,975 325 493 -64
2022-11-27 11:26:10 GMT 57.057037 0.049095 34,975 325 493 -64
2022-11-27 11:26:08 GMT 57.051678 0.056172 35,000 325 493 -64
2022-11-27 11:26:05 GMT 57.046509 0.062994 35,000 325 493 -64
2022-11-27 11:26:03 GMT 57.038223 0.073900 35,000 325 492 -64
2022-11-27 11:26:00 GMT 57.038223 0.073900 34,975 325 492 -64
2022-11-27 11:25:58 GMT 57.033241 0.080537 34,975 325 492 -64
2022-11-27 11:25:54 GMT 57.026211 0.089751 34,975 325 492 -64
2022-11-27 11:25:51 GMT 57.017899 0.100679 35,000 325 488 -128
2022-11-27 11:25:49 GMT 57.017899 0.100679 35,000 325 492 -64
2022-11-27 11:25:46 GMT 57.009964 0.111104 35,000 325 491 -64
2022-11-27 11:25:42 GMT 57.004990 0.117674 35,000 325 491 -64
2022-11-27 11:25:39 GMT 56.999130 0.125484 35,000 325 490 -64
2022-11-27 11:25:36 GMT 56.993439 0.132988 35,000 325 490 -64
2022-11-27 11:25:34 GMT 56.986084 0.142645 35,000 325 489 -64
2022-11-27 11:25:32 GMT 56.986084 0.142645 35,000 325 489 -64
2022-11-27 11:25:29 GMT 56.980408 0.150204 35,000 325 489 -64
2022-11-27 11:25:27 GMT 56.976585 0.155226 35,000 325 488 -64
2022-11-27 11:25:23 GMT 56.969604 0.164441 35,000 325 488 -128
2022-11-27 11:25:20 GMT 56.958115 0.179644 35,000 325 487 -128
2022-11-27 11:25:18 GMT 56.958115 0.179644 35,000 325 487 -64
2022-11-27 11:25:14 GMT 56.954086 0.184879 35,000 325 487 -64
2022-11-27 11:25:11 GMT 56.948227 0.192604 35,000 325 487 -64
2022-11-27 11:25:08 GMT 56.941315 0.201702 35,000 325 487 0
2022-11-27 11:25:05 GMT 56.935619 0.209095 35,000 325 487 0
2022-11-27 11:25:01 GMT 56.929428 0.217246 35,000 325 487 0
2022-11-27 11:24:59 GMT 56.925568 0.222301 35,000 325 486 0
2022-11-27 11:24:57 GMT 56.921951 0.227022 34,975 325 486 0
2022-11-27 11:24:54 GMT 56.916630 0.233991 34,975 325 486 0
2022-11-27 11:24:51 GMT 56.911182 0.241168 34,975 325 486 0
2022-11-27 11:24:47 GMT 56.903873 0.250648 35,000 325 486 -64
2022-11-27 11:24:45 GMT 56.899124 0.256850 34,975 325 486 -64
2022-11-27 11:24:40 GMT 56.891769 0.266330 35,000 325 486 -64
2022-11-27 11:24:37 GMT 56.885742 0.274229 34,975 325 486 -64
2022-11-27 11:24:32 GMT 56.874435 0.288906 34,975 325 486 -64
2022-11-27 11:24:27 GMT 56.867889 0.297489 34,975 325 485 0
2022-11-27 11:24:24 GMT 56.861511 0.305845 34,975 325 485 -64
2022-11-27 11:24:21 GMT 56.856216 0.312767 34,975 325 485 -64
2022-11-27 11:24:18 GMT 56.851089 0.319376 34,975 325 485 -64
2022-11-27 11:24:15 GMT 56.844379 0.328172 34,975 325 485 -64
2022-11-27 11:24:13 GMT 56.834702 0.340834 34,975 325 485 -64
2022-11-27 11:24:10 GMT 56.834702 0.340834 34,975 325 485 -64
2022-11-27 11:24:07 GMT 56.830879 0.345804 34,975 325 485 -64
2022-11-27 11:24:02 GMT 56.822662 0.356455 34,975 325 485 -64
2022-11-27 11:23:59 GMT 56.815384 0.365982 34,975 325 485 -64
2022-11-27 11:23:56 GMT 56.811562 0.370966 34,975 325 485 -64
2022-11-27 11:23:53 GMT 56.805740 0.378585 34,975 325 484 -128
2022-11-27 11:23:49 GMT 56.796246 0.390812 35,000 325 484 -128
2022-11-27 11:23:46 GMT 56.793503 0.394392 35,000 325 484 -128
2022-11-27 11:23:42 GMT 56.784348 0.406151 35,000 325 483 -128
2022-11-27 11:23:39 GMT 56.779633 0.412245 35,000 325 484 -128
2022-11-27 11:23:37 GMT 56.775604 0.417395 35,000 325 484 -128
2022-11-27 11:23:32 GMT 56.767960 0.427265 35,000 325 483 -128
2022-11-27 11:23:29 GMT 56.759422 0.438390 35,000 325 483 -64
2022-11-27 11:23:26 GMT 56.756908 0.441757 35,000 325 483 -64
2022-11-27 11:23:23 GMT 56.751087 0.449288 35,000 325 483 0
2022-11-27 11:23:19 GMT 56.743500 0.459211 34,975 325 482 0
2022-11-27 11:23:16 GMT 56.738052 0.466210 34,975 325 482 64
2022-11-27 11:23:13 GMT 56.731384 0.474901 35,000 325 481 -64
2022-11-27 11:23:09 GMT 56.724838 0.483313 34,975 325 481 -64
2022-11-27 11:23:07 GMT 56.722134 0.486854 34,975 325 481 -64
2022-11-27 11:23:04 GMT 56.715088 0.495930 35,000 325 481 0
2022-11-27 11:22:59 GMT 56.706539 0.506877 34,975 325 480 0
2022-11-27 11:22:56 GMT 56.701836 0.512902 34,975 325 479 0
2022-11-27 11:22:53 GMT 56.697132 0.519015 35,000 325 479 -64
2022-11-27 11:22:50 GMT 56.690662 0.527344 35,000 325 478 -64
2022-11-27 11:22:47 GMT 56.684692 0.534983 35,000 325 478 -64
2022-11-27 11:22:44 GMT 56.674622 0.548029 35,000 325 478 -64
2022-11-27 11:22:41 GMT 56.674622 0.548029 34,975 325 477 -64
2022-11-27 11:22:38 GMT 56.669952 0.554037 34,975 325 465 -64
2022-11-27 11:22:36 GMT 56.666550 0.558442 34,975 325 476 -64
2022-11-27 11:22:33 GMT 56.659927 0.566998 35,000 325 476 -64
2022-11-27 11:22:29 GMT 56.652954 0.576073 35,000 325 476 -64
2022-11-27 11:22:27 GMT 56.647930 0.582541 34,975 325 472 -64
2022-11-27 11:22:24 GMT 56.644547 0.586910 34,975 325 474 -64
2022-11-27 11:22:22 GMT 56.640060 0.592642 35,000 325 474 -64
2022-11-27 11:22:18 GMT 56.634201 0.600214 34,975 325 474 -64
2022-11-27 11:22:15 GMT 56.626888 0.609653 34,975 325 474 -64
2022-11-27 11:22:11 GMT 56.619919 0.618582 35,000 325 473 -64
2022-11-27 11:22:08 GMT 56.615295 0.624590 34,975 325 472 -64
2022-11-27 11:22:05 GMT 56.611198 0.629765 34,975 325 472 -64
2022-11-27 11:22:02 GMT 56.606216 0.636232 34,975 325 472 -64
2022-11-27 11:21:59 GMT 56.599094 0.645270 34,975 325 472 -64
2022-11-27 11:21:57 GMT 56.596256 0.648991 35,000 325 471 -64
2022-11-27 11:21:55 GMT 56.592133 0.654186 35,000 325 471 -64
2022-11-27 11:21:52 GMT 56.587189 0.660595 34,975 325 471 -64
2022-11-27 11:21:49 GMT 56.582058 0.667162 35,000 325 471 -64
2022-11-27 11:21:47 GMT 56.577621 0.672829 35,000 325 470 -64
2022-11-27 11:21:43 GMT 56.570847 0.681485 34,975 325 470 -64
2022-11-27 11:21:39 GMT 56.564117 0.690141 35,000 325 470 -64
2022-11-27 11:21:36 GMT 56.558807 0.696883 34,975 325 470 -64
2022-11-27 11:21:32 GMT 56.552444 0.705039 35,000 325 470 -64
2022-11-27 11:21:28 GMT 56.545513 0.713854 34,975 325 470 -64
2022-11-27 11:21:25 GMT 56.540161 0.720634 34,975 325 470 -64
2022-11-27 11:21:22 GMT 56.535049 0.727178 35,000 325 469 -128
2022-11-27 11:21:19 GMT 56.526382 0.738230 35,000 325 469 -128
2022-11-27 11:21:16 GMT 56.523010 0.742493 35,000 325 469 -128
2022-11-27 11:21:13 GMT 56.517162 0.749989 35,000 325 469 -128
2022-11-27 11:21:09 GMT 56.510284 0.758722 35,000 325 468 -64
2022-11-27 11:21:06 GMT 56.504242 0.766463 35,000 325 468 -64
2022-11-27 11:21:02 GMT 56.499149 0.772991 35,000 325 468 -64
2022-11-27 11:20:59 GMT 56.494034 0.779530 35,000 325 467 0
2022-11-27 11:20:56 GMT 56.486115 0.789642 34,975 325 467 0
2022-11-27 11:20:53 GMT 56.477463 0.800587 35,000 325 467 0
2022-11-27 11:20:50 GMT 56.477463 0.800587 34,975 325 466 -64
2022-11-27 11:20:47 GMT 56.471512 0.808244 34,975 325 466 -64
2022-11-27 11:20:45 GMT 56.469040 0.811407 34,975 325 465 -64
2022-11-27 11:20:42 GMT 56.463776 0.818065 34,975 325 463 64
2022-11-27 11:20:37 GMT 56.454086 0.830326 35,000 325 464 -64
2022-11-27 11:20:35 GMT 56.450596 0.834875 35,000 325 464 -64
2022-11-27 11:20:32 GMT 56.446404 0.840197 35,000 325 464 -128
2022-11-27 11:20:29 GMT 56.440445 0.847750 35,000 325 464 -64
2022-11-27 11:20:26 GMT 56.434662 0.855103 35,000 325 464 -64
2022-11-27 11:20:23 GMT 56.430084 0.860929 35,000 325 464 0
2022-11-27 11:20:20 GMT 56.424820 0.867587 35,000 325 464 0
2022-11-27 11:20:18 GMT 56.419601 0.874245 35,000 325 463 64
2022-11-27 11:20:15 GMT 56.416077 0.878740 34,975 325 463 64
2022-11-27 11:20:12 GMT 56.410492 0.885814 35,000 325 463 64
2022-11-27 11:20:09 GMT 56.405594 0.892057 34,975 325 463 64
2022-11-27 11:20:05 GMT 56.398411 0.901136 34,975 325 463 64
2022-11-27 11:20:02 GMT 56.393196 0.907831 34,975 325 463 64
2022-11-27 11:19:58 GMT 56.385838 0.917101 34,975 325 463 -64
2022-11-27 11:19:55 GMT 56.380417 0.923934 34,975 325 463 -64
2022-11-27 11:19:52 GMT 56.375366 0.930405 34,975 325 463 -64
2022-11-27 11:19:48 GMT 56.368515 0.938998 34,975 326 463 -64
2022-11-27 11:19:45 GMT 56.363449 0.945425 34,975 326 463 -64
2022-11-27 11:19:42 GMT 56.357986 0.952232 35,000 326 463 -64
2022-11-27 11:19:38 GMT 56.350616 0.961470 34,975 326 464 -64
2022-11-27 11:19:35 GMT 56.345573 0.967913 34,975 325 465 -128
2022-11-27 11:19:32 GMT 56.340454 0.974288 34,975 326 464 -64
2022-11-27 11:19:28 GMT 56.333084 0.983526 34,975 326 464 -64
2022-11-27 11:19:25 GMT 56.327820 0.990184 35,000 326 464 -64
2022-11-27 11:19:22 GMT 56.323040 0.996151 35,000 325 465 -128
2022-11-27 11:19:19 GMT 56.317612 1.003002 35,000 325 465 -128
2022-11-27 11:19:16 GMT 56.311077 1.011257 34,975 326 466 -64
2022-11-27 11:19:13 GMT 56.308285 1.014776 34,975 326 466 -64
2022-11-27 11:19:10 GMT 56.301407 1.023393 34,975 326 466 -64
2022-11-27 11:19:07 GMT 56.296318 1.029797 34,975 326 466 -64
2022-11-27 11:19:04 GMT 56.291012 1.036491 35,000 326 466 -128
2022-11-27 11:19:01 GMT 56.286449 1.042242 35,000 326 466 -128
2022-11-27 11:18:57 GMT 56.279049 1.051598 35,000 326 466 -128
2022-11-27 11:18:54 GMT 56.273575 1.058433 35,000 326 466 -128
2022-11-27 11:18:51 GMT 56.261406 1.073742 35,000 326 466 -128
2022-11-27 11:18:47 GMT 56.261406 1.073742 34,975 326 466 -64
2022-11-27 11:18:44 GMT 56.249813 1.088333 35,000 326 466 0
2022-11-27 11:18:40 GMT 56.249813 1.088333 35,000 326 465 -128
2022-11-27 11:18:36 GMT 56.242218 1.097884 35,000 326 466 64
2022-11-27 11:18:34 GMT 56.238873 1.102066 34,975 326 466 64
2022-11-27 11:18:31 GMT 56.234436 1.107622 34,975 326 466 64
2022-11-27 11:18:28 GMT 56.228634 1.114855 34,975 326 465 0
2022-11-27 11:18:24 GMT 56.220016 1.125682 34,975 326 465 0
2022-11-27 11:18:21 GMT 56.215969 1.130733 34,975 326 465 -64
2022-11-27 11:18:16 GMT 56.206650 1.142412 34,975 326 465 -128
2022-11-27 11:18:13 GMT 56.202759 1.147322 34,975 326 465 -128
2022-11-27 11:18:10 GMT 56.195908 1.155882 34,975 326 465 -128
2022-11-27 11:18:07 GMT 56.190598 1.162491 35,000 326 466 -128
2022-11-27 11:18:04 GMT 56.178406 1.177701 35,000 326 466 -128
2022-11-27 11:18:00 GMT 56.178406 1.177701 35,000 326 467 -128
2022-11-27 11:17:56 GMT 56.169743 1.188412 35,000 326 467 -64
2022-11-27 11:17:53 GMT 56.161423 1.198841 35,000 326 467 -64
2022-11-27 11:17:50 GMT 56.161423 1.198841 35,000 326 466 -64
2022-11-27 11:17:47 GMT 56.155746 1.205833 35,000 326 467 -64
2022-11-27 11:17:43 GMT 56.148518 1.214848 35,000 326 467 -64
2022-11-27 11:17:40 GMT 56.143387 1.221230 34,975 326 467 0
2022-11-27 11:17:37 GMT 56.137901 1.228065 34,975 326 467 0
2022-11-27 11:17:34 GMT 56.130981 1.236628 34,975 326 467 -64
2022-11-27 11:17:30 GMT 56.125847 1.243000 34,975 326 467 -64
2022-11-27 11:17:25 GMT 56.116627 1.254501 35,000 326 466 0
2022-11-27 11:17:22 GMT 56.111649 1.260595 35,000 326 467 -128
2022-11-27 11:17:19 GMT 56.107224 1.266091 35,000 326 467 -128
2022-11-27 11:17:16 GMT 56.100861 1.274081 35,000 326 467 -128
2022-11-27 11:17:13 GMT 56.094086 1.282404 35,000 326 467 -128
2022-11-27 11:17:10 GMT 56.084152 1.294722 35,000 326 468 -64
2022-11-27 11:17:07 GMT 56.076691 1.303877 35,000 326 467 -128
2022-11-27 11:17:02 GMT 56.076691 1.303877 35,000 326 468 -64
2022-11-27 11:16:59 GMT 56.071335 1.310536 34,975 326 463 -64
2022-11-27 11:16:56 GMT 56.065838 1.317329 35,000 326 467 -64
2022-11-27 11:16:53 GMT 56.054806 1.330891 35,000 326 467 -64
2022-11-27 11:16:50 GMT 56.054806 1.330891 35,000 326 467 0
2022-11-27 11:16:47 GMT 56.049126 1.337843 35,000 326 466 -64
2022-11-27 11:16:45 GMT 56.045746 1.341997 35,000 326 466 0
2022-11-27 11:16:42 GMT 56.034973 1.355352 34,975 326 466 0
2022-11-27 11:16:39 GMT 56.034973 1.355352 35,000 326 465 64
2022-11-27 11:16:35 GMT 56.028599 1.363163 34,975 326 465 64
2022-11-27 11:16:32 GMT 56.020981 1.372542 34,975 326 465 64
2022-11-27 11:16:29 GMT 56.017456 1.376953 34,975 326 464 64
2022-11-27 11:16:25 GMT 56.010773 1.385193 34,975 326 464 -64
2022-11-27 11:16:22 GMT 56.005142 1.392184 34,975 326 464 0
2022-11-27 11:16:19 GMT 56.000015 1.398439 34,975 326 464 0
2022-11-27 11:16:16 GMT 55.993515 1.406500 34,975 326 464 -64
2022-11-27 11:16:14 GMT 55.990192 1.410627 34,975 326 463 -64
2022-11-27 11:16:11 GMT 55.985584 1.416292 34,975 326 463 -64
2022-11-27 11:16:08 GMT 55.981396 1.421528 34,975 326 463 -64
2022-11-27 11:16:04 GMT 55.973099 1.431718 35,000 326 464 -128
2022-11-27 11:16:01 GMT 55.966782 1.439542 35,000 326 463 -128
2022-11-27 11:15:58 GMT 55.962524 1.444702 35,000 326 464 -128
2022-11-27 11:15:54 GMT 55.955276 1.453629 35,000 326 463 0
2022-11-27 11:15:51 GMT 55.949318 1.460924 34,975 326 463 0
2022-11-27 11:15:48 GMT 55.944534 1.466758 34,975 326 463 0
2022-11-27 11:15:44 GMT 55.935745 1.477578 35,000 326 463 -128
2022-11-27 11:15:41 GMT 55.932587 1.481490 35,000 326 463 -64
2022-11-27 11:15:38 GMT 55.926788 1.488562 34,975 326 463 -64
2022-11-27 11:15:36 GMT 55.923798 1.492310 35,000 326 463 -128
2022-11-27 11:15:33 GMT 55.919388 1.497660 34,975 326 463 -128
2022-11-27 11:15:30 GMT 55.913754 1.504612 35,000 326 463 -128
2022-11-27 11:15:27 GMT 55.908966 1.510370 34,975 326 463 -64
2022-11-27 11:15:25 GMT 55.904755 1.515614 34,975 326 463 -128
2022-11-27 11:15:22 GMT 55.899975 1.521435 35,000 326 464 -192
2022-11-27 11:15:18 GMT 55.891708 1.531511 35,000 326 464 -128
2022-11-27 11:15:15 GMT 55.887131 1.537170 35,000 326 462 -128
2022-11-27 11:15:12 GMT 55.881306 1.544266 35,000 326 462 -64
2022-11-27 11:15:08 GMT 55.873905 1.553278 35,025 326 463 -192
2022-11-27 11:15:02 GMT 55.862640 1.567183 35,000 326 462 64
2022-11-27 11:14:59 GMT 55.858402 1.572332 35,025 326 462 -64
2022-11-27 11:14:56 GMT 55.854721 1.576871 35,025 326 462 -64
2022-11-27 11:14:53 GMT 55.848579 1.584349 35,000 326 461 -64
2022-11-27 11:14:50 GMT 55.843140 1.591020 34,975 326 461 0
2022-11-27 11:14:47 GMT 55.835449 1.600508 35,000 326 460 0
2022-11-27 11:14:43 GMT 55.829178 1.608249 34,975 326 460 0
2022-11-27 11:14:40 GMT 55.826019 1.612077 34,975 326 460 64
2022-11-27 11:14:37 GMT 55.820602 1.618767 34,975 326 460 64
2022-11-27 11:14:34 GMT 55.813431 1.627558 34,975 326 460 64
2022-11-27 11:14:31 GMT 55.809383 1.632500 34,975 326 460 64
2022-11-27 11:14:28 GMT 55.805565 1.637220 34,975 326 460 64
2022-11-27 11:14:25 GMT 55.800678 1.643229 34,975 326 460 64
2022-11-27 11:14:22 GMT 55.794159 1.651112 34,950 326 461 64
2022-11-27 11:14:18 GMT 55.788387 1.658163 34,950 326 461 64
2022-11-27 11:14:15 GMT 55.782104 1.665974 34,975 326 463 -128
2022-11-27 11:14:12 GMT 55.776798 1.672411 34,975 326 465 -192
2022-11-27 11:14:09 GMT 55.771362 1.679077 34,975 326 464 -192
2022-11-27 11:14:06 GMT 55.760223 1.692581 34,975 326 465 -192
2022-11-27 11:14:03 GMT 55.760223 1.692581 34,975 326 465 -256
2022-11-27 11:13:59 GMT 55.753799 1.700392 34,975 326 466 -256
2022-11-27 11:13:56 GMT 55.749191 1.705971 35,000 326 467 -256
2022-11-27 11:13:51 GMT 55.739777 1.717446 35,000 326 469 -192
2022-11-27 11:13:48 GMT 55.734787 1.723522 35,000 326 469 -64
2022-11-27 11:13:45 GMT 55.729431 1.730014 34,975 326 472 832
2022-11-27 11:13:41 GMT 55.721725 1.739359 34,950 326 472 448
2022-11-27 11:13:38 GMT 55.714882 1.747684 34,925 326 472 576
2022-11-27 11:13:35 GMT 55.710926 1.752405 34,775 326 472 832
2022-11-27 11:13:30 GMT 55.700638 1.764804 34,800 326 473 1408
2022-11-27 11:13:26 GMT 55.694305 1.772404 34,625 326 475 1792
2022-11-27 11:13:22 GMT 55.687225 1.780950 34,575 326 477 1536
2022-11-27 11:13:19 GMT 55.679783 1.789913 34,500 326 477 1536
2022-11-27 11:13:16 GMT 55.676151 1.794291 34,425 326 477 1536
2022-11-27 11:13:12 GMT 55.667400 1.804848 34,125 326 481 1408
2022-11-27 11:13:09 GMT 55.663769 1.809225 34,225 326 479 1536
2022-11-27 11:13:06 GMT 55.659210 1.814742 34,175 326 480 1472
2022-11-27 11:13:03 GMT 55.647659 1.828623 34,025 326 482 1472
2022-11-27 11:13:00 GMT 55.647659 1.828623 34,025 326 481 1408
2022-11-27 11:12:57 GMT 55.641376 1.836176 33,925 326 482 1472
2022-11-27 11:12:54 GMT 55.636253 1.842442 33,875 326 483 1536
2022-11-27 11:12:51 GMT 55.630142 1.849698 33,700 326 485 1408
2022-11-27 11:12:48 GMT 55.624802 1.856174 33,650 326 485 1472
2022-11-27 11:12:44 GMT 55.618698 1.863514 33,600 326 485 1408
2022-11-27 11:12:40 GMT 55.608509 1.875830 33,450 326 487 1216
2022-11-27 11:12:37 GMT 55.602924 1.882524 33,400 326 487 1280
2022-11-27 11:12:34 GMT 55.599014 1.887235 33,375 326 487 1216
2022-11-27 11:12:31 GMT 55.591427 1.896343 33,275 326 488 1152
2022-11-27 11:12:28 GMT 55.587700 1.900892 33,225 326 488 1152
2022-11-27 11:12:25 GMT 55.583038 1.906461 33,175 326 488 1152
2022-11-27 11:12:22 GMT 55.571640 1.920118 33,100 326 493 1664
2022-11-27 11:12:19 GMT 55.571640 1.920118 33,025 326 489 1344
2022-11-27 11:12:16 GMT 55.557861 1.936769 32,975 327 497 -64
2022-11-27 11:12:13 GMT 55.557861 1.936769 31,975 327 497 -64
2022-11-27 11:12:08 GMT 55.551270 1.944663 32,750 326 491 1536
2022-11-27 11:12:05 GMT 55.545639 1.951405 32,550 327 497 0
2022-11-27 11:12:02 GMT 55.538910 1.959478 32,550 326 493 1664
2022-11-27 11:11:57 GMT 55.529652 1.970587 32,425 326 495 1600
2022-11-27 11:11:54 GMT 55.523972 1.977367 32,375 326 495 1472
2022-11-27 11:11:51 GMT 55.518127 1.984364 32,050 326 496 1216
2022-11-27 11:11:48 GMT 55.506981 1.997709 32,050 326 497 448
2022-11-27 11:11:45 GMT 55.506981 1.997709 32,100 326 496 1152
2022-11-27 11:11:42 GMT 55.501465 2.004256 32,050 326 497 960
2022-11-27 11:11:38 GMT 55.493668 2.013588 32,025 326 497 704
2022-11-27 11:11:35 GMT 55.487988 2.020369 31,975 326 497 448
2022-11-27 11:11:31 GMT 55.482101 2.027394 31,975 326 497 128
2022-11-27 11:11:28 GMT 55.469559 2.042375 31,975 326 497 0
2022-11-27 11:11:25 GMT 55.469559 2.042375 31,975 327 497 0
2022-11-27 11:11:22 GMT 55.463688 2.049379 32,000 327 497 -64
2022-11-27 11:11:17 GMT 55.454315 2.060436 31,975 327 499 -128
2022-11-27 11:11:14 GMT 55.448593 2.067178 31,975 327 498 -64
2022-11-27 11:11:11 GMT 55.443855 2.072811 31,975 327 498 -64
2022-11-27 11:11:08 GMT 55.437340 2.080494 32,000 327 501 -128
2022-11-27 11:11:05 GMT 55.430820 2.088235 31,975 326 497 -64
2022-11-27 11:11:02 GMT 55.423370 2.097015 31,975 326 499 -192
2022-11-27 11:10:59 GMT 55.419743 2.101385 32,000 326 500 -128
2022-11-27 11:10:55 GMT 55.411686 2.110873 31,975 327 501 -64
2022-11-27 11:10:51 GMT 55.405380 2.118342 32,050 326 500 -192
2022-11-27 11:10:48 GMT 55.398651 2.126354 31,975 326 500 -64
2022-11-27 11:10:44 GMT 55.389633 2.137002 31,975 327 501 -128
2022-11-27 11:10:41 GMT 55.384872 2.142667 32,000 327 501 -64
2022-11-27 11:10:38 GMT 55.379654 2.148797 32,000 327 501 -128
2022-11-27 11:10:35 GMT 55.371643 2.158329 31,975 326 500 0
2022-11-27 11:10:32 GMT 55.366287 2.164711 32,000 326 500 64
2022-11-27 11:10:28 GMT 55.360153 2.171981 31,975 326 500 -64
2022-11-27 11:10:24 GMT 55.353077 2.180370 31,975 326 498 -64
2022-11-27 11:10:19 GMT 55.341385 2.194196 32,025 326 500 -128
2022-11-27 11:10:15 GMT 55.333946 2.203008 32,000 326 499 -128
2022-11-27 11:10:09 GMT 55.323608 2.215243 31,975 326 499 -128
2022-11-27 11:10:06 GMT 55.319050 2.220653 31,975 326 499 -64
2022-11-27 11:10:03 GMT 55.312950 2.227977 31,975 326 499 -64
2022-11-27 11:10:00 GMT 55.305313 2.237049 31,975 327 494 0
2022-11-27 11:09:57 GMT 55.294830 2.249451 31,975 327 494 0
2022-11-27 11:09:54 GMT 55.288185 2.257358 31,975 327 494 0
2022-11-27 11:09:51 GMT 55.288185 2.257358 31,975 327 494 0
2022-11-27 11:09:46 GMT 55.280224 2.266846 31,975 327 494 0
2022-11-27 11:09:43 GMT 55.274872 2.273088 31,975 327 494 0
2022-11-27 11:09:40 GMT 55.269192 2.279830 31,975 327 494 0
2022-11-27 11:09:37 GMT 55.262558 2.287660 31,975 327 494 0
2022-11-27 11:09:34 GMT 55.255131 2.296392 31,975 327 494 0
2022-11-27 11:09:31 GMT 55.250618 2.301802 31,975 327 494 0
2022-11-27 11:09:28 GMT 55.244938 2.308544 31,975 327 494 0
2022-11-27 11:09:25 GMT 55.239212 2.315202 31,975 327 494 -64
2022-11-27 11:09:20 GMT 55.231625 2.324108 31,975 327 494 -64
2022-11-27 11:09:17 GMT 55.223663 2.333430 31,975 327 494 -64
2022-11-27 11:09:14 GMT 55.219666 2.338068 31,975 327 494 -64
2022-11-27 11:09:10 GMT 55.211655 2.347358 31,975 327 494 0
2022-11-27 11:09:06 GMT 55.203278 2.357133 31,975 327 495 -64
2022-11-27 11:09:02 GMT 55.196617 2.364890 31,975 327 497 -128
2022-11-27 11:08:59 GMT 55.191311 2.371049 31,975 327 496 -128
2022-11-27 11:08:56 GMT 55.186157 2.377086 31,975 327 496 -128
2022-11-27 11:08:53 GMT 55.178970 2.385568 32,000 327 497 -128
2022-11-27 11:08:49 GMT 55.173061 2.392439 32,000 327 498 -64
2022-11-27 11:08:46 GMT 55.166016 2.400755 32,000 327 497 -128
2022-11-27 11:08:42 GMT 55.159328 2.408586 32,025 327 498 -192
2022-11-27 11:08:38 GMT 55.149784 2.419739 31,975 327 498 -128
2022-11-27 11:08:35 GMT 55.146149 2.424020 32,000 327 498 -64
2022-11-27 11:08:32 GMT 55.140427 2.430725 32,000 327 498 -64
2022-11-27 11:08:29 GMT 55.133560 2.438722 31,975 327 493 0
2022-11-27 11:08:25 GMT 55.125763 2.447870 31,975 327 493 0
2022-11-27 11:08:22 GMT 55.120972 2.453506 31,975 327 493 0
2022-11-27 11:08:19 GMT 55.115105 2.460355 31,975 327 493 0
2022-11-27 11:08:16 GMT 55.108212 2.468345 31,975 327 493 0
2022-11-27 11:08:12 GMT 55.101562 2.476124 31,975 327 493 0
2022-11-27 11:08:09 GMT 55.095108 2.483718 31,975 327 493 0
2022-11-27 11:08:06 GMT 55.089638 2.490068 31,975 327 493 0
2022-11-27 11:08:03 GMT 55.084122 2.496482 31,975 327 493 0
2022-11-27 11:08:00 GMT 55.078812 2.502621 31,975 327 493 64
2022-11-27 11:07:57 GMT 55.072723 2.509730 32,000 327 494 -128
2022-11-27 11:07:54 GMT 55.067993 2.515203 31,975 327 493 -64
2022-11-27 11:07:51 GMT 55.062103 2.522089 32,000 327 493 -128
2022-11-27 11:07:48 GMT 55.053406 2.532187 32,000 327 493 -128
2022-11-27 11:07:44 GMT 55.048096 2.538326 31,975 327 493 -128
2022-11-27 11:07:41 GMT 55.040665 2.546914 32,000 327 494 -64
2022-11-27 11:07:37 GMT 55.034042 2.554644 32,025 327 495 -128
2022-11-27 11:07:34 GMT 55.018478 2.572740 32,000 327 494 0
2022-11-27 11:07:29 GMT 55.018478 2.572740 32,000 327 494 -64
2022-11-27 11:07:26 GMT 55.013535 2.578475 31,975 327 494 -64
2022-11-27 11:07:23 GMT 55.008778 2.584034 32,000 327 494 -64
2022-11-27 11:07:20 GMT 55.002502 2.591239 31,975 327 494 -64
2022-11-27 11:07:16 GMT 54.995510 2.599432 32,000 327 494 -128
2022-11-27 11:07:13 GMT 54.990372 2.605375 31,975 327 494 64
2022-11-27 11:07:10 GMT 54.983551 2.613292 31,975 327 494 -64
2022-11-27 11:07:06 GMT 54.976147 2.621904 31,975 327 494 0
2022-11-27 11:07:03 GMT 54.971375 2.627429 31,975 327 494 0
2022-11-27 11:07:00 GMT 54.964741 2.635054 31,975 327 494 -64
2022-11-27 11:06:57 GMT 54.957523 2.643377 32,000 327 494 -128
2022-11-27 11:06:53 GMT 54.949516 2.652532 32,000 327 494 -128
2022-11-27 11:06:49 GMT 54.944000 2.658934 32,000 327 493 -128
2022-11-27 11:06:46 GMT 54.938324 2.665558 32,000 327 494 -64
2022-11-27 11:06:41 GMT 54.927872 2.677585 31,975 327 495 -64
2022-11-27 11:06:37 GMT 54.919693 2.687046 32,000 327 493 -64
2022-11-27 11:06:34 GMT 54.915482 2.691893 31,975 327 495 0
2022-11-27 11:06:31 GMT 54.902161 2.707161 32,000 327 495 -64
2022-11-27 11:06:28 GMT 54.902161 2.707161 32,000 327 495 -64
2022-11-27 11:06:24 GMT 54.897377 2.712624 32,000 327 495 -128
2022-11-27 11:06:21 GMT 54.888794 2.722509 32,000 327 494 -64
2022-11-27 11:06:17 GMT 54.883118 2.729052 32,000 327 493 64
2022-11-27 11:06:14 GMT 54.876617 2.736484 32,000 327 494 -64
2022-11-27 11:06:10 GMT 54.868652 2.745693 32,000 327 494 -64
2022-11-27 11:06:06 GMT 54.860687 2.754903 32,000 327 493 -128
2022-11-27 11:06:01 GMT 54.853455 2.763223 32,000 327 493 0
2022-11-27 11:05:58 GMT 54.847569 2.770053 31,975 327 494 64
2022-11-27 11:05:55 GMT 54.841324 2.777279 31,975 327 493 -64
2022-11-27 11:05:52 GMT 54.835045 2.784452 32,000 327 495 -192
2022-11-27 11:05:49 GMT 54.817169 2.804843 31,975 327 493 64
2022-11-27 11:05:43 GMT 54.817169 2.804843 31,975 327 493 -64
2022-11-27 11:05:39 GMT 54.809208 2.813998 31,975 327 495 64
2022-11-27 11:05:36 GMT 54.805763 2.817910 32,000 327 493 -64
2022-11-27 11:05:32 GMT 54.797802 2.826982 32,000 327 493 -128
2022-11-27 11:05:29 GMT 54.791153 2.834553 32,000 327 493 -128
2022-11-27 11:05:26 GMT 54.783745 2.843045 31,975 327 495 -64
2022-11-27 11:05:22 GMT 54.778610 2.848933 32,000 327 494 -192
2022-11-27 11:05:19 GMT 54.770386 2.858360 32,000 327 495 64
2022-11-27 11:05:12 GMT 54.758980 2.871427 32,000 327 496 -64
2022-11-27 11:05:08 GMT 54.751923 2.879549 32,000 327 496 -64
2022-11-27 11:05:06 GMT 54.747898 2.884161 31,975 327 495 0
2022-11-27 11:05:03 GMT 54.736027 2.897644 32,000 327 495 0
2022-11-27 11:05:00 GMT 54.731464 2.902888 31,975 327 495 -64
2022-11-27 11:04:54 GMT 54.724575 2.910711 31,975 327 495 -64
2022-11-27 11:04:51 GMT 54.713123 2.923778 32,000 327 494 -64
2022-11-27 11:04:48 GMT 54.713123 2.923778 31,975 327 495 -64
2022-11-27 11:04:44 GMT 54.705490 2.932434 32,000 327 494 -64
2022-11-27 11:04:41 GMT 54.698822 2.939974 32,000 327 494 -64
2022-11-27 11:04:38 GMT 54.695576 2.943670 32,000 327 494 -64
2022-11-27 11:04:33 GMT 54.685287 2.955322 32,000 327 494 -64
2022-11-27 11:04:29 GMT 54.678024 2.963562 31,975 327 494 -64
2022-11-27 11:04:25 GMT 54.669273 2.973550 32,000 327 494 -64
2022-11-27 11:04:21 GMT 54.662201 2.981576 31,975 327 494 -64
2022-11-27 11:04:16 GMT 54.650978 2.994274 31,975 327 494 -64
2022-11-27 11:04:13 GMT 54.645996 2.999933 31,975 327 494 -64
2022-11-27 11:04:09 GMT 54.637989 3.009005 31,975 327 494 -64
2022-11-27 11:04:05 GMT 54.631348 3.016555 32,000 327 494 -64
2022-11-27 11:04:02 GMT 54.625992 3.022614 32,000 327 494 -64
2022-11-27 11:03:59 GMT 54.619324 3.030146 32,000 327 494 -64
2022-11-27 11:03:56 GMT 54.615505 3.034391 32,000 327 490 -64
2022-11-27 11:03:53 GMT 54.609406 3.041299 32,000 327 493 -64
2022-11-27 11:03:50 GMT 54.603470 3.047979 32,000 327 493 -64
2022-11-27 11:03:47 GMT 54.597794 3.054442 32,000 327 493 -64
2022-11-27 11:03:44 GMT 54.588829 3.064603 31,975 327 493 -64
2022-11-27 11:03:41 GMT 54.584427 3.069548 31,975 327 493 -64
2022-11-27 11:03:36 GMT 54.576462 3.078595 31,975 327 492 -64
2022-11-27 11:03:33 GMT 54.570740 3.084977 32,000 327 492 -64
2022-11-27 11:03:30 GMT 54.565601 3.090820 32,000 327 491 -64
2022-11-27 11:03:27 GMT 54.553619 3.104284 31,975 327 492 -64
2022-11-27 11:03:24 GMT 54.553619 3.104284 31,975 327 491 64
2022-11-27 11:03:20 GMT 54.545288 3.113735 32,000 327 491 -64
2022-11-27 11:03:15 GMT 54.533710 3.126776 32,000 327 491 -64
2022-11-27 11:03:11 GMT 54.529724 3.131265 32,000 327 491 -64
2022-11-27 11:03:08 GMT 54.522308 3.139593 32,000 327 491 -64
2022-11-27 11:03:06 GMT 54.518738 3.143625 31,975 327 490 0
2022-11-27 11:03:03 GMT 54.513016 3.150006 32,000 327 490 0
2022-11-27 11:03:00 GMT 54.507549 3.156239 31,975 327 490 0
2022-11-27 11:02:57 GMT 54.502617 3.161732 31,975 327 491 0
2022-11-27 11:02:55 GMT 54.499008 3.165840 31,975 327 490 -64
2022-11-27 11:02:52 GMT 54.492599 3.173029 31,975 327 489 -64
2022-11-27 11:02:49 GMT 54.488232 3.177962 31,975 327 489 -64
2022-11-27 11:02:44 GMT 54.477661 3.189864 32,000 327 489 -64
2022-11-27 11:02:41 GMT 54.470821 3.197521 32,000 327 489 -64
2022-11-27 11:02:34 GMT 54.458130 3.211805 32,000 327 489 -64
2022-11-27 11:02:31 GMT 54.452454 3.218106 32,000 327 490 0
2022-11-27 11:02:28 GMT 54.446194 3.225153 31,975 327 490 0
2022-11-27 11:02:23 GMT 54.438034 3.234262 31,975 327 490 0
2022-11-27 11:02:20 GMT 54.432358 3.240644 31,975 327 490 -64
2022-11-27 11:02:17 GMT 54.420593 3.253811 32,000 327 490 -64
2022-11-27 11:02:14 GMT 54.416794 3.258012 31,975 327 490 -64
2022-11-27 11:02:12 GMT 54.416794 3.258012 31,975 327 490 -64
2022-11-27 11:02:09 GMT 54.406540 3.269483 32,000 328 492 -64
2022-11-27 11:02:06 GMT 54.406540 3.269483 31,975 327 491 0
2022-11-27 11:02:03 GMT 54.400131 3.276753 31,975 327 490 -64
2022-11-27 11:01:59 GMT 54.393311 3.284347 32,000 327 491 64
2022-11-27 11:01:56 GMT 54.387589 3.290728 32,000 327 491 -64
2022-11-27 11:01:52 GMT 54.378479 3.300907 31,975 327 490 -64
2022-11-27 11:01:49 GMT 54.372803 3.307289 32,000 327 491 0
2022-11-27 11:01:46 GMT 54.368034 3.312544 31,975 327 491 0
2022-11-27 11:01:43 GMT 54.361404 3.320052 32,000 327 491 0
2022-11-27 11:01:39 GMT 54.353275 3.329107 32,000 327 491 -64
2022-11-27 11:01:36 GMT 54.349274 3.333624 31,975 327 491 -64
2022-11-27 11:01:32 GMT 54.340706 3.343090 31,975 327 491 -64
2022-11-27 11:01:28 GMT 54.333298 3.351396 31,975 327 491 -64
2022-11-27 11:01:25 GMT 54.328556 3.356656 32,000 327 491 -64
2022-11-27 11:01:22 GMT 54.323044 3.362867 32,000 328 492 -64
2022-11-27 11:01:19 GMT 54.316730 3.369806 32,000 328 492 -64
2022-11-27 11:01:16 GMT 54.310822 3.376357 31,975 328 492 -64
2022-11-27 11:01:13 GMT 54.303589 3.384435 32,000 328 492 -64
2022-11-27 11:01:09 GMT 54.296528 3.392278 32,000 328 493 -64
2022-11-27 11:01:06 GMT 54.291176 3.398188 32,000 328 493 -64
2022-11-27 11:01:04 GMT 54.287777 3.402016 31,975 327 493 -64
2022-11-27 11:01:02 GMT 54.284500 3.405600 32,000 327 493 -64
2022-11-27 11:00:58 GMT 54.276279 3.414729 32,000 327 493 -64
2022-11-27 11:00:56 GMT 54.272461 3.418929 32,000 327 493 -64
2022-11-27 11:00:53 GMT 54.265945 3.426200 31,975 327 493 -64
2022-11-27 11:00:50 GMT 54.261200 3.431501 31,975 328 494 -64
2022-11-27 11:00:47 GMT 54.255432 3.437857 32,000 328 494 -64
2022-11-27 11:00:44 GMT 54.248932 3.445077 32,000 328 494 -64
2022-11-27 11:00:41 GMT 54.238220 3.456927 31,975 328 494 -64
2022-11-27 11:00:38 GMT 54.238220 3.456927 31,975 328 494 -64
2022-11-27 11:00:33 GMT 54.227097 3.469247 31,975 328 494 -64
2022-11-27 11:00:30 GMT 54.222153 3.474740 31,975 328 494 -64
2022-11-27 11:00:27 GMT 54.216599 3.480889 31,975 328 494 -64
2022-11-27 11:00:24 GMT 54.210251 3.487845 31,975 328 494 -64
2022-11-27 11:00:21 GMT 54.205673 3.492946 32,000 328 494 -64
2022-11-27 11:00:18 GMT 54.192066 3.507951 32,000 328 494 -64
2022-11-27 11:00:15 GMT 54.192066 3.507951 32,000 328 494 -64
2022-11-27 11:00:11 GMT 54.185921 3.514736 32,000 328 494 -64
2022-11-27 11:00:08 GMT 54.178436 3.523002 31,975 328 494 -64
2022-11-27 11:00:04 GMT 54.171936 3.530221 32,000 328 494 -64
2022-11-27 11:00:02 GMT 54.168869 3.533595 31,975 328 494 -64
2022-11-27 10:59:59 GMT 54.162369 3.540737 31,975 328 494 -64
2022-11-27 10:59:56 GMT 54.156780 3.546888 32,000 328 494 -64
2022-11-27 10:59:52 GMT 54.147812 3.556824 32,000 328 494 -64
2022-11-27 10:59:45 GMT 54.136322 3.569458 31,975 328 493 -64
2022-11-27 10:59:41 GMT 54.128475 3.578069 32,000 328 493 -64
2022-11-27 10:59:39 GMT 54.124611 3.582270 31,975 328 493 -64
2022-11-27 10:59:37 GMT 54.121586 3.585582 31,975 328 493 -64
2022-11-27 10:59:34 GMT 54.114120 3.593785 32,000 328 493 -64
2022-11-27 10:59:30 GMT 54.106644 3.601900 32,000 328 492 -64
2022-11-27 10:59:27 GMT 54.100918 3.608201 32,000 328 492 -64
2022-11-27 10:59:24 GMT 54.093655 3.616198 32,000 328 492 -64
2022-11-27 10:59:20 GMT 54.087341 3.623134 32,000 328 492 -64
2022-11-27 10:59:18 GMT 54.084854 3.625892 32,000 328 492 -64
2022-11-27 10:59:15 GMT 54.079128 3.632112 32,000 328 492 -64
2022-11-27 10:59:13 GMT 54.073402 3.638413 32,000 328 492 -64
2022-11-27 10:59:06 GMT 54.061581 3.651338 32,000 328 491 -64
2022-11-27 10:59:03 GMT 54.056225 3.657236 31,975 328 491 -64
2022-11-27 10:59:00 GMT 54.048386 3.665745 32,000 328 491 -64
2022-11-27 10:58:57 GMT 54.042866 3.671776 32,000 328 491 -64
2022-11-27 10:58:54 GMT 54.038864 3.676182 31,975 328 491 -64
2022-11-27 10:58:52 GMT 54.035431 3.679949 32,000 328 489 0
2022-11-27 10:58:49 GMT 54.029552 3.686398 31,975 328 489 -64
2022-11-27 10:58:45 GMT 54.020966 3.695801 32,000 328 491 -64
2022-11-27 10:58:42 GMT 54.016022 3.701215 32,000 328 490 -64
2022-11-27 10:58:39 GMT 54.010139 3.707643 32,000 328 489 -64
2022-11-27 10:58:36 GMT 54.003296 3.715156 31,975 328 489 -64
2022-11-27 10:58:33 GMT 53.998901 3.719892 32,000 328 489 -64
2022-11-27 10:58:30 GMT 53.993752 3.725496 32,000 328 489 -64
2022-11-27 10:58:27 GMT 53.986164 3.733817 31,975 328 489 0
2022-11-27 10:58:23 GMT 53.980064 3.740441 32,000 328 489 -64
2022-11-27 10:58:20 GMT 53.974388 3.746661 31,975 328 489 -64
2022-11-27 10:58:16 GMT 53.966217 3.755598 32,000 328 489 0
2022-11-27 10:58:13 GMT 53.955765 3.766937 32,000 328 489 0
2022-11-27 10:58:10 GMT 53.955765 3.766937 32,000 328 489 0
2022-11-27 10:58:07 GMT 53.943054 3.780788 31,975 328 489 0
2022-11-27 10:58:04 GMT 53.943054 3.780788 31,975 328 489 0
2022-11-27 10:58:01 GMT 53.938110 3.786203 31,975 328 488 0
2022-11-27 10:57:58 GMT 53.931244 3.793658 31,975 328 489 0
2022-11-27 10:57:54 GMT 53.924622 3.800866 31,975 328 488 0
2022-11-27 10:57:51 GMT 53.917778 3.808298 31,975 328 489 -64
2022-11-27 10:57:48 GMT 53.913216 3.813225 31,975 328 489 -64
2022-11-27 10:57:44 GMT 53.905628 3.821465 31,975 328 489 -64
2022-11-27 10:57:38 GMT 53.889496 3.838937 31,975 328 488 -128
2022-11-27 10:57:35 GMT 53.889496 3.838937 32,000 328 489 -128
2022-11-27 10:57:32 GMT 53.877319 3.852121 31,975 328 489 -128
2022-11-27 10:57:29 GMT 53.877319 3.852121 32,000 328 489 -64
2022-11-27 10:57:26 GMT 53.871231 3.858712 32,000 328 489 -64
2022-11-27 10:57:23 GMT 53.864777 3.865775 32,000 328 489 -64
2022-11-27 10:57:21 GMT 53.861916 3.868803 32,000 328 489 -64
2022-11-27 10:57:18 GMT 53.857132 3.874015 32,000 328 489 -64
2022-11-27 10:57:16 GMT 53.851456 3.880136 32,000 328 489 -64
2022-11-27 10:57:13 GMT 53.845734 3.886335 31,975 328 488 -64
2022-11-27 10:57:10 GMT 53.839279 3.893319 31,975 328 488 0
2022-11-27 10:57:06 GMT 53.831635 3.901559 31,975 328 488 -64
2022-11-27 10:57:03 GMT 53.828613 3.904776 32,000 328 487 -64
2022-11-27 10:57:01 GMT 53.818726 3.915449 32,000 328 487 -64
2022-11-27 10:56:58 GMT 53.818726 3.915449 31,975 328 487 0
2022-11-27 10:56:55 GMT 53.812477 3.922281 31,975 328 488 0
2022-11-27 10:56:52 GMT 53.799538 3.936175 31,975 328 488 0
2022-11-27 10:56:48 GMT 53.799538 3.936175 31,975 328 488 -64
2022-11-27 10:56:45 GMT 53.793114 3.943122 31,975 328 488 0
2022-11-27 10:56:42 GMT 53.788551 3.948050 32,000 328 488 0
2022-11-27 10:56:40 GMT 53.783798 3.953116 32,000 328 487 -64
2022-11-27 10:56:37 GMT 53.778263 3.959036 32,000 328 487 -64
2022-11-27 10:56:34 GMT 53.772583 3.965176 31,975 328 487 -64
2022-11-27 10:56:31 GMT 53.767456 3.970694 31,975 328 487 -64
2022-11-27 10:56:28 GMT 53.760059 3.978666 32,000 328 487 0
2022-11-27 10:56:25 GMT 53.754593 3.984584 32,000 328 486 -64
2022-11-27 10:56:22 GMT 53.750610 3.988845 31,975 328 486 -64
2022-11-27 10:56:20 GMT 53.745304 3.994580 32,000 328 486 -64
2022-11-27 10:56:16 GMT 53.739578 4.000639 31,975 328 486 -64
2022-11-27 10:56:13 GMT 53.732780 4.007990 32,000 328 486 -64
2022-11-27 10:56:11 GMT 53.728638 4.012433 32,000 328 486 -64
2022-11-27 10:56:08 GMT 53.720490 4.021153 31,975 328 486 -64
2022-11-27 10:56:03 GMT 53.709690 4.032709 31,975 328 485 -64
2022-11-27 10:56:01 GMT 53.709690 4.032709 31,975 328 486 0
2022-11-27 10:55:58 GMT 53.704060 4.038849 31,975 328 485 -64
2022-11-27 10:55:55 GMT 53.699123 4.044100 31,975 328 485 -64
2022-11-27 10:55:52 GMT 53.693443 4.050158 31,975 328 485 -64
2022-11-27 10:55:49 GMT 53.687988 4.056074 31,975 328 484 64
2022-11-27 10:55:46 GMT 53.679852 4.064780 32,000 328 484 64
2022-11-27 10:55:43 GMT 53.675335 4.069627 31,975 328 484 -64
2022-11-27 10:55:40 GMT 53.670639 4.074672 31,975 328 484 -64
2022-11-27 10:55:37 GMT 53.665558 4.080128 31,975 328 484 -64
2022-11-27 10:55:35 GMT 53.660110 4.086051 31,975 333 488 0
2022-11-27 10:55:31 GMT 53.649536 4.097351 31,975 329 485 -128
2022-11-27 10:55:29 GMT 53.649536 4.097351 31,975 328 484 -64
2022-11-27 10:55:26 GMT 53.644592 4.102530 31,975 328 484 -64
2022-11-27 10:55:23 GMT 53.637211 4.110422 32,000 328 484 -64
2022-11-27 10:55:20 GMT 53.632507 4.115479 32,000 328 485 -64
2022-11-27 10:55:17 GMT 53.626831 4.121521 32,000 329 485 -64
2022-11-27 10:55:14 GMT 53.620960 4.127709 31,975 328 485 -64
2022-11-27 10:55:11 GMT 53.614910 4.134171 31,975 328 485 -64
2022-11-27 10:55:09 GMT 53.613190 4.136039 32,000 328 484 -64
2022-11-27 10:55:06 GMT 53.604717 4.145077 31,950 328 485 0
2022-11-27 10:55:02 GMT 53.597717 4.152597 32,000 330 487 -64
2022-11-27 10:54:59 GMT 53.591263 4.159345 32,000 331 487 -64
2022-11-27 10:54:56 GMT 53.587257 4.163576 31,975 329 485 -64
2022-11-27 10:54:54 GMT 53.583618 4.167271 32,000 329 486 -64
2022-11-27 10:54:51 GMT 53.577717 4.173431 32,000 329 486 -64
2022-11-27 10:54:48 GMT 53.572735 4.178521 32,000 330 487 -128
2022-11-27 10:54:45 GMT 53.566772 4.184535 32,000 330 486 -128
2022-11-27 10:54:42 GMT 53.560024 4.191365 32,000 330 486 -64
2022-11-27 10:54:40 GMT 53.556335 4.194972 32,000 330 487 -64
2022-11-27 10:54:37 GMT 53.549789 4.201564 32,000 331 487 -64
2022-11-27 10:54:34 GMT 53.544342 4.206900 31,975 330 487 -64
2022-11-27 10:54:31 GMT 53.539673 4.211452 31,975 331 488 0
2022-11-27 10:54:28 GMT 53.533035 4.217808 32,000 331 488 0
2022-11-27 10:54:25 GMT 53.527130 4.223458 31,975 331 487 0
2022-11-27 10:54:22 GMT 53.520271 4.229898 31,975 331 487 0
2022-11-27 10:54:17 GMT 53.511429 4.238211 32,000 331 487 0
2022-11-27 10:54:14 GMT 53.504745 4.244411 31,975 332 487 -64
2022-11-27 10:54:11 GMT 53.500763 4.248021 31,975 332 487 -64
2022-11-27 10:54:09 GMT 53.496048 4.252337 31,975 332 488 0
2022-11-27 10:54:06 GMT 53.490246 4.257525 32,000 332 488 0
2022-11-27 10:54:04 GMT 53.484703 4.262453 31,975 333 488 0
2022-11-27 10:54:01 GMT 53.480530 4.266227 32,000 333 488 -64
2022-11-27 10:53:59 GMT 53.477325 4.269052 31,975 333 488 0
2022-11-27 10:53:56 GMT 53.469574 4.275944 31,975 332 488 -128
2022-11-27 10:53:54 GMT 53.465618 4.279498 31,975 333 488 64
2022-11-27 10:53:51 GMT 53.460030 4.284426 31,975 333 488 -128
2022-11-27 10:53:49 GMT 53.455856 4.288199 31,975 332 488 -64
2022-11-27 10:53:46 GMT 53.450069 4.293312 32,000 333 488 -128
2022-11-27 10:53:43 GMT 53.443317 4.299370 31,975 333 489 -64
2022-11-27 10:53:40 GMT 53.439316 4.302925 32,000 332 488 -64
2022-11-27 10:53:38 GMT 53.434753 4.306955 31,975 332 488 -64
2022-11-27 10:53:35 GMT 53.427399 4.313588 32,000 332 488 -128
2022-11-27 10:53:33 GMT 53.423996 4.316607 32,000 332 488 -192
2022-11-27 10:53:30 GMT 53.419437 4.320697 32,000 332 489 -128
2022-11-27 10:53:27 GMT 53.406052 4.332537 32,000 333 489 -64
2022-11-27 10:53:24 GMT 53.406052 4.332537 32,000 333 488 -64
2022-11-27 10:53:20 GMT 53.397884 4.339761 32,000 332 489 0
2022-11-27 10:53:17 GMT 53.391880 4.345093 31,975 332 489 -64
2022-11-27 10:53:14 GMT 53.386917 4.349487 31,975 332 488 64
2022-11-27 10:53:11 GMT 53.379364 4.356236 31,975 332 488 0
2022-11-27 10:53:08 GMT 53.374969 4.360160 31,975 333 488 0
2022-11-27 10:53:05 GMT 53.369019 4.365496 31,975 332 487 64
2022-11-27 10:53:03 GMT 53.357708 4.375548 32,000 333 488 0
2022-11-27 10:53:00 GMT 53.357708 4.375548 32,000 332 487 0
2022-11-27 10:52:58 GMT 53.354691 4.378209 31,975 333 486 0
2022-11-27 10:52:55 GMT 53.349331 4.382979 31,975 333 486 0
2022-11-27 10:52:53 GMT 53.344391 4.387390 32,000 333 486 -64
2022-11-27 10:52:50 GMT 53.334667 4.395985 31,975 333 486 -64
2022-11-27 10:52:48 GMT 53.334667 4.395985 31,975 333 486 -128
2022-11-27 10:52:45 GMT 53.328873 4.401045 32,000 333 486 -128
2022-11-27 10:52:43 GMT 53.323914 4.405437 32,000 333 486 -64
2022-11-27 10:52:40 GMT 53.318161 4.410540 32,000 333 486 -64
2022-11-27 10:52:37 GMT 53.313206 4.414969 31,975 333 486 -128
2022-11-27 10:52:33 GMT 53.304245 4.422782 32,000 333 487 -64
2022-11-27 10:52:30 GMT 53.299118 4.427333 32,000 333 487 -128
2022-11-27 10:52:28 GMT 53.294537 4.431368 32,000 333 486 0
2022-11-27 10:52:25 GMT 53.288773 4.436436 31,975 333 486 -64
2022-11-27 10:52:23 GMT 53.284378 4.440281 32,000 333 486 -64
2022-11-27 10:52:20 GMT 53.279251 4.444833 32,000 333 486 -64
2022-11-27 10:52:17 GMT 53.272064 4.451111 32,000 333 486 0
2022-11-27 10:52:15 GMT 53.268494 4.454250 32,000 333 485 0
2022-11-27 10:52:13 GMT 53.264744 4.457622 32,000 333 485 0
2022-11-27 10:52:09 GMT 53.257252 4.464246 31,975 333 485 0
2022-11-27 10:52:06 GMT 53.251709 4.469174 32,000 332 484 0
2022-11-27 10:52:04 GMT 53.247940 4.472534 31,975 332 484 -64
2022-11-27 10:52:01 GMT 53.241211 4.478498 31,975 333 484 0
2022-11-27 10:51:58 GMT 53.234718 4.484280 31,975 333 484 0
2022-11-27 10:51:55 GMT 53.227798 4.490348 32,000 333 484 -64
2022-11-27 10:51:52 GMT 53.223450 4.494193 31,975 333 484 -64
2022-11-27 10:51:49 GMT 53.217728 4.499224 31,975 333 484 -64
2022-11-27 10:51:46 GMT 53.212784 4.503531 31,975 333 484 -64
2022-11-27 10:51:43 GMT 53.205067 4.510292 32,000 333 484 -64
2022-11-27 10:51:40 GMT 53.200317 4.514411 32,000 333 484 -64
2022-11-27 10:51:37 GMT 53.191612 4.522086 31,975 333 484 -64
2022-11-27 10:51:34 GMT 53.188446 4.524832 31,975 333 484 0
2022-11-27 10:51:31 GMT 53.182709 4.529899 31,975 333 484 -64
2022-11-27 10:51:28 GMT 53.175613 4.536098 31,975 333 483 -64
2022-11-27 10:51:25 GMT 53.170292 4.540746 31,975 333 483 -64
2022-11-27 10:51:22 GMT 53.157440 4.552028 32,000 333 483 -64
2022-11-27 10:51:19 GMT 53.157440 4.552028 32,000 333 483 -64
2022-11-27 10:51:16 GMT 53.146969 4.561184 32,000 333 482 0
2022-11-27 10:51:13 GMT 53.146969 4.561184 32,000 333 483 -64
2022-11-27 10:51:10 GMT 53.138729 4.568455 31,975 333 483 -64
2022-11-27 10:51:07 GMT 53.132996 4.573530 32,000 333 483 0
2022-11-27 10:51:04 GMT 53.128693 4.577297 31,975 333 482 -64
2022-11-27 10:51:01 GMT 53.123363 4.581945 31,975 333 482 0
2022-11-27 10:50:58 GMT 53.117825 4.586792 32,000 333 482 -64
2022-11-27 10:50:55 GMT 53.111961 4.591962 32,000 333 482 -64
2022-11-27 10:50:52 GMT 53.104465 4.598586 31,975 333 481 0
2022-11-27 10:50:49 GMT 53.098927 4.603352 31,950 333 482 -64
2022-11-27 10:50:47 GMT 53.096180 4.605776 32,000 333 482 0
2022-11-27 10:50:44 GMT 53.083611 4.616769 31,975 333 481 -64
2022-11-27 10:50:41 GMT 53.083611 4.616769 31,975 333 481 -64
2022-11-27 10:50:38 GMT 53.071976 4.626923 32,000 333 479 -64
2022-11-27 10:50:35 GMT 53.071976 4.626923 32,000 333 481 -64
2022-11-27 10:50:32 GMT 53.066483 4.631729 31,975 333 481 -64
2022-11-27 10:50:29 GMT 53.059589 4.637721 32,000 333 481 -64
2022-11-27 10:50:27 GMT 53.054672 4.642029 32,000 333 481 0
2022-11-27 10:50:24 GMT 53.049767 4.646354 32,000 333 481 -128
2022-11-27 10:50:21 GMT 53.044830 4.650650 31,975 333 481 -64
2022-11-27 10:50:18 GMT 53.039524 4.655221 32,000 333 481 -64
2022-11-27 10:50:16 GMT 53.034622 4.659576 31,975 333 479 -64
2022-11-27 10:50:13 GMT 53.027161 4.666061 31,975 333 481 -64
2022-11-27 10:50:10 GMT 53.017132 4.674840 31,975 333 481 -64
2022-11-27 10:50:07 GMT 53.017132 4.674840 31,975 333 479 -64
2022-11-27 10:50:04 GMT 53.010635 4.680481 32,000 333 480 -64
2022-11-27 10:50:01 GMT 53.003952 4.686279 32,000 333 480 0
2022-11-27 10:49:58 GMT 52.998653 4.690848 32,000 333 480 -64
2022-11-27 10:49:55 GMT 52.993744 4.695129 32,000 333 479 0
2022-11-27 10:49:52 GMT 52.986504 4.701521 31,975 333 479 -64
2022-11-27 10:49:49 GMT 52.981201 4.706116 32,000 333 479 -64
2022-11-27 10:49:46 GMT 52.976898 4.709854 32,000 333 479 -64
2022-11-27 10:49:43 GMT 52.969849 4.716034 31,975 333 479 0
2022-11-27 10:49:41 GMT 52.959503 4.725063 32,000 333 478 0
2022-11-27 10:49:38 GMT 52.954605 4.729309 32,000 333 478 -64
2022-11-27 10:49:35 GMT 52.954605 4.729309 32,000 333 478 0
2022-11-27 10:49:32 GMT 52.946934 4.735892 31,975 333 478 -64
2022-11-27 10:49:29 GMT 52.942841 4.739456 32,000 333 478 0
2022-11-27 10:49:26 GMT 52.936363 4.745074 31,975 333 478 -64
2022-11-27 10:49:23 GMT 52.930710 4.749985 31,975 333 478 0
2022-11-27 10:49:21 GMT 52.927010 4.753156 32,000 333 479 -64
2022-11-27 10:49:18 GMT 52.919559 4.759591 32,000 333 478 -64
2022-11-27 10:49:15 GMT 52.914642 4.763794 32,000 333 478 -64
2022-11-27 10:49:12 GMT 52.908993 4.768694 32,000 333 480 -64
2022-11-27 10:49:09 GMT 52.903290 4.773636 31,975 333 478 -128
2022-11-27 10:49:07 GMT 52.899399 4.776993 32,000 333 478 -128
2022-11-27 10:49:04 GMT 52.891937 4.783401 32,000 333 478 -64
2022-11-27 10:49:01 GMT 52.887222 4.787445 32,000 333 479 -64
2022-11-27 10:48:58 GMT 52.881153 4.792707 31,975 333 479 -64
2022-11-27 10:48:55 GMT 52.877243 4.796082 31,975 333 479 -64
2022-11-27 10:48:52 GMT 52.863136 4.808323 32,000 333 479 -64
2022-11-27 10:48:49 GMT 52.863136 4.808323 32,000 333 479 -64
2022-11-27 10:48:47 GMT 52.860020 4.811070 32,000 333 480 -64
2022-11-27 10:48:45 GMT 52.854107 4.816171 32,000 333 480 -64
2022-11-27 10:48:42 GMT 52.849407 4.820173 31,975 333 480 0
2022-11-27 10:48:39 GMT 52.843121 4.825588 32,000 333 480 0
2022-11-27 10:48:35 GMT 52.836838 4.831002 32,000 333 479 0
2022-11-27 10:48:32 GMT 52.830925 4.836103 31,975 333 479 0
2022-11-27 10:48:29 GMT 52.824268 4.841832 31,975 333 479 -64
2022-11-27 10:48:27 GMT 52.817192 4.847953 31,975 333 479 -64
2022-11-27 10:48:22 GMT 52.810535 4.853760 32,000 333 479 -64
2022-11-27 10:48:20 GMT 52.806015 4.857635 32,000 333 479 -64
2022-11-27 10:48:17 GMT 52.800522 4.862366 32,000 333 479 -64
2022-11-27 10:48:14 GMT 52.793472 4.868469 32,000 333 479 -64
2022-11-27 10:48:11 GMT 52.787567 4.873581 32,000 333 479 -64
2022-11-27 10:48:08 GMT 52.784821 4.875946 32,000 333 479 -64
2022-11-27 10:48:06 GMT 52.778915 4.880981 32,000 333 479 -64
2022-11-27 10:48:04 GMT 52.774979 4.884415 32,000 333 480 -64
2022-11-27 10:48:01 GMT 52.769119 4.889450 31,975 333 480 -64
2022-11-27 10:47:58 GMT 52.765182 4.892883 31,975 333 480 -64
2022-11-27 10:47:56 GMT 52.760258 4.897077 32,000 333 480 -64
2022-11-27 10:47:53 GMT 52.753971 4.902492 32,000 333 479 0
2022-11-27 10:47:50 GMT 52.748703 4.907074 32,000 333 479 -64
2022-11-27 10:47:47 GMT 52.741608 4.913101 31,975 333 479 -64
2022-11-27 10:47:44 GMT 52.734970 4.918823 32,000 333 478 -128
2022-11-27 10:47:41 GMT 52.725128 4.927216 32,000 333 478 -128
2022-11-27 10:47:38 GMT 52.725128 4.927216 32,000 333 478 -64
2022-11-27 10:47:36 GMT 52.720222 4.931449 32,000 333 478 0
2022-11-27 10:47:33 GMT 52.713776 4.936905 31,975 333 474 -64
2022-11-27 10:47:30 GMT 52.707092 4.942627 31,975 333 477 -64
2022-11-27 10:47:27 GMT 52.701599 4.947357 32,000 333 477 -64
2022-11-27 10:47:24 GMT 52.698669 4.949812 32,000 333 477 -64
2022-11-27 10:47:21 GMT 52.685577 4.961014 32,000 333 477 -64
2022-11-27 10:47:18 GMT 52.677956 4.967547 31,975 333 475 -64
2022-11-27 10:47:15 GMT 52.677956 4.967547 32,000 333 476 -64
2022-11-27 10:47:11 GMT 52.671715 4.972883 31,975 333 476 -64
2022-11-27 10:47:09 GMT 52.667805 4.976257 31,975 333 476 0
2022-11-27 10:47:06 GMT 52.658401 4.984262 31,975 333 476 -64
2022-11-27 10:47:04 GMT 52.651371 4.990226 32,000 333 476 -64
2022-11-27 10:47:01 GMT 52.651371 4.990226 31,975 333 475 -64
2022-11-27 10:46:57 GMT 52.643597 4.996896 32,000 333 475 0
2022-11-27 10:46:54 GMT 52.638153 5.001526 31,975 333 475 -64
2022-11-27 10:46:51 GMT 52.632656 5.006156 32,000 333 474 -64
2022-11-27 10:46:48 GMT 52.626049 5.011806 32,000 333 475 -64
2022-11-27 10:46:46 GMT 52.615948 5.020438 31,975 333 475 -64
2022-11-27 10:46:43 GMT 52.615948 5.020438 32,000 333 475 -64
2022-11-27 10:46:40 GMT 52.612038 5.023812 31,975 333 475 -64
2022-11-27 10:46:38 GMT 52.606960 5.028128 31,975 333 475 -64
2022-11-27 10:46:36 GMT 52.602680 5.031738 31,975 333 475 -64
2022-11-27 10:46:34 GMT 52.598190 5.035553 31,975 333 475 -64
2022-11-27 10:46:31 GMT 52.592377 5.040512 32,000 333 474 -64
2022-11-27 10:46:28 GMT 52.587502 5.044686 32,000 333 475 -64
2022-11-27 10:46:26 GMT 52.583591 5.047982 32,000 333 475 -64
2022-11-27 10:46:24 GMT 52.579514 5.051498 32,000 333 474 0
2022-11-27 10:46:21 GMT 52.567253 5.061872 32,000 333 474 0
2022-11-27 10:46:18 GMT 52.561806 5.066581 32,000 333 474 -64
2022-11-27 10:46:15 GMT 52.557152 5.070504 32,000 333 474 -64
2022-11-27 10:46:12 GMT 52.557152 5.070504 32,000 333 475 -64
2022-11-27 10:46:09 GMT 52.544495 5.081329 31,975 333 474 0
2022-11-27 10:46:06 GMT 52.538681 5.086288 31,975 333 472 -64
2022-11-27 10:46:03 GMT 52.538681 5.086288 32,000 333 474 -64
2022-11-27 10:46:00 GMT 52.532246 5.091692 31,975 333 474 -64
2022-11-27 10:45:57 GMT 52.528336 5.094988 31,975 333 474 -64
2022-11-27 10:45:55 GMT 52.524673 5.098114 31,975 333 474 0
2022-11-27 10:45:53 GMT 52.519817 5.102286 31,975 333 473 0
2022-11-27 10:45:50 GMT 52.512043 5.108878 32,000 333 474 -64
2022-11-27 10:45:47 GMT 52.508129 5.112174 32,000 333 474 -64
2022-11-27 10:45:44 GMT 52.502312 5.117118 32,000 333 473 -64
2022-11-27 10:45:41 GMT 52.495880 5.122528 32,000 333 473 -64
2022-11-27 10:45:38 GMT 52.489883 5.127633 32,000 333 473 -64
2022-11-27 10:45:35 GMT 52.484985 5.131760 32,000 333 473 -64
2022-11-27 10:45:32 GMT 52.478027 5.137711 32,000 333 473 -64
2022-11-27 10:45:28 GMT 52.469101 5.145264 32,000 333 472 -64
2022-11-27 10:45:25 GMT 52.465397 5.148350 32,000 333 472 -64
2022-11-27 10:45:23 GMT 52.459763 5.153122 32,000 333 472 -64
2022-11-27 10:45:20 GMT 52.454922 5.157218 31,975 333 470 -64
2022-11-27 10:45:17 GMT 52.449894 5.161455 32,000 333 472 -64
2022-11-27 10:45:15 GMT 52.443657 5.166713 32,000 333 471 -64
2022-11-27 10:45:12 GMT 52.438065 5.171509 32,000 333 471 -64
2022-11-27 10:45:09 GMT 52.432438 5.176208 32,000 333 471 -64
2022-11-27 10:45:06 GMT 52.427036 5.180838 32,000 333 471 -64
2022-11-27 10:45:03 GMT 52.422958 5.184250 32,000 333 471 0
2022-11-27 10:45:01 GMT 52.418518 5.187980 31,975 333 470 0
2022-11-27 10:44:58 GMT 52.411583 5.193865 31,975 333 470 -64
2022-11-27 10:44:55 GMT 52.406555 5.198181 32,000 333 470 -64
2022-11-27 10:44:53 GMT 52.401306 5.202560 31,975 333 470 0
2022-11-27 10:44:50 GMT 52.397461 5.205841 32,000 333 470 0
2022-11-27 10:44:48 GMT 52.393982 5.208740 31,975 333 470 0
2022-11-27 10:44:45 GMT 52.382206 5.218741 31,975 333 470 0
2022-11-27 10:44:42 GMT 52.382206 5.218741 31,975 333 470 0
2022-11-27 10:44:39 GMT 52.375645 5.224234 32,000 333 470 -64
2022-11-27 10:44:36 GMT 52.368286 5.230434 32,000 333 470 -64
2022-11-27 10:44:33 GMT 52.363682 5.234358 31,975 333 470 0
2022-11-27 10:44:30 GMT 52.356903 5.240021 31,975 333 470 -64
2022-11-27 10:44:27 GMT 52.352280 5.243988 31,975 333 470 -64
2022-11-27 10:44:25 GMT 52.348389 5.247192 31,975 333 470 -64
2022-11-27 10:44:23 GMT 52.343941 5.250916 32,000 333 470 -64
2022-11-27 10:44:20 GMT 52.333515 5.259705 31,975 333 470 -64
2022-11-27 10:44:17 GMT 52.333515 5.259705 31,975 333 470 -64
2022-11-27 10:44:15 GMT 52.329651 5.262922 32,000 333 471 -64
2022-11-27 10:44:12 GMT 52.320145 5.270920 31,975 333 470 -64
2022-11-27 10:44:10 GMT 52.313965 5.276108 32,000 333 470 -64
2022-11-27 10:44:07 GMT 52.313965 5.276108 31,975 333 471 -64
2022-11-27 10:44:04 GMT 52.309708 5.279694 31,975 333 471 -64
2022-11-27 10:44:02 GMT 52.303719 5.284659 32,000 333 471 -64
2022-11-27 10:43:59 GMT 52.297302 5.290070 32,000 333 471 -64
2022-11-27 10:43:56 GMT 52.287231 5.298462 32,000 333 472 -64
2022-11-27 10:43:53 GMT 52.287231 5.298462 32,000 333 471 -64
2022-11-27 10:43:50 GMT 52.281235 5.303493 32,000 333 471 -64
2022-11-27 10:43:47 GMT 52.275043 5.308672 32,000 333 471 0
2022-11-27 10:43:44 GMT 52.270016 5.312910 32,000 333 471 0
2022-11-27 10:43:42 GMT 52.264755 5.317307 32,000 333 471 0
2022-11-27 10:43:39 GMT 52.259766 5.321503 32,000 333 470 0
2022-11-27 10:43:36 GMT 52.254730 5.325699 32,000 333 470 0
2022-11-27 10:43:33 GMT 52.240768 5.337372 32,000 333 470 -64
2022-11-27 10:43:30 GMT 52.240768 5.337372 32,000 333 470 -64
2022-11-27 10:43:27 GMT 52.235939 5.341474 32,000 333 470 -64
2022-11-27 10:43:24 GMT 52.228214 5.347909 32,000 333 470 -64
2022-11-27 10:43:22 GMT 52.228214 5.347909 32,000 333 471 -64
2022-11-27 10:43:20 GMT 52.223557 5.351754 32,000 333 470 -64
2022-11-27 10:43:17 GMT 52.216415 5.357742 32,000 333 470 -64
2022-11-27 10:43:14 GMT 52.209824 5.363312 32,000 333 470 -64
2022-11-27 10:43:11 GMT 52.205357 5.366978 32,000 333 470 -64
2022-11-27 10:43:08 GMT 52.199955 5.371530 32,000 333 470 -64
2022-11-27 10:43:06 GMT 52.196884 5.374119 32,000 333 470 -64
2022-11-27 10:43:04 GMT 52.191856 5.378278 32,000 333 470 -64
2022-11-27 10:43:02 GMT 52.186615 5.382690 32,000 333 470 -64
2022-11-27 10:42:59 GMT 52.181381 5.387068 32,000 333 470 -64
2022-11-27 10:42:56 GMT 52.177689 5.390091 32,000 333 470 -64
2022-11-27 10:42:54 GMT 52.172863 5.394130 32,000 333 470 0
2022-11-27 10:42:51 GMT 52.165928 5.399937 32,000 333 470 0
2022-11-27 10:42:48 GMT 52.162994 5.402298 32,000 333 470 0
2022-11-27 10:42:46 GMT 52.157406 5.407000 31,975 333 470 64
2022-11-27 10:42:44 GMT 52.153542 5.410217 31,975 333 470 0
2022-11-27 10:42:41 GMT 52.145966 5.416489 31,975 334 471 0
2022-11-27 10:42:38 GMT 52.141533 5.420183 31,975 333 470 0
2022-11-27 10:42:35 GMT 52.135941 5.424881 31,975 333 470 0
2022-11-27 10:42:32 GMT 52.128937 5.430679 31,975 333 471 -64
2022-11-27 10:42:29 GMT 52.123703 5.435015 31,975 333 471 -64
2022-11-27 10:42:26 GMT 52.116768 5.440822 32,000 333 471 -64
2022-11-27 10:42:23 GMT 52.109161 5.447083 31,975 334 473 -64
2022-11-27 10:42:21 GMT 52.104336 5.451102 32,000 333 472 -64
2022-11-27 10:42:19 GMT 52.104336 5.451102 32,000 333 472 -64
2022-11-27 10:42:16 GMT 52.099091 5.455475 31,975 333 474 -64
2022-11-27 10:42:13 GMT 52.093643 5.459976 32,000 333 474 -128
2022-11-27 10:42:11 GMT 52.083893 5.468063 32,000 333 474 -64
2022-11-27 10:42:08 GMT 52.083893 5.468063 32,000 333 474 -64
2022-11-27 10:42:06 GMT 52.079956 5.471344 32,000 333 474 -64
2022-11-27 10:42:03 GMT 52.074097 5.476227 31,975 333 474 -64
2022-11-27 10:42:01 GMT 52.068817 5.480608 31,975 333 474 -64
2022-11-27 10:41:58 GMT 52.064163 5.484453 32,000 333 475 0
2022-11-27 10:41:56 GMT 52.058487 5.489197 32,000 333 475 0
2022-11-27 10:41:53 GMT 52.049103 5.496979 32,000 333 475 -64
2022-11-27 10:41:50 GMT 52.049103 5.496979 32,000 333 475 -64
2022-11-27 10:41:47 GMT 52.041275 5.503464 32,000 334 475 -64
2022-11-27 10:41:44 GMT 52.035999 5.507839 32,000 334 475 -64
2022-11-27 10:41:41 GMT 52.029968 5.512848 32,000 334 475 -64
2022-11-27 10:41:38 GMT 52.023102 5.518511 32,000 334 475 0
2022-11-27 10:41:35 GMT 52.013699 5.526280 31,975 334 475 0
2022-11-27 10:41:32 GMT 52.013699 5.526280 32,000 334 475 0
2022-11-27 10:41:30 GMT 52.008453 5.530624 32,000 333 474 -64
2022-11-27 10:41:27 GMT 52.004150 5.534210 32,000 333 474 -64
2022-11-27 10:41:25 GMT 51.999435 5.538101 31,975 333 475 0
2022-11-27 10:41:22 GMT 51.995358 5.541504 32,000 333 475 0
2022-11-27 10:41:20 GMT 51.989075 5.546683 32,000 333 474 -64
2022-11-27 10:41:17 GMT 51.984970 5.550079 32,000 333 474 -64
2022-11-27 10:41:15 GMT 51.979111 5.554886 31,975 334 475 -64
2022-11-27 10:41:12 GMT 51.967758 5.564270 32,000 334 475 -64
2022-11-27 10:41:09 GMT 51.967758 5.564270 32,000 334 475 -64
2022-11-27 10:41:06 GMT 51.963284 5.568028 32,000 334 475 -64
2022-11-27 10:41:03 GMT 51.954849 5.574951 32,000 334 475 0
2022-11-27 10:41:00 GMT 51.950958 5.578156 32,000 334 475 -64
2022-11-27 10:40:57 GMT 51.938004 5.588837 32,000 334 475 0
2022-11-27 10:40:54 GMT 51.938004 5.588837 32,000 334 476 -64
2022-11-27 10:40:51 GMT 51.933117 5.592904 31,975 334 476 0
2022-11-27 10:40:49 GMT 51.928619 5.596619 31,975 334 476 0
2022-11-27 10:40:46 GMT 51.923126 5.601120 31,975 334 476 -64
2022-11-27 10:40:43 GMT 51.916637 5.606402 31,975 334 476 0
2022-11-27 10:40:40 GMT 51.912140 5.610123 31,975 334 476 0
2022-11-27 10:40:37 GMT 51.905090 5.615921 32,000 334 476 0
2022-11-27 10:40:35 GMT 51.902344 5.618210 31,975 334 477 -64
2022-11-27 10:40:33 GMT 51.897217 5.622406 31,975 334 477 -64
2022-11-27 10:40:30 GMT 51.891918 5.626755 32,000 334 477 -64
2022-11-27 10:40:27 GMT 51.886799 5.630951 31,975 334 477 -64
2022-11-27 10:40:24 GMT 51.879913 5.636580 31,975 334 477 -64
2022-11-27 10:40:21 GMT 51.870274 5.644455 32,000 334 478 -64
2022-11-27 10:40:19 GMT 51.870274 5.644455 31,975 334 478 -64
2022-11-27 10:40:16 GMT 51.865723 5.648235 31,975 334 478 -64
2022-11-27 10:40:14 GMT 51.859818 5.653060 32,000 334 478 -64
2022-11-27 10:40:11 GMT 51.854118 5.657730 32,000 334 478 -64
2022-11-27 10:40:08 GMT 51.847416 5.663223 32,000 334 478 -64
2022-11-27 10:40:05 GMT 51.843658 5.666347 32,000 334 478 -64
2022-11-27 10:40:02 GMT 51.835171 5.673294 32,000 334 479 -64
2022-11-27 10:39:59 GMT 51.830845 5.676804 32,000 334 479 0
2022-11-27 10:39:56 GMT 51.825897 5.680822 32,000 334 479 -64
2022-11-27 10:39:54 GMT 51.820770 5.685054 32,000 334 479 0
2022-11-27 10:39:51 GMT 51.814865 5.689879 31,975 334 479 0
2022-11-27 10:39:49 GMT 51.811897 5.692291 32,000 334 479 -64
2022-11-27 10:39:46 GMT 51.805984 5.697098 32,000 334 479 -64
2022-11-27 10:39:44 GMT 51.800217 5.701756 31,975 334 479 0
2022-11-27 10:39:41 GMT 51.789551 5.710441 31,975 334 479 -64
2022-11-27 10:39:38 GMT 51.789551 5.710441 31,975 334 478 -64
2022-11-27 10:39:35 GMT 51.784836 5.714301 31,975 334 479 -64
2022-11-27 10:39:33 GMT 51.778931 5.719126 31,975 334 478 -64
2022-11-27 10:39:30 GMT 51.773163 5.723801 31,975 334 478 -64
2022-11-27 10:39:28 GMT 51.770046 5.726395 32,000 334 478 -64
2022-11-27 10:39:25 GMT 51.763714 5.731583 32,000 334 478 -64
2022-11-27 10:39:23 GMT 51.759758 5.734787 31,975 334 478 -64
2022-11-27 10:39:20 GMT 51.754852 5.738798 32,000 334 478 -64
2022-11-27 10:39:18 GMT 51.750504 5.742361 31,975 334 478 64
2022-11-27 10:39:15 GMT 51.743408 5.748151 32,000 334 478 -64
2022-11-27 10:39:12 GMT 51.736725 5.753644 31,975 334 478 64
2022-11-27 10:39:09 GMT 51.730988 5.758362 32,000 334 478 -64
2022-11-27 10:39:06 GMT 51.724331 5.763779 32,000 334 478 -64
2022-11-27 10:39:03 GMT 51.719376 5.767822 31,975 334 478 -64
2022-11-27 10:39:00 GMT 51.714462 5.771866 32,000 334 478 -64
2022-11-27 10:38:57 GMT 51.709339 5.776062 32,000 334 478 -64
2022-11-27 10:38:55 GMT 51.705185 5.779402 32,000 334 478 -128
2022-11-27 10:38:53 GMT 51.699471 5.783997 31,975 334 479 -64
2022-11-27 10:38:50 GMT 51.693741 5.788681 32,000 334 478 0
2022-11-27 10:38:47 GMT 51.689602 5.792007 32,000 334 478 0
2022-11-27 10:38:44 GMT 51.683689 5.796814 32,000 334 478 0
2022-11-27 10:38:42 GMT 51.677994 5.801449 32,000 334 478 0
2022-11-27 10:38:40 GMT 51.668930 5.808873 31,975 334 478 0
2022-11-27 10:38:37 GMT 51.668930 5.808873 32,000 334 478 -64
2022-11-27 10:38:34 GMT 51.662788 5.813828 31,975 334 478 -64
2022-11-27 10:38:31 GMT 51.657295 5.818329 31,975 334 479 -64
2022-11-27 10:38:28 GMT 51.649754 5.824432 32,000 334 479 -64
2022-11-27 10:38:25 GMT 51.645844 5.827637 31,975 334 479 -64
2022-11-27 10:38:22 GMT 51.639511 5.832748 32,000 334 479 -64
2022-11-27 10:38:19 GMT 51.634186 5.837081 32,000 334 479 0
2022-11-27 10:38:16 GMT 51.624298 5.845098 31,975 334 479 -64
2022-11-27 10:38:14 GMT 51.624298 5.845098 31,975 334 479 -64
2022-11-27 10:38:12 GMT 51.618565 5.849762 32,000 334 479 -64
2022-11-27 10:38:09 GMT 51.614822 5.852818 32,000 334 479 0
2022-11-27 10:38:07 GMT 51.610699 5.856171 32,000 334 479 -64
2022-11-27 10:38:05 GMT 51.605759 5.860167 32,000 334 479 -64
2022-11-27 10:38:02 GMT 51.600037 5.864868 32,000 334 479 0
2022-11-27 10:37:59 GMT 51.594078 5.869675 32,000 334 479 0
2022-11-27 10:37:57 GMT 51.590958 5.872192 31,975 334 475 0
2022-11-27 10:37:55 GMT 51.585793 5.876389 31,975 334 475 0
2022-11-27 10:37:52 GMT 51.579300 5.881620 32,000 334 478 -64
2022-11-27 10:37:49 GMT 51.574341 5.885620 32,000 334 475 0
2022-11-27 10:37:47 GMT 51.569412 5.889637 31,975 334 478 -64
2022-11-27 10:37:44 GMT 51.564892 5.893326 32,000 334 478 -64
2022-11-27 10:37:42 GMT 51.561127 5.896318 32,000 334 478 -64
2022-11-27 10:37:39 GMT 51.554810 5.901440 32,000 334 478 -64
2022-11-27 10:37:37 GMT 51.549107 5.906067 32,000 334 478 -64
2022-11-27 10:37:34 GMT 51.544361 5.909882 31,975 334 478 -64
2022-11-27 10:37:31 GMT 51.537094 5.915841 31,975 334 477 0
2022-11-27 10:37:28 GMT 51.532791 5.919330 32,000 334 477 -64
2022-11-27 10:37:25 GMT 51.525696 5.925046 31,975 334 477 0
2022-11-27 10:37:22 GMT 51.520569 5.929203 32,000 334 477 -64
2022-11-27 10:37:19 GMT 51.510143 5.937653 31,975 334 477 -64
2022-11-27 10:37:16 GMT 51.510143 5.937653 31,975 334 477 -64
2022-11-27 10:37:14 GMT 51.506012 5.941005 32,000 334 477 -64
2022-11-27 10:37:12 GMT 51.500519 5.945459 32,000 334 476 0
2022-11-27 10:37:09 GMT 51.494614 5.950210 32,000 334 476 0
2022-11-27 10:37:06 GMT 51.486588 5.956726 32,000 334 476 0
2022-11-27 10:37:04 GMT 51.486588 5.956726 32,000 334 476 0
2022-11-27 10:37:02 GMT 51.481468 5.960846 32,000 334 475 -64
2022-11-27 10:36:59 GMT 51.476021 5.965271 32,000 334 475 -64
2022-11-27 10:36:57 GMT 51.471321 5.969086 31,975 334 474 -64
2022-11-27 10:36:55 GMT 51.467560 5.972109 32,000 334 474 -64
2022-11-27 10:36:53 GMT 51.465828 5.973511 31,975 334 474 -64
2022-11-27 10:36:51 GMT 51.459961 5.978241 31,975 334 474 -64
2022-11-27 10:36:48 GMT 51.455841 5.981536 32,000 334 473 -64
2022-11-27 10:36:46 GMT 51.452141 5.984573 32,000 334 474 -64
2022-11-27 10:36:44 GMT 51.446045 5.989479 32,000 334 474 -64
2022-11-27 10:36:42 GMT 51.442154 5.992597 32,000 334 473 0
2022-11-27 10:36:39 GMT 51.436501 5.997162 32,000 334 473 -64
2022-11-27 10:36:36 GMT 51.429245 6.002989 32,000 334 473 -64
2022-11-27 10:36:33 GMT 51.426544 6.005216 32,000 334 473 -64
2022-11-27 10:36:31 GMT 51.422020 6.008835 32,000 334 473 -64
2022-11-27 10:36:28 GMT 51.415970 6.013678 31,975 334 473 -64
2022-11-27 10:36:26 GMT 51.411079 6.017609 32,000 334 473 -64
2022-11-27 10:36:23 GMT 51.406425 6.021347 32,000 334 473 -64
2022-11-27 10:36:21 GMT 51.400558 6.026001 32,000 334 472 0
2022-11-27 10:36:18 GMT 51.396648 6.029129 32,000 334 472 0
2022-11-27 10:36:16 GMT 51.390610 6.034018 32,000 334 472 0
2022-11-27 10:36:13 GMT 51.386921 6.036987 32,000 334 472 0
2022-11-27 10:36:11 GMT 51.377190 6.044769 31,975 334 471 64
2022-11-27 10:36:08 GMT 51.377190 6.044769 31,975 334 471 64
2022-11-27 10:36:06 GMT 51.372490 6.048508 31,950 334 471 64
2022-11-27 10:36:03 GMT 51.368042 6.052131 31,975 334 471 128
2022-11-27 10:36:01 GMT 51.361816 6.057030 31,975 334 470 128
2022-11-27 10:35:59 GMT 51.358479 6.059647 31,950 334 470 128
2022-11-27 10:35:56 GMT 51.347584 6.068268 31,950 335 471 -64
2022-11-27 10:35:53 GMT 51.347584 6.068268 31,975 335 471 0
2022-11-27 10:35:51 GMT 51.336411 6.076924 31,950 335 470 0
2022-11-27 10:35:48 GMT 51.336411 6.076924 31,975 335 471 -64
2022-11-27 10:35:45 GMT 51.332314 6.080093 31,975 334 471 -64
2022-11-27 10:35:42 GMT 51.323914 6.086648 31,975 330 470 -192
2022-11-27 10:35:39 GMT 51.319096 6.090698 31,975 330 470 -192
2022-11-27 10:35:36 GMT 51.313934 6.095185 31,975 330 470 -192
2022-11-27 10:35:33 GMT 51.309273 6.099625 32,000 329 470 -256
2022-11-27 10:35:31 GMT 51.303734 6.105042 32,025 321 467 64
2022-11-27 10:35:28 GMT 51.298985 6.110001 32,000 326 469 -320
2022-11-27 10:35:26 GMT 51.288940 6.121389 32,025 324 469 -256
2022-11-27 10:35:23 GMT 51.285873 6.125175 32,025 323 469 -128
2022-11-27 10:35:20 GMT 51.285873 6.125175 32,025 322 468 -64
2022-11-27 10:35:18 GMT 51.281620 6.130524 32,025 321 468 128
2022-11-27 10:35:16 GMT 51.279144 6.133860 32,000 320 468 192
2022-11-27 10:35:13 GMT 51.272919 6.142397 31,975 318 467 576
2022-11-27 10:35:10 GMT 51.268478 6.148929 31,850 315 465 896
2022-11-27 10:35:07 GMT 51.264084 6.155536 31,900 315 465 896
2022-11-27 10:35:05 GMT 51.261658 6.159470 31,850 314 466 1088
2022-11-27 10:35:02 GMT 51.257767 6.165854 31,825 311 465 1216
2022-11-27 10:35:00 GMT 51.253693 6.172906 31,750 309 464 1280
2022-11-27 10:34:57 GMT 51.250305 6.179141 31,750 309 464 1280
2022-11-27 10:34:54 GMT 51.244473 6.190491 31,625 309 465 1280
2022-11-27 10:34:52 GMT 51.242329 6.194763 31,625 309 465 1280
2022-11-27 10:34:49 GMT 51.234604 6.210327 31,475 309 465 1344
2022-11-27 10:34:46 GMT 51.234604 6.210327 31,450 309 465 1344
2022-11-27 10:34:43 GMT 51.229706 6.220340 31,375 309 466 1344
2022-11-27 10:34:40 GMT 51.226921 6.225967 31,325 309 467 1408
2022-11-27 10:34:37 GMT 51.221695 6.236523 31,250 309 467 1472
2022-11-27 10:34:34 GMT 51.218491 6.242981 31,175 309 467 1472
2022-11-27 10:34:31 GMT 51.213730 6.252705 31,075 309 467 1472
2022-11-27 10:34:28 GMT 51.210800 6.258644 30,850 309 469 1536
2022-11-27 10:34:25 GMT 51.207462 6.265488 30,825 309 469 1536
2022-11-27 10:34:22 GMT 51.201828 6.276855 30,825 309 469 1600
2022-11-27 10:34:19 GMT 51.199036 6.282547 30,775 309 470 1600
2022-11-27 10:34:17 GMT 51.196335 6.287966 30,750 309 470 1600
2022-11-27 10:34:15 GMT 51.192856 6.295018 30,675 309 471 1600
2022-11-27 10:34:12 GMT 51.189102 6.302663 30,600 309 471 1536
2022-11-27 10:34:09 GMT 51.185211 6.310577 30,525 309 472 1472
2022-11-27 10:34:07 GMT 51.182373 6.316322 30,475 309 472 1408
2022-11-27 10:34:04 GMT 51.178574 6.323894 30,425 309 472 1344
2022-11-27 10:34:02 GMT 51.173492 6.334286 30,350 309 472 1344
2022-11-27 10:34:00 GMT 51.173492 6.334286 30,300 309 472 1216
2022-11-27 10:33:57 GMT 51.164169 6.353226 30,250 309 472 1216
2022-11-27 10:33:54 GMT 51.164169 6.353226 30,200 309 473 1088
2022-11-27 10:33:51 GMT 51.157928 6.365738 30,125 309 473 960
2022-11-27 10:33:48 GMT 51.157928 6.365738 30,050 309 473 960
2022-11-27 10:33:46 GMT 51.153881 6.373978 30,050 309 473 960
2022-11-27 10:33:43 GMT 51.150787 6.380236 29,975 309 472 1088
2022-11-27 10:33:41 GMT 51.146988 6.387882 29,950 309 472 1088
2022-11-27 10:33:38 GMT 51.143871 6.394119 29,925 309 472 1152
2022-11-27 10:33:36 GMT 51.141861 6.398200 29,900 309 472 1216
2022-11-27 10:33:34 GMT 51.137787 6.406365 29,850 309 472 704
2022-11-27 10:33:31 GMT 51.134377 6.413193 29,775 309 473 1152
2022-11-27 10:33:28 GMT 51.130604 6.420822 29,725 309 473 1088
2022-11-27 10:33:26 GMT 51.127762 6.426557 29,700 309 473 1024
2022-11-27 10:33:24 GMT 51.124645 6.432877 29,625 309 472 832
2022-11-27 10:33:21 GMT 51.120594 6.441040 29,600 309 472 768
2022-11-27 10:33:18 GMT 51.116825 6.448669 29,575 309 471 704
2022-11-27 10:33:16 GMT 51.109955 6.462559 29,525 309 471 704
2022-11-27 10:33:13 GMT 51.109955 6.462559 29,525 309 471 704
2022-11-27 10:33:11 GMT 51.107529 6.467458 29,500 309 471 704
2022-11-27 10:33:08 GMT 51.102905 6.476663 29,425 309 470 768
2022-11-27 10:33:06 GMT 51.096851 6.488876 29,425 309 470 768
2022-11-27 10:33:03 GMT 51.096851 6.488876 29,400 309 470 768
2022-11-27 10:33:01 GMT 51.092651 6.497300 29,350 309 470 768
2022-11-27 10:32:58 GMT 51.089314 6.504059 29,325 309 469 704
2022-11-27 10:32:56 GMT 51.087402 6.507797 29,300 309 469 704
2022-11-27 10:32:54 GMT 51.079350 6.523972 29,275 309 469 704
2022-11-27 10:32:51 GMT 51.079350 6.523972 29,250 309 468 704
2022-11-27 10:32:48 GMT 51.075714 6.531224 29,175 309 466 704
2022-11-27 10:32:46 GMT 51.072880 6.536942 29,175 309 467 704
2022-11-27 10:32:43 GMT 51.069809 6.543101 29,125 309 466 704
2022-11-27 10:32:40 GMT 51.065895 6.550903 29,050 309 466 576
2022-11-27 10:32:37 GMT 51.061100 6.560516 29,075 309 465 512
2022-11-27 10:32:34 GMT 51.056820 6.569138 29,050 309 465 512
2022-11-27 10:32:31 GMT 51.048431 6.585933 28,900 309 463 640
2022-11-27 10:32:28 GMT 51.046391 6.589890 28,750 309 461 704
2022-11-27 10:32:25 GMT 51.046391 6.589890 28,975 309 463 640
2022-11-27 10:32:23 GMT 51.043736 6.595230 28,950 309 463 640
2022-11-27 10:32:21 GMT 51.040421 6.601892 28,850 309 462 640
2022-11-27 10:32:19 GMT 51.033169 6.616516 28,900 309 461 704
2022-11-27 10:32:16 GMT 51.033169 6.616516 28,850 309 460 768
2022-11-27 10:32:13 GMT 51.028519 6.625795 28,800 309 460 832
2022-11-27 10:32:10 GMT 51.024582 6.633664 28,725 309 459 832
2022-11-27 10:32:07 GMT 51.021652 6.639528 28,750 309 459 832
2022-11-27 10:32:04 GMT 51.017574 6.647644 28,700 309 459 832
2022-11-27 10:32:01 GMT 51.013618 6.655579 28,675 309 459 832
2022-11-27 10:31:59 GMT 51.010300 6.662169 28,625 309 458 832
2022-11-27 10:31:56 GMT 51.006912 6.668998 28,600 309 458 896
2022-11-27 10:31:54 GMT 51.004402 6.674042 28,500 309 458 960
2022-11-27 10:31:51 GMT 51.000210 6.682434 28,500 309 457 1024
2022-11-27 10:31:49 GMT 50.997711 6.687408 28,450 309 457 1024
2022-11-27 10:31:47 GMT 50.995880 6.691045 28,450 309 457 1024
2022-11-27 10:31:45 GMT 50.993366 6.696014 28,150 309 456 1152
2022-11-27 10:31:43 GMT 50.987316 6.708069 28,350 309 456 1088
2022-11-27 10:31:40 GMT 50.987316 6.708069 28,350 309 456 1088
2022-11-27 10:31:38 GMT 50.984070 6.714577 28,250 309 456 1152
2022-11-27 10:31:35 GMT 50.980133 6.722445 28,200 309 456 1152
2022-11-27 10:31:33 GMT 50.976841 6.728973 28,175 309 456 1152
2022-11-27 10:31:30 GMT 50.969765 6.743088 28,150 309 456 1152
2022-11-27 10:31:28 GMT 50.969765 6.743088 28,075 309 455 1152
2022-11-27 10:31:25 GMT 50.966217 6.750134 28,050 309 455 1152
2022-11-27 10:31:22 GMT 50.962688 6.757126 27,975 309 455 1216
2022-11-27 10:31:19 GMT 50.956787 6.768840 27,875 309 454 1152
2022-11-27 10:31:16 GMT 50.954033 6.774368 27,800 309 454 1152
2022-11-27 10:31:13 GMT 50.950123 6.782150 27,800 309 454 1152
2022-11-27 10:31:10 GMT 50.947746 6.786804 27,675 309 454 1088
2022-11-27 10:31:08 GMT 50.944244 6.793856 27,725 309 453 1088
2022-11-27 10:31:05 GMT 50.940308 6.801651 27,675 309 453 1088
2022-11-27 10:31:03 GMT 50.937553 6.807098 27,625 309 453 1024
2022-11-27 10:31:01 GMT 50.930649 6.820877 27,525 309 453 1088
2022-11-27 10:30:58 GMT 50.930649 6.820877 27,525 309 453 1088
2022-11-27 10:30:55 GMT 50.925659 6.830675 27,425 309 453 1088
2022-11-27 10:30:53 GMT 50.925659 6.830675 27,450 309 453 1088
2022-11-27 10:30:51 GMT 50.922272 6.837430 27,425 309 452 1088
2022-11-27 10:30:48 GMT 50.917210 6.847458 27,350 309 452 1088
2022-11-27 10:30:45 GMT 50.913940 6.853984 27,300 309 451 1088
2022-11-27 10:30:42 GMT 50.905609 6.870464 27,125 309 451 1152
2022-11-27 10:30:39 GMT 50.905609 6.870464 27,175 309 451 1152
2022-11-27 10:30:36 GMT 50.903664 6.874313 27,100 309 451 1152
2022-11-27 10:30:34 GMT 50.897888 6.885605 27,075 309 451 1088
2022-11-27 10:30:29 GMT 50.894257 6.892853 26,975 309 451 1088
2022-11-27 10:30:26 GMT 50.889324 6.902618 26,850 309 451 1088
2022-11-27 10:30:23 GMT 50.885513 6.910029 26,900 309 451 1088
2022-11-27 10:30:20 GMT 50.881622 6.917749 26,825 309 449 1088
2022-11-27 10:30:18 GMT 50.880199 6.920547 26,825 309 449 1088
2022-11-27 10:30:15 GMT 50.874752 6.931305 26,750 309 449 1152
2022-11-27 10:30:12 GMT 50.871002 6.938757 26,550 309 448 1152
2022-11-27 10:30:09 GMT 50.866104 6.948481 26,625 309 448 1152
2022-11-27 10:30:06 GMT 50.863998 6.952564 26,600 309 448 1088
2022-11-27 10:30:04 GMT 50.860886 6.958725 26,550 309 448 1152
2022-11-27 10:30:02 GMT 50.859203 6.962051 26,500 309 448 1152
2022-11-27 10:30:00 GMT 50.855713 6.968895 26,450 309 447 1152
2022-11-27 10:29:57 GMT 50.851940 6.976318 25,875 309 446 1088
2022-11-27 10:29:54 GMT 50.848080 6.983948 26,325 309 446 1152
2022-11-27 10:29:52 GMT 50.844215 6.991577 26,300 309 447 1152
2022-11-27 10:29:49 GMT 50.841606 6.996689 26,175 309 446 1152
2022-11-27 10:29:46 GMT 50.837746 7.004318 26,175 309 446 1152
2022-11-27 10:29:44 GMT 50.835182 7.009430 26,025 309 446 1088
2022-11-27 10:29:41 GMT 50.829895 7.019818 26,025 309 446 1088
2022-11-27 10:29:38 GMT 50.826942 7.025681 26,050 309 446 1152
2022-11-27 10:29:35 GMT 50.823593 7.032242 26,000 309 444 1152
2022-11-27 10:29:32 GMT 50.819092 7.041123 25,950 309 444 1152
2022-11-27 10:29:29 GMT 50.815750 7.047655 25,875 309 444 1152
2022-11-27 10:29:26 GMT 50.808182 7.062607 25,825 309 444 1152
2022-11-27 10:29:24 GMT 50.808182 7.062607 25,800 309 443 1152
2022-11-27 10:29:21 GMT 50.804367 7.070160 25,600 309 443 1088
2022-11-27 10:29:18 GMT 50.801804 7.075195 25,675 309 443 1088
2022-11-27 10:29:13 GMT 50.791286 7.095871 25,550 309 441 960
2022-11-27 10:29:08 GMT 50.788879 7.100657 25,450 309 440 1024
2022-11-27 10:29:05 GMT 50.784027 7.110159 25,475 309 440 1024
2022-11-27 10:29:02 GMT 50.780296 7.117386 25,400 309 440 1024
2022-11-27 10:28:59 GMT 50.776482 7.124939 25,325 309 439 1088
2022-11-27 10:28:56 GMT 50.773041 7.131612 25,300 309 439 1088
2022-11-27 10:28:54 GMT 50.771126 7.135391 25,275 309 439 1088
2022-11-27 10:28:51 GMT 50.766052 7.145309 25,200 309 438 1088
2022-11-27 10:28:48 GMT 50.763657 7.150095 25,150 309 438 1088
2022-11-27 10:28:45 GMT 50.759956 7.157288 24,975 309 436 1088
2022-11-27 10:28:43 GMT 50.757954 7.161255 25,075 309 436 1024
2022-11-27 10:28:41 GMT 50.751251 7.174443 24,975 309 436 1024
2022-11-27 10:28:38 GMT 50.751251 7.174443 24,900 309 436 1088
2022-11-27 10:28:35 GMT 50.747726 7.181347 24,925 309 436 1088
2022-11-27 10:28:33 GMT 50.741684 7.193224 24,775 309 436 1088
2022-11-27 10:28:31 GMT 50.737885 7.200647 24,725 309 434 1216
2022-11-27 10:28:28 GMT 50.737885 7.200647 24,800 309 433 1216
2022-11-27 10:28:25 GMT 50.735283 7.205811 24,725 309 433 1216
2022-11-27 10:28:23 GMT 50.732491 7.211227 24,725 309 433 1216
2022-11-27 10:28:21 GMT 50.730377 7.215419 24,700 309 433 1216
2022-11-27 10:28:18 GMT 50.726120 7.223808 24,600 309 433 1216
2022-11-27 10:28:15 GMT 50.722092 7.231676 24,500 309 432 1280
2022-11-27 10:28:12 GMT 50.718197 7.239304 24,500 309 433 1280
2022-11-27 10:28:10 GMT 50.715591 7.244444 24,450 309 432 1216
2022-11-27 10:28:08 GMT 50.713215 7.249069 24,375 309 432 1216
2022-11-27 10:28:05 GMT 50.709724 7.255936 24,300 309 431 1216
2022-11-27 10:28:02 GMT 50.706345 7.262557 24,275 309 431 1216
2022-11-27 10:28:00 GMT 50.703827 7.267456 24,225 309 430 1280
2022-11-27 10:27:57 GMT 50.698227 7.278442 24,150 309 430 1280
2022-11-27 10:27:54 GMT 50.696320 7.282080 24,000 309 430 1344
2022-11-27 10:27:51 GMT 50.691833 7.290839 24,000 309 429 1344
2022-11-27 10:27:48 GMT 50.688450 7.297363 24,000 309 429 1344
2022-11-27 10:27:45 GMT 50.684601 7.304943 23,725 309 429 1344
2022-11-27 10:27:43 GMT 50.678375 7.317043 23,850 309 429 1280
2022-11-27 10:27:40 GMT 50.678375 7.317043 23,775 309 428 1280
2022-11-27 10:27:37 GMT 50.673889 7.325802 23,725 309 428 1280
2022-11-27 10:27:35 GMT 50.667549 7.338125 23,675 310 426 1344
2022-11-27 10:27:32 GMT 50.663826 7.345325 23,600 310 426 1408
2022-11-27 10:27:29 GMT 50.663826 7.345325 23,525 310 426 1408
2022-11-27 10:27:26 GMT 50.660980 7.350938 23,475 310 426 1344
2022-11-27 10:27:23 GMT 50.657227 7.358093 23,450 310 425 1344
2022-11-27 10:27:20 GMT 50.648758 7.374428 23,150 310 424 1344
2022-11-27 10:27:16 GMT 50.648758 7.374428 23,300 310 424 1344
2022-11-27 10:27:14 GMT 50.645157 7.381402 23,225 310 424 1344
2022-11-27 10:27:12 GMT 50.643154 7.385188 23,175 310 424 1344
2022-11-27 10:27:10 GMT 50.641800 7.387800 23,150 310 424 1344
2022-11-27 10:27:07 GMT 50.637589 7.395895 23,050 310 423 1344
2022-11-27 10:27:04 GMT 50.633240 7.404266 22,975 310 423 1344
2022-11-27 10:27:01 GMT 50.629982 7.410427 22,900 310 422 1344
2022-11-27 10:26:58 GMT 50.625278 7.419483 22,750 310 422 1344
2022-11-27 10:26:55 GMT 50.622299 7.425199 22,750 310 422 1344
2022-11-27 10:26:52 GMT 50.618111 7.433290 22,650 310 422 1344
2022-11-27 10:26:49 GMT 50.614433 7.440416 22,675 309 421 1344
2022-11-27 10:26:46 GMT 50.611130 7.446851 22,625 309 421 1344
2022-11-27 10:26:44 GMT 50.609310 7.450364 22,600 309 421 1344
2022-11-27 10:26:42 GMT 50.606232 7.456320 22,550 310 420 1344
2022-11-27 10:26:39 GMT 50.602936 7.462686 22,375 327 416 1664
2022-11-27 10:26:36 GMT 50.598495 7.470775 22,400 314 420 1344
2022-11-27 10:26:34 GMT 50.595718 7.475528 22,300 315 419 1280
2022-11-27 10:26:31 GMT 50.592911 7.480172 22,325 315 419 1280
2022-11-27 10:26:28 GMT 50.586407 7.490152 22,200 319 418 1216
2022-11-27 10:26:25 GMT 50.579590 7.499542 22,150 319 418 1216
2022-11-27 10:26:22 GMT 50.579590 7.499542 22,125 322 417 1344
2022-11-27 10:26:19 GMT 50.575283 7.505147 22,025 322 417 1344
2022-11-27 10:26:16 GMT 50.570393 7.511085 21,975 325 416 1600
2022-11-27 10:26:14 GMT 50.568253 7.513609 21,925 325 416 1600
2022-11-27 10:26:12 GMT 50.565132 7.517172 21,900 326 416 1664
2022-11-27 10:26:10 GMT 50.560501 7.522165 21,800 328 416 1664
2022-11-27 10:26:07 GMT 50.554848 7.527862 21,675 331 416 1536
2022-11-27 10:26:03 GMT 50.546082 7.536043 21,625 331 416 1536
2022-11-27 10:26:01 GMT 50.546082 7.536043 21,550 334 416 1408
2022-11-27 10:25:58 GMT 50.536194 7.544283 21,500 337 415 1280
2022-11-27 10:25:55 GMT 50.536194 7.544283 21,425 335 416 1344
2022-11-27 10:25:52 GMT 50.531151 7.548053 21,350 336 416 1280
2022-11-27 10:25:50 GMT 50.528030 7.550354 21,200 336 416 1280
2022-11-27 10:25:47 GMT 50.522072 7.554585 21,275 337 415 1216
2022-11-27 10:25:45 GMT 50.518387 7.557076 21,200 337 414 1216
2022-11-27 10:25:43 GMT 50.514496 7.559750 21,150 337 414 1152
2022-11-27 10:25:41 GMT 50.510109 7.562751 21,150 337 413 1152
2022-11-27 10:25:37 GMT 50.499264 7.570174 21,050 337 412 1088
2022-11-27 10:25:34 GMT 50.499264 7.570174 21,050 337 412 1088
2022-11-27 10:25:31 GMT 50.488678 7.577531 20,850 337 410 1216
2022-11-27 10:25:28 GMT 50.488678 7.577531 20,875 337 409 1344
2022-11-27 10:25:25 GMT 50.482407 7.581795 20,825 337 409 1408
2022-11-27 10:25:22 GMT 50.479153 7.584055 20,750 337 408 1472
2022-11-27 10:25:20 GMT 50.469635 7.590613 20,650 337 407 1536
2022-11-27 10:25:17 GMT 50.465652 7.593334 20,625 337 407 1536
2022-11-27 10:25:14 GMT 50.465652 7.593334 20,600 337 407 1536
2022-11-27 10:25:11 GMT 50.453968 7.601426 20,450 337 406 1600
2022-11-27 10:25:08 GMT 50.453968 7.601426 20,400 337 406 1600
2022-11-27 10:25:05 GMT 50.445354 7.607364 20,275 337 406 1664
2022-11-27 10:25:03 GMT 50.445354 7.607364 20,275 337 406 1664
2022-11-27 10:25:01 GMT 50.441956 7.609740 19,575 337 402 1728
2022-11-27 10:24:58 GMT 50.437160 7.613080 20,000 337 404 1728
2022-11-27 10:24:55 GMT 50.431995 7.616569 20,000 337 405 1664
2022-11-27 10:24:52 GMT 50.426872 7.620132 19,975 337 405 1664
2022-11-27 10:24:50 GMT 50.423264 7.622632 19,875 337 403 1664
2022-11-27 10:24:47 GMT 50.416763 7.627041 19,725 337 403 1664
2022-11-27 10:24:44 GMT 50.406345 7.634236 19,725 337 403 1664
2022-11-27 10:24:41 GMT 50.403763 7.635932 19,425 337 402 1728
2022-11-27 10:24:38 GMT 50.403763 7.635932 19,550 337 402 1728
2022-11-27 10:24:35 GMT 50.397823 7.640026 19,525 337 402 1728
2022-11-27 10:24:32 GMT 50.392181 7.643882 18,550 337 397 1664
2022-11-27 10:24:29 GMT 50.387909 7.646781 19,275 337 401 1728
2022-11-27 10:24:26 GMT 50.381809 7.651013 19,225 337 400 1600
2022-11-27 10:24:23 GMT 50.378220 7.653423 19,200 337 401 1728
2022-11-27 10:24:21 GMT 50.374317 7.656135 19,075 337 401 1664
2022-11-27 10:24:18 GMT 50.368870 7.659846 19,050 337 401 1664
2022-11-27 10:24:15 GMT 50.363098 7.663780 18,975 337 400 1600
2022-11-27 10:24:13 GMT 50.360397 7.665710 18,900 337 400 1600
2022-11-27 10:24:11 GMT 50.356998 7.668012 18,850 337 399 1600
2022-11-27 10:24:08 GMT 50.350948 7.672169 18,750 337 399 1664
2022-11-27 10:24:05 GMT 50.346039 7.675540 18,675 337 398 1664
2022-11-27 10:24:03 GMT 50.342148 7.678181 18,600 337 398 1664
2022-11-27 10:24:01 GMT 50.334869 7.683130 18,575 337 398 1664
2022-11-27 10:23:58 GMT 50.334869 7.683130 18,450 337 398 1664
2022-11-27 10:23:55 GMT 50.331161 7.685659 18,425 337 397 1664
2022-11-27 10:23:53 GMT 50.326321 7.689019 18,400 337 397 1664
2022-11-27 10:23:51 GMT 50.318222 7.694512 18,225 337 395 1728
2022-11-27 10:23:48 GMT 50.318222 7.694512 18,250 337 395 1664
2022-11-27 10:23:45 GMT 50.313847 7.697482 18,125 337 395 1664
2022-11-27 10:23:43 GMT 50.310013 7.700115 18,025 337 395 1728
2022-11-27 10:23:41 GMT 50.306305 7.702572 18,050 337 395 1728
2022-11-27 10:23:38 GMT 50.301270 7.705970 17,875 337 395 1792
2022-11-27 10:23:35 GMT 50.297413 7.708542 17,875 337 395 1792
2022-11-27 10:23:33 GMT 50.293407 7.711289 17,800 337 394 1792
2022-11-27 10:23:31 GMT 50.286053 7.716337 17,700 335 394 1792
2022-11-27 10:23:29 GMT 50.286053 7.716337 17,675 335 393 1792
2022-11-27 10:23:25 GMT 50.280468 7.720494 17,575 334 393 1792
2022-11-27 10:23:23 GMT 50.270966 7.728231 17,450 333 392 1792
2022-11-27 10:23:20 GMT 50.270966 7.728231 17,400 331 391 1856
2022-11-27 10:23:18 GMT 50.268921 7.729995 17,325 330 391 1856
2022-11-27 10:23:15 GMT 50.264053 7.734375 17,275 330 391 1856
2022-11-27 10:23:13 GMT 50.260494 7.737790 17,200 328 391 1856
2022-11-27 10:23:11 GMT 50.257423 7.740759 17,125 328 391 1920
2022-11-27 10:23:08 GMT 50.253662 7.744639 17,075 327 391 1920
2022-11-27 10:23:05 GMT 50.248764 7.749889 16,950 325 389 1856
2022-11-27 10:23:03 GMT 50.245228 7.753750 16,875 324 389 1856
2022-11-27 10:23:01 GMT 50.243179 7.756125 16,825 324 389 1792
2022-11-27 10:22:59 GMT 50.239452 7.760505 16,775 323 389 1792
2022-11-27 10:22:57 GMT 50.238056 7.762286 16,700 321 387 1856
2022-11-27 10:22:54 GMT 50.233475 7.768129 16,575 319 387 1792
2022-11-27 10:22:51 GMT 50.228851 7.774345 16,525 319 387 1856
2022-11-27 10:22:48 GMT 50.223907 7.781215 16,350 319 387 1856
2022-11-27 10:22:45 GMT 50.218597 7.788639 16,325 319 387 1856
2022-11-27 10:22:43 GMT 50.218597 7.788639 16,250 318 386 1792
2022-11-27 10:22:40 GMT 50.212219 7.797621 16,125 318 386 1792
2022-11-27 10:22:38 GMT 50.212219 7.797621 16,125 319 385 1792
2022-11-27 10:22:35 GMT 50.207016 7.804847 16,050 319 385 1792
2022-11-27 10:22:33 GMT 50.205051 7.807642 16,000 319 385 1792
2022-11-27 10:22:30 GMT 50.201885 7.812096 15,925 319 385 1792
2022-11-27 10:22:27 GMT 50.197090 7.818777 15,775 319 383 1856
2022-11-27 10:22:24 GMT 50.193283 7.824145 15,750 319 383 1792
2022-11-27 10:22:22 GMT 50.190479 7.827981 15,675 319 383 1856
2022-11-27 10:22:20 GMT 50.187698 7.831879 15,625 319 383 1920
2022-11-27 10:22:18 GMT 50.185593 7.834842 15,525 319 383 1920
2022-11-27 10:22:16 GMT 50.183487 7.837805 15,525 319 383 1856
2022-11-27 10:22:14 GMT 50.175568 7.848792 15,400 319 383 1856
2022-11-27 10:22:11 GMT 50.175568 7.848792 15,325 319 382 1856
2022-11-27 10:22:08 GMT 50.166138 7.862091 15,175 319 381 1856
2022-11-27 10:22:04 GMT 50.166138 7.862091 15,125 318 381 1856
2022-11-27 10:22:02 GMT 50.163528 7.865777 15,050 318 380 1856
2022-11-27 10:21:59 GMT 50.160271 7.870368 14,925 318 380 1920
2022-11-27 10:21:57 GMT 50.156872 7.875119 14,850 318 380 1920
2022-11-27 10:21:54 GMT 50.153240 7.880241 14,825 318 380 1920
2022-11-27 10:21:50 GMT 50.148148 7.887389 14,700 318 378 1984
2022-11-27 10:21:47 GMT 50.144627 7.892341 14,600 318 378 1984
2022-11-27 10:21:44 GMT 50.137253 7.902784 14,450 318 378 1984
2022-11-27 10:21:41 GMT 50.137253 7.902784 14,375 318 378 1984
2022-11-27 10:21:39 GMT 50.132988 7.908820 14,275 318 378 2048
2022-11-27 10:21:36 GMT 50.130383 7.912457 14,175 318 377 2112
2022-11-27 10:21:33 GMT 50.127312 7.916837 14,050 318 377 2176
2022-11-27 10:21:31 GMT 50.124191 7.921217 14,075 318 377 2176
2022-11-27 10:21:29 GMT 50.120838 7.925893 14,000 319 376 2240
2022-11-27 10:21:26 GMT 50.117065 7.931189 13,800 319 376 2048
2022-11-27 10:21:23 GMT 50.113953 7.935526 13,800 319 376 2048
2022-11-27 10:21:21 GMT 50.107849 7.944006 13,600 319 376 1920
2022-11-27 10:21:19 GMT 50.107849 7.944006 13,650 319 376 1920
2022-11-27 10:21:16 GMT 50.104221 7.949054 13,450 319 375 1856
2022-11-27 10:21:13 GMT 50.100449 7.954246 13,500 319 375 1856
2022-11-27 10:21:10 GMT 50.096680 7.959446 13,300 319 374 1856
2022-11-27 10:21:08 GMT 50.090378 7.968196 13,300 319 370 1920
2022-11-27 10:21:05 GMT 50.090378 7.968196 13,250 319 372 1920
2022-11-27 10:21:03 GMT 50.088043 7.971376 13,200 319 372 1920
2022-11-27 10:21:00 GMT 50.083923 7.977014 13,075 319 372 1920
2022-11-27 10:20:58 GMT 50.081818 7.979833 12,975 319 372 1920
2022-11-27 10:20:56 GMT 50.077312 7.986021 12,925 319 371 1920
2022-11-27 10:20:53 GMT 50.074860 7.989373 12,775 319 370 1984
2022-11-27 10:20:50 GMT 50.067535 7.999457 12,675 319 369 2112
2022-11-27 10:20:47 GMT 50.067535 7.999457 12,725 319 370 2048
2022-11-27 10:20:44 GMT 50.063210 8.005470 12,575 319 369 1984
2022-11-27 10:20:42 GMT 50.059799 8.010190 12,425 319 368 1792
2022-11-27 10:20:39 GMT 50.057388 8.013561 12,425 319 368 1792
2022-11-27 10:20:37 GMT 50.054317 8.017793 12,375 319 368 1728
2022-11-27 10:20:33 GMT 50.048496 8.025958 12,250 319 366 1920
2022-11-27 10:20:30 GMT 50.044876 8.031006 12,150 319 365 1600
2022-11-27 10:20:28 GMT 50.038834 8.039390 12,075 319 364 1216
2022-11-27 10:20:25 GMT 50.038834 8.039390 12,050 319 359 832
2022-11-27 10:20:22 GMT 50.035812 8.043582 12,000 319 361 832
2022-11-27 10:20:19 GMT 50.031738 8.049267 11,950 319 359 832
2022-11-27 10:20:17 GMT 50.030136 8.051533 11,950 319 357 960
2022-11-27 10:20:15 GMT 50.026428 8.056665 11,825 319 352 1088
2022-11-27 10:20:12 GMT 50.021072 8.064109 11,850 319 351 1088
2022-11-27 10:20:10 GMT 50.018372 8.067796 11,675 319 348 1088
2022-11-27 10:20:08 GMT 50.018372 8.067796 11,775 319 351 1088
2022-11-27 10:20:06 GMT 50.016098 8.071017 11,675 319 344 1344
2022-11-27 10:20:03 GMT 50.010090 8.079331 11,675 319 347 1216
2022-11-27 10:20:01 GMT 50.010090 8.079331 11,600 319 344 1280
2022-11-27 10:19:58 GMT 50.003769 8.088106 11,525 318 339 1408
2022-11-27 10:19:56 GMT 50.000244 8.093021 11,525 318 339 1408
2022-11-27 10:19:53 GMT 50.000244 8.093021 11,425 318 339 1280
2022-11-27 10:19:49 GMT 49.995239 8.100042 11,375 318 338 1088
2022-11-27 10:19:47 GMT 49.992783 8.103501 11,350 318 338 1088
2022-11-27 10:19:43 GMT 49.988537 8.109543 11,275 318 334 832
2022-11-27 10:19:40 GMT 49.985001 8.114487 11,225 318 331 896
2022-11-27 10:19:38 GMT 49.982811 8.117560 11,200 318 331 960
2022-11-27 10:19:36 GMT 49.981110 8.119908 11,150 318 328 960
2022-11-27 10:19:32 GMT 49.976852 8.125907 11,125 318 324 896
2022-11-27 10:19:30 GMT 49.971409 8.133520 11,075 318 323 896
2022-11-27 10:19:28 GMT 49.971409 8.133520 11,050 319 321 960
2022-11-27 10:19:26 GMT 49.969940 8.135593 11,000 319 317 1088
2022-11-27 10:19:22 GMT 49.963165 8.145061 10,900 319 316 1088
2022-11-27 10:19:18 GMT 49.961071 8.147921 10,875 319 314 1216
2022-11-27 10:19:16 GMT 49.958588 8.151350 10,875 319 313 1344
2022-11-27 10:19:12 GMT 49.954468 8.156915 10,750 320 311 1536
2022-11-27 10:19:08 GMT 49.949993 8.162842 10,625 320 308 1472
2022-11-27 10:19:06 GMT 49.948269 8.165217 10,500 318 305 1600
2022-11-27 10:19:03 GMT 49.944580 8.170286 10,500 319 305 1600
2022-11-27 10:19:01 GMT 49.941833 8.174117 10,425 318 304 1664
2022-11-27 10:18:58 GMT 49.939362 8.177659 10,400 318 303 1664
2022-11-27 10:18:56 GMT 49.937424 8.180435 10,350 317 302 1792
2022-11-27 10:18:53 GMT 49.933792 8.185779 10,200 316 300 1984
2022-11-27 10:18:49 GMT 49.930527 8.190741 10,075 316 299 1984
2022-11-27 10:18:47 GMT 49.928970 8.193199 10,025 315 299 1984
2022-11-27 10:18:45 GMT 49.927002 8.196234 9,950 315 298 2048
2022-11-27 10:18:41 GMT 49.922379 8.203535 9,800 314 296 2048
2022-11-27 10:18:38 GMT 49.918011 8.210796 9,675 313 295 2112
2022-11-27 10:18:36 GMT 49.918011 8.210796 9,350 311 294 2048
2022-11-27 10:18:32 GMT 49.914890 8.216215 9,450 311 294 2048
2022-11-27 10:18:29 GMT 49.911167 8.222895 9,250 311 292 1792
2022-11-27 10:18:26 GMT 49.908966 8.226881 9,250 286 273 1792
2022-11-27 10:18:21 GMT 49.905071 8.234030 9,150 306 287 1472
2022-11-27 10:18:19 GMT 49.902695 8.238806 9,075 306 287 1472
2022-11-27 10:18:17 GMT 49.900974 8.242641 8,975 301 282 1472
2022-11-27 10:18:11 GMT 49.895760 8.256671 8,850 296 278 1728
2022-11-27 10:18:08 GMT 49.895760 8.256671 8,825 293 276 1792
2022-11-27 10:18:06 GMT 49.894638 8.260490 8,650 287 273 1728
2022-11-27 10:18:01 GMT 49.892395 8.269742 8,600 287 273 1728
2022-11-27 10:17:58 GMT 49.891296 8.275813 8,525 280 269 1920
2022-11-27 10:17:56 GMT 49.890732 8.279757 8,475 281 270 1920
2022-11-27 10:17:52 GMT 49.889893 8.287403 8,275 277 267 1984
2022-11-27 10:17:50 GMT 49.889336 8.295346 8,250 276 267 1920
2022-11-27 10:17:48 GMT 49.889336 8.295346 8,200 276 266 1920
2022-11-27 10:17:45 GMT 49.889053 8.300099 8,125 276 266 1856
2022-11-27 10:17:42 GMT 49.888683 8.306406 8,025 276 264 1664
2022-11-27 10:17:39 GMT 49.888458 8.310724 7,975 276 263 1536
2022-11-27 10:17:37 GMT 49.888077 8.316131 7,900 276 261 1472
2022-11-27 10:17:34 GMT 49.887894 8.319471 7,850 276 259 1536
2022-11-27 10:17:31 GMT 49.887474 8.325336 7,775 277 257 1536
2022-11-27 10:17:28 GMT 49.887009 8.332313 7,675 277 255 1536
2022-11-27 10:17:26 GMT 49.886776 8.335580 7,625 277 254 1472
2022-11-27 10:17:24 GMT 49.886581 8.337973 7,600 277 253 1472
2022-11-27 10:17:20 GMT 49.886078 8.345304 7,500 275 251 1344
2022-11-27 10:17:17 GMT 49.885891 8.352504 7,400 270 248 1600
2022-11-27 10:17:15 GMT 49.885983 8.357107 7,325 264 244 1792
2022-11-27 10:17:11 GMT 49.886581 8.365944 7,200 261 244 1792
2022-11-27 10:17:09 GMT 49.886581 8.365944 7,150 258 242 1920
2022-11-27 10:17:06 GMT 49.887039 8.370064 7,100 258 242 1920
2022-11-27 10:17:04 GMT 49.887543 8.373461 6,975 250 241 2176
2022-11-27 10:17:01 GMT 49.889568 8.383533 6,875 251 241 2176
2022-11-27 10:16:59 GMT 49.889568 8.383533 6,825 250 241 2176
2022-11-27 10:16:56 GMT 49.890408 8.386725 6,725 246 240 2176
2022-11-27 10:16:53 GMT 49.892441 8.393121 6,600 242 240 2112
2022-11-27 10:16:50 GMT 49.893677 8.396735 6,475 242 240 2112
2022-11-27 10:16:46 GMT 49.895760 8.402611 6,375 242 239 2112
2022-11-27 10:16:44 GMT 49.896503 8.404764 6,350 242 239 2112
2022-11-27 10:16:41 GMT 49.898552 8.410480 6,200 242 238 2240
2022-11-27 10:16:37 GMT 49.900368 8.415527 6,000 242 238 2240
2022-11-27 10:16:35 GMT 49.902279 8.420946 5,925 241 238 2304
2022-11-27 10:16:31 GMT 49.903908 8.425400 5,800 241 237 2368
2022-11-27 10:16:29 GMT 49.906467 8.432155 5,700 239 238 2048
2022-11-27 10:16:26 GMT 49.906467 8.432155 5,650 236 237 1792
2022-11-27 10:16:23 GMT 49.908562 8.436980 5,525 233 236 1664
2022-11-27 10:16:20 GMT 49.911072 8.441403 5,450 224 234 1728
2022-11-27 10:16:16 GMT 49.913494 8.444997 5,325 216 233 1728
2022-11-27 10:16:11 GMT 49.920044 8.451088 5,200 205 230 1280
2022-11-27 10:16:06 GMT 49.923019 8.452823 5,100 199 228 1088
2022-11-27 10:16:02 GMT 49.928238 8.455353 5,025 197 223 768
2022-11-27 10:15:59 GMT 49.929794 8.456076 5,000 197 219 640
2022-11-27 10:15:57 GMT 49.932442 8.457320 4,975 197 218 640
2022-11-27 10:15:53 GMT 49.937050 8.459473 4,925 197 213 704
2022-11-27 10:15:50 GMT 49.938446 8.460123 4,900 197 211 768
2022-11-27 10:15:48 GMT 49.940403 8.461032 4,875 198 207 896
2022-11-27 10:15:46 GMT 49.944534 8.463014 4,525 195 196 1792
2022-11-27 10:15:43 GMT 49.948177 8.464817 4,525 195 196 1792
2022-11-27 10:15:39 GMT 49.948177 8.464817 4,725 197 198 1664
2022-11-27 10:15:37 GMT 49.950760 8.466050 4,675 197 198 1664
2022-11-27 10:15:33 GMT 49.953552 8.467279 4,575 196 197 1792
2022-11-27 10:15:30 GMT 49.956390 8.468507 4,475 195 196 1792
2022-11-27 10:15:26 GMT 49.959629 8.469791 4,325 192 194 1728
2022-11-27 10:15:24 GMT 49.961334 8.470314 4,125 187 189 1792
2022-11-27 10:15:20 GMT 49.965309 8.471424 3,950 188 192 1792
2022-11-27 10:15:16 GMT 49.969299 8.472338 4,050 188 192 1792
2022-11-27 10:15:09 GMT 49.975113 8.473422 3,875 187 191 1920
2022-11-27 10:15:05 GMT 49.978271 8.474073 3,725 187 190 1984
2022-11-27 10:15:03 GMT 49.980011 8.474362 3,375 187 188 1664
2022-11-27 10:15:00 GMT 49.982719 8.474913 3,550 187 190 1920
2022-11-27 10:14:55 GMT 49.987518 8.475808 3,400 187 189 1728
2022-11-27 10:14:53 GMT 49.988892 8.476024 3,375 187 189 1728
2022-11-27 10:14:50 GMT 49.991867 8.476603 3,225 187 187 1664
2022-11-27 10:14:48 GMT 49.994495 8.477066 3,150 187 186 1792
2022-11-27 10:14:45 GMT 49.996033 8.477288 3,125 187 185 1984
2022-11-27 10:14:39 GMT 50.001389 8.478193 2,875 187 184 2048
2022-11-27 10:14:36 GMT 50.003586 8.478626 2,800 188 184 2048
2022-11-27 10:14:34 GMT 50.005390 8.478996 2,725 190 184 1984
2022-11-27 10:14:29 GMT 50.009125 8.480217 2,575 196 183 2112
2022-11-27 10:14:27 GMT 50.011230 8.481301 2,500 202 185 2048
2022-11-27 10:14:25 GMT 50.017044 8.486433 2,275 213 186 1984
2022-11-27 10:14:19 GMT 50.017044 8.486433 2,200 219 187 2240
2022-11-27 10:14:16 GMT 50.019241 8.489468 2,075 228 189 2624
2022-11-27 10:14:15 GMT 50.020294 8.491347 1,950 230 190 2688
2022-11-27 10:14:13 GMT 50.020981 8.492576 1,925 235 192 2816
2022-11-27 10:14:12 GMT 50.021393 8.493444 1,900 235 192 2816
2022-11-27 10:14:10 GMT 50.022568 8.496143 1,775 240 196 2752
2022-11-27 10:14:09 GMT 50.022995 8.497202 1,750 242 196 2688
2022-11-27 10:14:08 GMT 50.023453 8.498431 1,700 243 197 2688
2022-11-27 10:14:07 GMT 50.024616 8.502156 1,575 246 198 2752
2022-11-27 10:14:05 GMT 50.024616 8.502156 1,575 246 198 2752
2022-11-27 10:14:04 GMT 50.024986 8.503418 1,525 248 198 2880
2022-11-27 10:14:03 GMT 50.025360 8.504754 1,475 248 198 2880
2022-11-27 10:14:01 GMT 50.026154 8.507755 1,350 249 198 3008
2022-11-27 10:13:59 GMT 50.027039 8.511361 1,250 249 199 3072
2022-11-27 10:13:57 GMT 50.027344 8.512597 1,150 249 199 3072
2022-11-27 10:13:54 GMT 50.028107 8.515666 1,025 250 200 3008
2022-11-27 10:13:53 GMT 50.028618 8.517819 550 250 200 2944
2022-11-27 10:13:52 GMT 50.028946 8.519229 925 250 200 2880
2022-11-27 10:13:51 GMT 50.029266 8.520403 875 250 200 2816
2022-11-27 10:13:50 GMT 50.029968 8.523238 775 250 200 2752
2022-11-27 10:13:47 GMT 50.030640 8.526113 675 250 200 2624
2022-11-27 10:13:45 GMT 50.031281 8.528788 575 250 200 2432
2022-11-27 10:13:44 GMT 50.031601 8.530161 550 250 200 2240
2022-11-27 10:13:43 GMT 50.031925 8.531329 500 250 200 2112
2022-11-27 10:13:41 GMT 50.032436 8.533482 450 250 199 2176
2022-11-27 10:13:40 GMT 50.032791 8.535004 400 250 198 2304
2022-11-27 10:13:39 GMT 50.033432 8.537678 325 250 198 2496
2022-11-27 10:13:37 GMT 50.033798 8.539268 275 250 198 2432
2022-11-27 10:13:36 GMT 50.034027 8.540352 225 250 198 2432
2022-11-27 10:13:34 GMT 50.039417 8.562952 125 250 198 1920
2022-11-27 10:13:18 GMT 50.039417 8.562952 25 250 161 -64
2022-11-27 10:13:17 GMT 50.039654 8.564065 25 250 147 -64
2022-11-27 10:13:16 GMT 50.039932 8.565105 25 250 147 -64
2022-11-27 10:13:14 GMT 50.040436 8.567312 25 250 147 -64
2022-11-27 10:13:13 GMT 50.041142 8.570301 25 250 136 -64
2022-11-27 10:13:11 GMT 50.041142 8.570301 25 250 136 -64
2022-11-27 10:13:10 GMT 50.041328 8.571043 25 250 132 -128
2022-11-27 10:13:09 GMT 50.041580 8.572010 25 250 129 -64
2022-11-27 10:13:07 GMT 50.041992 8.573745 50 250 101 -64
2022-11-27 10:13:06 GMT 50.042175 8.574540 25 250 101 -64
2022-11-27 10:12:57 GMT 50.044109 8.582671 0 247 64
2022-11-27 10:12:53 GMT 50.044109 8.582671 0 247 64
2022-11-27 10:12:52 GMT 50.044270 8.583358 0 247 59
2022-11-27 10:12:50 GMT 50.044399 8.583923 0 247 50
2022-11-27 10:12:49 GMT 50.044518 8.584386 0 247 45
2022-11-27 10:12:48 GMT 50.044590 8.584713 0 247 41
2022-11-27 10:12:45 GMT 50.044727 8.585309 0 247 27
2022-11-27 10:12:44 GMT 50.044807 8.585635 0 247 17
2022-11-27 10:12:42 GMT 50.044865 8.585852 0 247 9
2022-11-27 10:12:41 GMT 50.044876 8.585906 0 247 9
2022-11-27 10:12:40 GMT 50.044903 8.586020 0 244 4
2022-11-27 10:12:37 GMT 50.044910 8.586032 0 244 3
2022-11-27 10:12:35 GMT 50.044914 8.586075 0 244 2
2022-11-27 10:12:33 GMT 50.044922 8.586086 0 244 1
2022-11-27 10:12:31 GMT 50.044922 8.586105 0 244 0
2022-11-27 10:12:29 GMT 50.044926 8.586112 0 244 0
2022-11-27 10:12:23 GMT 50.044926 8.586131 0 244 0
2022-11-27 10:12:21 GMT 50.044926 8.586131 0 244 0
2022-11-27 10:12:18 GMT 50.044933 8.586123 0 244 0
2022-11-27 10:12:17 GMT 50.044926 8.586131 0 244 0
2022-11-27 10:12:15 GMT 50.044933 8.586123 0 244 0
2022-11-27 10:12:14 GMT 50.044937 8.586131 0 244 2
2022-11-27 10:12:13 GMT 50.044933 8.586141 0 244 2
2022-11-27 10:12:10 GMT 50.044945 8.586177 0 244 4
2022-11-27 10:12:09 GMT 50.044949 8.586224 0 241 4
2022-11-27 10:12:07 GMT 50.044949 8.586279 0 236 5
2022-11-27 10:12:04 GMT 50.044971 8.586372 0 230 5
2022-11-27 10:12:02 GMT 50.044971 8.586428 0 222 5
2022-11-27 10:12:01 GMT 50.044979 8.586466 0 216 5
2022-11-27 10:12:00 GMT 50.044994 8.586539 0 205 6
2022-11-27 10:11:59 GMT 50.044994 8.586539 0 205 6
2022-11-27 10:11:56 GMT 50.045036 8.586647 0 191 6
2022-11-27 10:11:55 GMT 50.045052 8.586669 0 185 6
2022-11-27 10:11:53 GMT 50.045086 8.586688 0 182 6
2022-11-27 10:11:52 GMT 50.045120 8.586706 0 182 7
2022-11-27 10:11:49 GMT 50.045193 8.586688 0 182 8

Making use of Plane Finder data

You are free to use the raw flight data, aircraft information and images provided in this report for your own purposes provided the data is correctly attributed to Plane Finder. We ask that you please credit Plane Finder and link to planefinder.net in close proximity to the content.

Optionally one of the following logos (no smaller then 150x24px) can be used and must link to planefinder.net

Embedding the Plane Finder map

You are welcome to embed the Plane Finder playback map on your website to offer visitors a more interactive experience. We suggest using the following HTML code:

<iframe src="//planefinder.net/data/report/AA71-N826AN-7700-squawk-2022-11-27/map" width="800" height="600" seamless="seamless"></iframe>

Where our data comes from

Plane Finder has a global network of data feeds and antenna radars that receive data broadcast directly from aircraft. The primary technologies used are ADS-B and MLAT. We also show feeds from the FAA and a FLARM glider feed.

Click here to find out more about the Plane Finder network.

How we collect our data